     2.11           OBSERVATION DATA    G (GPS)             RINEX VERSION / TYPE
teqc 2010Oct21 OPUS Account 20111028 17:01:33UTC            PGM / RUN BY / DATE
L 1527                                                      MARKER NAME
3071                                                        MARKER NUMBER
CSMIDDLETON NGS                                             OBSERVER / AGENCY
0220284361 TRIMBLE 5700 NP 1.22 / SP 1.22                   REC # / TYPE / VERS
12234991 TRM41249.00 NONE                                   ANT # / TYPE
  -723066.4412 -5591076.2451  2972869.0943                  APPROX POSITION XYZ
        2.0000        0.0000        0.0000                  ANTENNA: DELTA H/E/N
     1     1                                                WAVELENGTH FACT L1/2
     5    L1    L2    C1    P1    P2                        # / TYPES OF OBSERV
    15                                                      LEAP SECONDS
  2011     8    25     0     0   30.0000000     GPS         TIME OF FIRST OBS
                                                            END OF HEADER
 11  8 25  0  0 30.0000000  0  9G12G17G10G09G05G04G25G02G30
 -23000542.35257 -17900568.20756  21396498.9924                   21396496.8014
 -32812406.85557 -25545209.20655  23098284.8284                   23098284.5434
 -29776099.80957 -23181851.83956  20792015.8284                   20792014.5704
 -14690377.54357 -11424543.41754  23590629.5474                   23590631.8094
 -19190438.68057 -14930764.25356  21850046.3364                   21850046.4774
 -32659514.88358 -25424519.24455  21646944.0784                   21646942.7894
  -3449282.77057  -2665145.69254  24095038.9304                   24095041.0354
 -33312312.18058 -25934765.52657  20565917.7344                   20565913.7154
  -1321258.92656  -1006622.00153  24097047.2194                   24097047.6414
 11  8 25  0  1  0.0000000  0  9G12G17G10G09G05G04G25G02G30
 -23093679.72347 -17973142.75846  21378775.1884                   21378773.3794
 -32793037.20747 -25530116.03145  23101970.8984                   23101970.6684
 -29806041.36348 -23205182.90146  20786317.5864                   20786316.7814
 -14645415.99247 -11389508.56944  23599185.7504                   23599187.6214
 -19311729.24647 -15025276.27046  21826965.4924                   21826965.7624
 -32615187.43048 -25389978.39045  21655379.1254                   21655378.6334
  -3581210.56647  -2767946.49744  24069933.7734                   24069935.8914
 -33344444.12547 -25959803.39947  20559803.6174                   20559799.6764
  -1455447.16046  -1111184.20743  24071512.1644                   24071512.1294
 11  8 25  0  1 30.0000000  0  9G12G17G10G09G05G04G25G02G30
 -23186391.81647 -18045385.91446  21361132.7194                   21361131.3164
 -32773510.19547 -25514900.22845  23105686.7504                   23105686.9264
 -29835353.43048 -23228023.47146  20780740.0394                   20780739.0044
 -14600292.27747 -11354347.37444  23607772.2344                   23607774.3014
 -19432709.11747 -15119546.18346  21803943.7034                   21803943.5944
 -32570732.42248 -25355338.12445  21663838.6884                   21663838.0554
  -3712967.48847  -2870614.15544  24044860.8134                   24044863.3914
 -33376295.30548 -25984622.48147  20553742.1174                   20553738.1994
  -1589413.52046  -1215573.48043  24046018.9144                   24046019.0164
 11  8 25  0  2  0.0000000  0  9G12G17G10G09G05G04G25G02G30
 -23278677.07447 -18117296.47846  21343571.2974                   21343569.7194
 -32753826.07447 -25499562.01045  23109432.4694                   23109433.0274
 -29864036.60948 -23250373.97446  20775281.8914                   20775280.6764
 -14555010.36746 -11319062.90744  23616388.6414                   23616391.7854
 -19553375.81647 -15213572.06246  21780981.4614                   21780981.6134
 -32526152.30548 -25320600.39145  21672322.0474                   21672321.0354
  -3844551.66847  -2973147.21044  24019821.4614                   24019823.4614
 -33407867.22748 -26009223.96447  20547734.6174                   20547730.3594
  -1723156.04746  -1319788.33743  24020569.1174                   24020568.5394
 11  8 25  0  2 30.0000000  0  9G12G17G10G09G05G04G25G02G30
 -23370532.09047 -18188871.77846  21326091.9224                   21326090.2774
 -32733983.44547 -25484100.28545  23113208.5784                   23113209.0904
 -29892090.03548 -23272233.76546  20769943.4224                   20769942.2974
 -14509572.64846 -11283657.02744  23625035.2814                   23625038.1254
 -19673725.56247 -15307350.96846  21758080.2584                   21758079.8284
 -32481448.16048 -25285765.99045  21680829.1094                   21680828.1524
  -3975959.59447  -3075542.90944  23994814.5864                   23994817.4844
 -33439160.25047 -26033608.11947  20541779.4064                   20541775.6764
  -1856670.89146  -1423825.73543  23995161.4924                   23995161.4534
 11  8 25  0  3  0.0000000  0  9G12G17G10G09G05G04G25G02G30
 -23461954.27047 -18260109.81046  21308694.8754                   21308693.1214
 -32713981.09047 -25468514.10445  23117014.8754                   23117015.2734
 -29919512.99248 -23293602.29146  20764725.2424                   20764723.7274
 -14463981.87146 -11248131.90444  23633710.7114                   23633713.8324
 -19793755.21547 -15400880.44546  21735239.2194                   21735239.0664
 -32436621.60248 -25250836.20345  21689359.1094                   21689358.2704
  -4107188.13746  -3177798.80644  23969842.8754                   23969845.0004
 -33470175.19547 -26057775.60447  20535877.5634                   20535873.7304
  -1989954.69946  -1527683.24243  23969798.7894                   23969798.0664
 11  8 25  0  3 30.0000000  0  9G12G17G10G09G05G04G25G02G30
 -23552941.63747 -18331009.02446  21291380.2584                   21291378.6414
 -32693818.96947 -25452803.40945  23120851.3984                   23120852.0824
 -29946305.68748 -23314479.69946  20759626.4144                   20759625.1414
 -14418242.32447 -11212490.88943  23642415.3914                   23642417.8204
 -19913462.44947 -15494158.70446  21712459.1174                   21712459.3914
 -32391675.03948 -25215812.91745  21697912.1954                   21697911.7894
  -4238235.19947  -3279913.27944  23944905.2504                   23944907.5784
 -33500913.65247 -26081727.62146  20530028.1884                   20530024.1914
  -2123005.29746  -1631358.94243  23944479.6884                   23944480.0594
 11  8 25  0  4  0.0000000  0  9G12G17G10G09G05G04G25G02G30
 -23643496.39147 -18401571.13946  21274148.5474                   21274146.9734
 -32673501.04747 -25436971.31244  23124718.2584                   23124718.2934
 -29972472.81248 -23334869.63346  20754647.1414                   20754646.0394
 -14372361.39547 -11176739.67044  23651146.5234                   23651148.9024
 -20032848.82047 -15587186.92346  21689740.7034                   21689740.6524
 -32346614.70348 -25180700.99045  21706487.1174                   21706486.3484
  -4369102.56647  -3381887.73744  23920002.3914                   23920004.3554
 -33531381.30948 -26105468.61846  20524230.5314                   20524226.6094
  -2255824.22746  -1734854.05643  23919204.9064                   23919204.7934
 11  8 25  0  4 30.0000000  0  9G12G17G10G09G05G04G25G02G30
 -23733610.23848 -18471789.70146  21257000.6174                   21256998.5234
 -32653020.23447 -25421012.30044  23128615.4534                   23128615.8014
 -29998008.42248 -23354767.48046  20749787.7584                   20749786.5984
 -14326336.52047 -11140876.31044  23659904.6024                   23659907.4574
 -20151905.20747 -15679958.02146  21667085.1024                   21667085.1804
 -32301436.45348 -25145497.16145  21715084.2424                   21715083.5514
  -4499781.36747  -3483715.25744  23895134.6884                   23895136.8164
 -33561572.80548 -26128994.43547  20518485.0554                   20518481.0204
  -2388402.41846  -1838161.72643  23893975.9534                   23893976.1484
 11  8 25  0  5  0.0000000  0  9G12G17G10G09G05G04G25G02G30
 -23823280.28548 -18541662.43746  21239936.8364                   21239934.9804
 -32632375.41047 -25404925.43244  23132544.1334                   23132543.9694
 -30022912.02048 -23374172.84346  20745048.5864                   20745047.5864
 -14280170.31247 -11104902.80243  23668690.4064                   23668692.4924
 -20270628.49647 -15772469.56246  21644492.5864                   21644492.6254
 -32256141.37148 -25110202.32445  21723703.5164                   21723702.9264
  -4630268.44147  -3585393.39844  23870303.9844                   23870305.3914
 -33591489.03148 -26152305.75247  20512792.3444                   20512788.2584
  -2520736.46546  -1941279.09243  23868793.6724                   23868793.6604
 11  8 25  0  5 30.0000000  0  9G12G17G10G09G05G04G25G02G30
 -23912513.38748 -18611194.69646  21222956.7894                   21222954.4414
 -32611575.44147 -25388717.72044  23136502.1564                   23136502.1564
 -30047192.56248 -23393092.71946  20740428.3134                   20740427.3244
 -14233875.30147 -11068828.97844  23677499.7424                   23677502.3244
 -20389024.87547 -15864726.37246  21621962.7974                   21621962.1294
 -32210740.74248 -25074825.23445  21732342.8754                   21732342.2544
  -4760570.22747  -3686927.13844  23845508.0314                   23845510.1524
 -33621140.24247 -26175410.57446  20507149.6804                   20507145.6764
  -2652832.67646  -2044211.11143  23843656.3204                   23843656.9104
 11  8 25  0  6  0.0000000  0  9G12G17G10G09G05G04G25G02G30
 -24001303.25047 -18680381.58446  21206060.2894                   21206057.9304
 -32590615.84447 -25372385.60644  23140490.0864                   23140490.9614
 -30070846.52348 -23411524.33946  20735927.1094                   20735925.6174
 -14187451.33247 -11032654.63944  23686334.1024                   23686336.5594
 -20507087.70747 -15956723.26846  21599495.7114                   21599495.5904
 -32165232.70748 -25039364.43745  21741002.9454                   21741002.1844
  -4890680.41047  -3788311.58544  23820749.1174                   23820750.9964
 -33650523.76647 -26198306.79846  20501558.4454                   20501554.4304
  -2784684.52746  -2146952.78843  23818565.2274                   23818566.0704
 11  8 25  0  6 30.0000000  0  9G12G17G10G09G05G04G25G02G30
 -22514223.91447 -17521618.45346  21489041.8594                   21489039.7814
 -30994075.69947 -24128328.40644  23444302.4064                   23444302.3594
 -28518452.40248 -22201866.54146  21031337.7114                   21031336.6604
 -12565481.95747  -9768782.60544  23994985.0704                   23994987.5784
 -19049389.57447 -14820854.48846  21876886.2974                   21876886.0864
 -30544199.33248 -23776221.57145  22049474.8284                   22049474.9614
  -3445170.93447  -2661940.44644  24095820.3594                   24095821.9734
 -32104218.94147 -24993393.92947  20795810.2584                   20795806.7894
  -1340863.66846  -1021897.45743  24093315.5234                   24093316.0434
 11  8 25  0  7  0.0000000  0  9G12G17G10G09G05G04G25G02G30
 -22602116.95747 -17590106.51246  21472316.2504                   21472314.0354
 -30972790.83647 -24111742.85344  23448352.1804                   23448353.1334
 -28540849.36348 -22219318.68346  21027076.0784                   21027074.7664
 -12518805.50447  -9732411.55744  24003867.2114                   24003869.7734
 -19166772.89847 -14912321.90746  21854549.2274                   21854548.4964
 -30498477.66848 -23740594.33345  22058175.6414                   22058175.0784
  -3574885.80947  -2763016.89644  24071135.6644                   24071137.7734
 -32133066.52747 -25015872.54446  20790321.0084                   20790317.0784
  -1472213.98046  -1124248.26443  24068321.0944                   24068320.6414
 11  8 25  0  7 30.0000000  0  9G12G17G10G09G05G04G25G02G30
 -22689558.41047 -17658242.68846  21455676.6174                   21455674.6294
 -30951343.10247 -24095030.38744  23452433.7344                   23452434.5004
 -28562618.44948 -22236281.56646  21022932.8134                   21022931.8984
 -12472008.11347  -9695946.24444  24012772.8444                   24012775.5944
 -19283812.52047 -15003521.51646  21832277.2194                   21832276.6334
 -30452652.25448 -23704886.27145  22066895.9844                   22066895.4774
  -3704399.23047  -2863936.41644  24046490.6564                   24046491.9494
 -32161648.24248 -25038143.99946  20784881.7344                   20784878.0274
  -1603309.47746  -1226400.50743  24043373.3914                   24043373.6484
 11  8 25  0  8  0.0000000  0  9G12G17G10G09G05G04G25G02G30
 -22776544.37547 -17726023.94646  21439123.9304                   21439121.8914
 -30929730.06647 -24078189.10544  23456546.7344                   23456547.2894
 -28583758.03148 -22252753.93646  21018910.5554                   21018909.0084
 -12425091.43047  -9659387.97144  24021700.6094                   24021704.2854
 -19400504.09047 -15094449.90346  21810071.4454                   21810070.6914
 -30406723.35548 -23669097.55445  22075635.9144                   22075635.0044
  -3833706.95747  -2964695.58244  24021883.6804                   24021886.0864
 -32189963.41047 -25060207.74747  20779493.4614                   20779489.6724
  -1734145.80547  -1328350.82843  24018476.3054                   24018476.1294
 11  8 25  0  8 30.0000000  0  9G12G17G10G09G05G04G25G02G30
 -22863069.08247 -17793445.76946  21422658.8204                   21422656.8674
 -30907947.15247 -24061215.44545  23460691.9064                   23460692.6564
 -28604264.58648 -22268733.03846  21015008.1484                   21015007.3634
 -12378054.85947  -9622736.29444  24030652.0474                   24030654.4804
 -19516840.90647 -15185101.86146  21787933.0474                   21787932.3634
 -30360688.84447 -23633226.54645  22084396.0944                   22084395.6414
  -3962802.53147  -3065289.41944  23997317.8054                   23997320.1374
 -32218009.64847 -25082061.93546  20774156.6094                   20774152.6524
  -1864716.16446  -1430093.86243  23993629.6174                   23993629.1524
 11  8 25  0  9  0.0000000  0  9G12G17G10G09G05G04G25G02G30
 -22949138.56247 -17860512.87246  21406280.5474                   21406278.4844
 -30886002.43047 -24044115.69445  23464867.9064                   23464868.4224
 -28624147.17248 -22284225.93646  21011224.6644                   21011223.0394
 -12330910.32046  -9586000.49944  24039623.4774                   24039626.2304
 -19632828.92247 -15275482.04346  21765860.8834                   21765860.3954
 -30314559.11747 -23597281.33745  22093174.0784                   22093173.6094
  -4091691.65247  -3165722.50544  23972791.1954                   23972793.2624
 -32245796.38748 -25103713.92246  20768868.9924                   20768865.0234
  -1995026.21947  -1531634.04344  23968832.5634                   23968831.6094
 11  8 25  0  9 30.0000000  0  9G12G17G10G09G05G04G25G02G30
 -23034753.19148 -17927225.55646  21389988.2814                   21389986.1454
 -30863897.78547 -24026891.33445  23469074.1174                   23469074.7624
 -28643408.76248 -22299234.93846  21007559.3834                   21007557.8674
 -12283663.53146  -9549184.99544  24048614.0164                   24048617.0004
 -19748467.69147 -15365590.06646  21743855.8134                   21743855.5514
 -30268338.40247 -23561265.23145  22101969.7814                   22101969.3524
  -4220374.17247  -3265994.54544  23948303.3284                   23948305.4964
 -32273327.00848 -25125166.34247  20763630.0394                   20763625.9614
  -2125075.60947  -1632971.15544  23944084.9144                   23944084.1024
 11  8 25  0 10  0.0000000  0  9G12G17G10G09G05G04G25G02G30
 -23119901.79348 -17993575.09846  21373785.5474                   21373783.1604
 -30841623.50847 -24009534.80944  23473312.8204                   23473313.6524
 -28662040.08248 -22313752.82846  21004013.8364                   21004012.2854
 -12236308.87946  -9512285.47644  24057625.2504                   24057628.6994
 -19863745.11348 -15455416.53546  21721919.3674                   21721918.6604
 -30222019.34847 -23525172.50245  22110784.0474                   22110783.4654
  -4348838.26247  -3366096.42044  23923857.5234                   23923859.5204
 -32300594.32448 -25146413.57747  20758441.5944                   20758437.5434
  -2254852.24247  -1734095.64844  23919389.4224                   23919388.3594
 11  8 25  0 10 30.0000000  0  9G12G17G10G09G05G04G25G02G30
 -23204581.76248 -18059559.47146  21357671.2114                   21357668.8984
 -30819178.75047 -23992045.43944  23477584.2274                   23477584.9144
 -28680041.02048 -22327779.50646  21000588.2344                   21000586.7464
 -12188849.49647  -9475304.33144  24066656.8914                   24066660.4454
 -19978658.52347 -15544959.34746  21700051.9304                   21700051.3594
 -30175603.30147 -23489004.18545  22119616.7894                   22119616.3244
  -4477080.96146  -3466025.74144  23899453.5164                   23899455.8284
 -32327598.72748 -25167455.95947  20753302.4384                   20753298.3714
  -2384353.12146  -1835005.27744  23894745.4454                   23894745.1764
 11  8 25  0 11  0.0000000  0  9G12G17G10G09G05G04G25G02G30
 -23288799.88348 -18125183.95746  21341645.0784                   21341642.9804
 -30796572.20347 -23974430.01444  23481885.6804                   23481886.1884
 -28697421.44548 -22341322.66846  20997281.1484                   20997279.8954
 -12141297.41447  -9438250.94144  24075705.7504                   24075709.5554
 -20093213.99248 -15634223.24246  21678252.6024                   21678251.7234
 -30129101.27048 -23452768.87845  22128465.9304                   22128465.4064
  -4605108.48447  -3565787.44044  23875090.8834                   23875092.9844
 -32354350.41448 -25188301.40546  20748211.6484                   20748207.7034
  -2513584.26247  -1935704.77044  23870153.8754                   23870153.5314
 11  8 25  0 11 30.0000000  0  9G12G17G10G09G05G04G25G02G30
 -23372548.07448 -18190442.27346  21325708.1254                   21325705.9494
 -30773796.85547 -23956683.02644  23486220.1564                   23486220.0354
 -28714175.50048 -22354377.75446  20994092.8984                   20994091.3164
 -12093649.70747  -9401123.05144  24084773.5474                   24084776.3714
 -20207402.51647 -15723201.21246  21656523.0474                   21656522.3594
 -30082508.69947 -23416463.00445  22137332.0474                   22137331.8914
  -4732911.95347  -3665374.55344  23850771.0234                   23850772.1214
 -32380844.41848 -25208946.07747  20743169.9454                   20743165.8674
  -2642536.73447  -2036187.10644  23845614.7034                   23845614.4734
 11  8 25  0 12  0.0000000  0  9G12G17G10G09G05G04G25G02G30
 -23455822.32448 -18255331.26946  21309861.7344                   21309859.4264
 -30750850.63347 -23938802.89344  23490586.3524                   23490586.5904
 -28730302.08248 -22366943.90746  20991023.8914                   20991022.5984
 -12045908.14147  -9363922.03344  24093857.7974                   24093861.4224
 -20321219.89847 -15811889.97946  21634863.9224                   21634863.6214
 -30035825.87547 -23380086.81045  22146215.7894                   22146215.2464
  -4860487.28947  -3764783.86444  23826494.0784                   23826495.8324
 -32407080.39148 -25229389.67047  20738177.3524                   20738173.5204
  -2771206.19546  -2136448.92544  23821129.6724                   23821129.3404
 11  8 25  0 12 30.0000000  0  9G12G17G10G09G05G04G25G02G30
 -23538622.14148 -18319850.59346  21294105.3204                   21294102.8984
 -30727734.44147 -23920790.30344  23494985.9924                   23494985.7234
 -28745802.78148 -22379022.35646  20988073.9534                   20988072.6914
 -11998077.30547  -9326651.44044  24102960.5554                   24102963.3054
 -20434664.87548 -15900288.55546  21613276.1484                   21613275.7074
 -29989055.90247 -23343642.69845  22155115.7114                   22155114.7734
  -4987833.00847  -3864014.25044  23802260.7034                   23802262.3524
 -32433060.67248 -25249634.03547  20733233.7194                   20733229.8014
  -2899591.02746  -2236488.93744  23796698.8134                   23796698.7624
 11  8 25  0 13  0.0000000  0  9G12G17G10G09G05G04G25G02G30
 -23620946.40648 -18383999.35046  21278439.6334                   21278437.4224
 -30704448.74246 -23902645.66044  23499416.9924                   23499417.0824
 -28760679.17248 -22390614.33346  20985243.6954                   20985242.1764
 -11950161.66447  -9289314.79744  24112078.2344                   24112081.9614
 -20547735.66048 -15988395.56946  21591759.3524                   21591758.9964
 -29942201.34847 -23307132.68445  22164031.8914                   22164031.1214
  -5114947.44147  -3963064.41245  23778072.1094                   23778073.9344
 -32458787.69548 -25269681.05447  20728337.9774                   20728334.0904
  -3027689.34847  -2336305.75244  23772322.3984                   23772322.2734
 11  8 25  0 13 30.0000000  0  9G12G17G10G09G05G04G25G02G30
 -23702790.67248 -18447774.08446  21262865.1484                   21262862.7974
 -30680990.62947 -23884366.65844  23503880.7194                   23503881.3094
 -28774929.36748 -22401718.36946  20982531.4224                   20982530.2894
 -11902162.02047  -9251912.63744  24121212.8594                   24121216.0984
 -20660427.18048 -16076207.05146  21570314.7894                   21570314.4614
 -29895261.55947 -23270556.23945  22172964.3284                   22172963.7034
  -5241825.41047  -4061930.30545  23753927.6724                   23753929.5904
 -32484259.92248 -25289529.51247  20723490.6174                   20723486.8404
  -3155495.93746  -2435895.21144  23748001.6254                   23748001.6524
 11  8 25  0 14  0.0000000  0  9G12G17G10G09G05G04G25G02G30
 -23784160.73447 -18511179.31146  21247380.5234                   21247378.6564
 -30657367.72747 -23865959.23644  23508376.0784                   23508376.2584
 -28788562.22348 -22412341.36846  20979937.1334                   20979936.1414
 -11854089.57846  -9214453.78244  24130360.6414                   24130363.9384
 -20772744.82847 -16163727.20446  21548941.4924                   21548940.7034
 -29848246.42247 -23233921.08445  22181911.2814                   22181910.3244
  -5368472.41447  -4160616.21044  23729827.5164                   23729829.7384
 -32509487.04348 -25309186.99647  20718689.9384                   20718686.0474
  -3283016.12946  -2535261.55243  23723734.9534                   23723734.8794
 11  8 25  0 14 30.0000000  0  9G12G17G10G09G05G04G25G02G30
 -23865050.97748 -18574210.63646  21231988.2504                   21231985.7074
 -30633575.90647 -23847420.22544  23512903.5474                   23512904.1024
 -28801574.42248 -22422480.73046  20977461.2274                   20977459.8914
 -11805944.13346  -9176938.04144  24139522.4454                   24139525.9734
 -20884682.44148 -16250951.23146  21527640.5314                   21527639.7074
 -29801153.98447 -23197225.68145  22190872.4774                   22190871.6604
  -5494882.07847  -4259117.15244  23705772.1884                   23705774.3484
 -32534466.21548 -25328651.26246  20713936.6024                   20713933.0514
  -3410243.35946  -2634399.66643  23699524.7344                   23699523.4964
 11  8 25  0 15  0.0000000  0  9G12G17G10G09G05G04G25G02G30
 -23945455.05148 -18636863.13846  21216687.5474                   21216685.2814
 -30609610.29347 -23828745.79344  23517464.7114                   23517464.7304
 -28813962.33248 -22432133.62946  20975103.6174                   20975102.6884
 -11757724.60246  -9139364.57643  24148698.6094                   24148702.2154
 -20996232.68448 -16337873.42046  21506413.1954                   21506412.2464
 -29753981.77747 -23160468.12445  22199848.7114                   22199848.0864
  -5621047.49247  -4357427.76844  23681763.7814                   23681766.1094
 -32559194.73848 -25347920.22846  20709230.9774                   20709227.2854
  -3537170.61746  -2733303.98644  23675371.2504                   23675370.6564
 11  8 25  0 15 30.0000000  0  9G12G17G10G09G05G04G25G02G30
 -24025371.71947 -18699135.84546  21201480.0314                   21201477.8714
 -30585470.75447 -23809935.82344  23522057.7504                   23522058.0354
 -28825726.99648 -22441300.89746  20972864.9924                   20972863.9734
 -11709434.52346  -9101736.13544  24157887.5474                   24157891.6764
 -21107394.09447 -16424492.61346  21485260.0864                   21485258.8484
 -29706731.76247 -23123649.94845  22208840.2974                   22208840.0474
  -5746966.32447  -4455546.22444  23657802.1724                   23657804.3444
 -32583674.03148 -25366994.98346  20704572.5944                   20704568.6254
  -3663795.32846  -2831972.58344  23651275.3054                   23651274.6914
 11  8 25  0 16  0.0000000  0  9G12G17G10G09G05G04G25G02G30
 -24104797.44148 -18761025.98846  21186365.6644                   21186363.5044
 -30561155.33647 -23790988.81444  23526684.8754                   23526685.3714
 -28836867.59848 -22449981.87646  20970745.0234                   20970743.8754
 -11661075.86746  -9064054.26944  24167090.3984                   24167094.9694
 -21218161.94148 -16510805.13646  21464181.4064                   21464180.3954
 -29659404.07047 -23086771.23545  22217846.3594                   22217846.3874
  -5872634.18747  -4553469.12644  23633888.5864                   23633890.3324
 -32607903.85948 -25385875.35046  20699961.9774                   20699958.2074
  -3790113.08246  -2930401.94943  23627237.9144                   23627237.3524
 11  8 25  0 16 30.0000000  0  9G12G17G10G09G05G04G25G02G30
 -24183733.78548 -18822534.80746  21171344.4144                   21171342.1724
 -30536667.55547 -23771907.44144  23531345.0704                   23531345.5124
 -28847388.71548 -22458180.15346  20968743.0634                   20968741.7344
 -11612655.61746  -9026324.42844  24176304.3594                   24176309.0234
 -21328537.48448 -16596811.98246  21443177.4844                   21443176.0784
 -29612004.20347 -23049836.28745  22226866.2424                   22226865.7734
  -5998052.43747  -4651197.53144  23610022.0864                   23610024.0394
 -32631888.94948 -25404565.01747  20695397.7584                   20695393.8444
  -3916124.85946  -3028592.95944  23603258.9924                   23603257.6334
 11  8 25  0 17  0.0000000  0  9G12G17G10G09G05G04G25G02G30
 -24262177.72348 -18883659.91646  21156417.2194                   21156415.3244
 -30512005.76247 -23752690.47944  23536037.7734                   23536037.7304
 -28857290.07448 -22465895.49246  20966858.9224                   20966857.7704
 -11564175.82846  -8988548.15143  24185530.1334                   24185534.2584
 -21438517.08248 -16682510.28546  21422248.9304                   21422247.8014
 -29564532.80147 -23012845.60945  22235899.7584                   22235899.2664
  -6123217.21947  -4748728.41444  23586203.6334                   23586206.1844
 -32655629.65248 -25423064.24846  20690879.7344                   20690876.1564
  -4041826.86346  -3126542.59243  23579338.7194                   23579337.2894
 11  8 25  0 17 30.0000000  0  9G12G17G10G09G05G04G25G02G30
 -24340125.84848 -18944398.69146  21141584.0164                   21141582.2544
 -30487167.46947 -23733336.04444  23540763.9064                   23540764.7704
 -28866570.91848 -22473127.31846  20965092.4534                   20965091.4104
 -11515638.51246  -8950727.10244  24194766.4694                   24194770.3634
 -21548096.64147 -16767896.86946  21401396.6094                   21401395.4414
 -29516990.03947 -22975799.33045  22244947.3204                   22244946.6134
  -6248124.53947  -4846058.67944  23562434.9694                   23562436.6214
 -32679125.67648 -25441372.82546  20686408.8674                   20686405.0514
  -4167214.82447  -3224247.41044  23555478.0314                   23555477.2854
 11  8 25  0 18  0.0000000  0  9G12G17G10G09G05G04G25G02G30
 -24417580.79348 -19004753.15746  21126844.8834                   21126842.6804
 -30462157.11747 -23713847.49444  23545523.4774                   23545524.4494
 -28875236.53948 -22479879.73746  20963443.8524                   20963442.6024
 -11467051.13746  -8912866.98943  24204012.8284                   24204016.7034
 -21657278.28148 -16852973.39646  21380620.0084                   21380618.9844
 -29469381.94147 -22938702.12645  22254006.6564                   22254005.9654
  -6372775.82847  -4943189.48044  23538714.1644                   23538715.7504
 -32702382.30148 -25459494.85747  20681982.9844                   20681979.5984
  -4292290.09846  -3321708.60944  23531677.1804                   23531675.8284
 11  8 25  0 18 30.0000000  0  9G12G17G10G09G05G04G25G02G30
 -24494539.84048 -19064721.21746  21112199.6564                   21112197.6844
 -30436973.76647 -23694224.15644  23550316.1484                   23550315.9654
 -28883287.07448 -22486152.87746  20961911.6334                   20961910.6914
 -11418416.41446  -8874970.01344  24213267.6334                   24213271.5234
 -21766058.61348 -16937737.21046  21359919.8914                   21359918.8134
 -29421709.71147 -22901554.93945  22263078.6954                   22263077.8634
  -6497167.87147  -5040118.27545  23515043.6484                   23515045.2584
 -32725400.69948 -25477431.27746  20677603.2274                   20677599.3404
  -4417049.37147  -3418923.57444  23507936.0084                   23507934.8164
 11  8 25  0 19  0.0000000  0  9G12G17G10G09G05G04G25G02G30
 -24570996.82048 -19124298.06646  21097650.6254                   21097648.3364
 -30411612.58647 -23674462.24044  23555142.0704                   23555142.6764
 -28890719.43748 -22491944.32646  20960497.1644                   20960496.2154
 -11369733.16847  -8837035.24243  24222532.4384                   24222535.5004
 -21874430.93448 -17022183.09346  21339297.1334                   21339296.1134
 -29373970.23047 -22864355.35745  22272162.8594                   22272162.5164
  -6621293.76247  -5136839.65745  23491422.9304                   23491424.0864
 -32748177.52048 -25495179.43847  20673268.4384                   20673264.9064
  -4541485.52046  -3515886.74244  23484256.1644                   23484255.5594
 11  8 25  0 19 30.0000000  0  9G12G17G10G09G05G04G25G02G30
 -24646953.71948 -19183485.22846  21083196.6724                   21083194.7114
 -30386076.89547 -23654564.33244  23560001.7274                   23560001.5864
 -28897538.20748 -22497257.63846  20959199.8594                   20959198.8954
 -11321008.59447  -8799068.22943  24231804.5164                   24231807.9224
 -21982396.39548 -17106311.95146  21318752.0234                   21318750.7814
 -29326169.54747 -22827108.11045  22281258.9144                   22281258.8444
  -6745154.85247  -5233354.70445  23467852.8524                   23467854.1604
 -32770717.85948 -25512743.33147  20668979.3364                   20668975.6374
  -4665599.79346  -3612599.07644  23460638.2894                   23460637.3244
 11  8 25  0 20  0.0000000  0  9G12G17G10G09G05G04G25G02G30
 -24722406.74648 -19242279.77146  21068838.3134                   21068836.1564
 -30360363.74246 -23634528.14544  23564894.9384                   23564894.7854
 -28903741.75848 -22502091.56446  20958019.2584                   20958018.1454
 -11272243.50847  -8761069.69743  24241084.4064                   24241087.3634
 -22089950.01248 -17190119.89346  21298285.0004                   21298284.4774
 -29278306.45747 -22789812.24345  22290367.2034                   22290366.5554
  -6868745.80147  -5329659.23845  23444334.0004                   23444335.7424
 -32793020.42248 -25530121.95547  20664735.4384                   20664731.0744
  -4789386.88346  -3709056.45144  23437082.2274                   23437081.7544
 11  8 25  0 20 30.0000000  0  9G12G17G10G09G05G04G25G02G30
 -24797355.46148 -19300681.34146  21054575.8364                   21054573.8674
 -30334474.62946 -23614354.86244  23569821.2114                   23569821.3714
 -28909332.85248 -22506448.24446  20956955.3594                   20956953.9654
 -11223442.75847  -8723043.28243  24250371.1254                   24250374.5314
 -22197091.26248 -17273606.49946  21277896.4534                   21277895.6024
 -29230384.44547 -22752470.45145  22299486.7344                   22299485.5594
  -6992065.76647  -5425752.67245  23420867.3984                   23420869.0514
 -32815088.41848 -25547317.79346  20660536.1804                   20660531.9454
  -4912845.62546  -3805257.95144  23413589.1414                   23413588.4144
 11  8 25  0 21  0.0000000  0  9G12G17G10G09G05G04G25G02G30
 -24871795.77048 -19358686.74946  21040410.7584                   21040408.3524
 -30308406.85546 -23594042.35844  23574781.9614                   23574781.9574
 -28914310.09048 -22510326.58946  20956008.1024                   20956006.4414
 -11174607.40647  -8684989.90943  24259663.7274                   24259667.6454
 -22303815.23048 -17356767.95446  21257587.6334                   21257586.7074
 -29182402.98847 -22715082.32945  22308617.2034                   22308616.4104
  -7115109.84447  -5521631.08644  23397452.2894                   23397454.0474
 -32836920.82448 -25564330.05647  20656381.4924                   20656377.4694
  -5035971.09446  -3901199.82844  23390158.4844                   23390158.1484
 11  8 25  0 21 30.0000000  0  9G12G17G10G09G05G04G25G02G30
 -24945722.67248 -19416292.09946  21026342.8984                   21026340.4304
 -30282156.89146 -23573587.88444  23579777.2734                   23579777.7584
 -28918671.51648 -22513725.08746  20955178.1094                   20955176.6954
 -11125737.41447  -8646909.63443  24268964.0234                   24268967.6604
 -22410116.43448 -17439599.99346  21237359.1024                   21237358.0704
 -29134360.24247 -22677646.45045  22317759.2664                   22317758.5124
  -7237872.16047  -5617289.95845  23374091.3054                   23374092.9804
 -32858515.40248 -25581156.99646  20652272.1334                   20652268.0084
  -5158757.41846  -3996877.39044  23366793.0554                   23366792.5084
 11  8 25  0 22  0.0000000  0  9G12G17G10G09G05G04G25G02G30
 -25019142.82048 -19473502.57646  21012371.4534                   21012368.8874
 -30255732.75046 -23552997.72244  23584805.0864                   23584806.0394
 -28922426.55547 -22516651.07846  20954463.8984                   20954462.4064
 -11076844.63347  -8608811.50943  24278267.7584                   24278272.1054
 -22516000.73448 -17522107.16646  21217210.2974                   21217208.9384
 -29086266.59847 -22640170.90845  22326911.0704                   22326910.3554
  -7360358.55947  -5712733.84045  23350783.1724                   23350784.1214
 -32879881.75048 -25597806.09946  20648206.3834                   20648202.3164
  -5281210.26646  -4092295.06044  23343491.4534                   23343490.5434
 11  8 25  0 22 30.0000000  0  9G12G17G10G09G05G04G25G02G30
 -25092051.26648 -19530314.33046  20998497.4774                   20998495.0664
 -30229130.48846 -23532268.75544  23589867.1564                   23589868.7344
 -28925572.63347 -22519102.54446  20953864.8204                   20953863.8484
 -11027928.43446  -8570695.26044  24287576.8594                   24287580.7274
 -22621462.32848 -17604284.96146  21197141.3444                   21197140.3244
 -29038119.62147 -22602653.81945  22336073.4534                   22336072.5234
  -7482562.74247  -5807957.80245  23327528.6484                   23327529.9924
 -32901017.88748 -25614275.81447  20644184.1564                   20644180.3444
  -5403323.10546  -4187447.84444  23320253.6644                   23320252.8674
 11  8 25  0 23  0.0000000  0  9G12G17G10G09G05G04G25G02G30
 -25164443.83648 -19586724.10246  20984721.4454                   20984719.0124
 -30202347.79346 -23511399.17944  23594964.2424                   23594964.8674
 -28928108.92248 -22521078.83946  20953382.2974                   20953380.6024
 -10978990.21946  -8532561.79543  24296888.9614                   24296893.8794
 -22726496.80548 -17686129.94246  21177154.0234                   21177153.0474
 -28989919.29347 -22565095.13845  22345245.8524                   22345245.3444
  -7604480.31647  -5902958.44445  23304328.1484                   23304329.5824
 -32921923.12148 -25630565.60346  20640206.2504                   20640201.8484
  -5525091.53946  -4282332.24544  23297081.7274                   23297080.8324
 11  8 25  0 23 30.0000000  0  9G12G17G10G09G05G04G25G02G30
 -25236321.74648 -19642732.84146  20971043.5944                   20971041.3484
 -30175386.87146 -23490390.72944  23600094.6254                   23600095.9844
 -28930039.21147 -22522582.92946  20953014.8914                   20953013.4654
 -10930035.76246  -8494415.70643  24306205.4614                   24306210.1024
 -22831104.25448 -17767642.16146  21157247.6564                   21157246.6294
 -28941669.64547 -22527498.02845  22354427.0784                   22354426.6294
  -7726111.00847  -5997735.54145  23281182.5864                   23281183.8094
 -32942600.89148 -25646678.14146  20636271.0634                   20636266.9534
  -5646515.24646  -4376948.05944  23273975.1804                   23273974.1484
 11  8 25  0 24  0.0000000  0  9G12G17G10G09G05G04G25G02G30
 -25307678.25048 -19698335.29246  20957464.9454                   20957462.3244
 -30148241.99646 -23469238.91044  23605260.4534                   23605261.6844
 -28931359.57447 -22523611.75546  20952763.6254                   20952762.1054
 -10881062.98845  -8456255.35243  24315523.4534                   24315528.9734
 -22935277.12548 -17848815.76546  21137424.2664                   21137423.2304
 -28893366.83247 -22489859.50245  22363618.7664                   22363618.3914
  -7847446.93046  -6092282.91345  23258093.2664                   23258094.0864
 -32963047.76648 -25662610.77647  20632380.1564                   20632376.1524
  -5767586.18046  -4471288.92644  23250936.4694                   23250935.7974
 11  8 25  0 24 30.0000000  0  9G12G17G10G09G05G04G25G02G30
 -25378517.78548 -19753534.91646  20943984.3364                   20943982.1484
 -30120919.61746 -23447948.82544  23610459.8054                   23610460.8404
 -28932077.77747 -22524171.36446  20952627.0704                   20952625.4614
 -10832081.61345  -8418088.30343  24324845.2664                   24324850.0554
 -23039019.43448 -17929653.86346  21117682.7974                   21117681.6564
 -28845019.28947 -22452186.10245  22372819.1644                   22372818.9384
  -7968492.13346  -6186603.76645  23235058.9774                   23235059.8404
 -32983271.18048 -25678369.27446  20628532.0394                   20628527.8874
  -5888308.32446  -4565358.05644  23227963.4844                   23227962.8164
 11  8 25  0 25  0.0000000  0  9G12G17G10G09G05G04G25G02G30
 -25448835.77048 -19808328.13646  20930603.3674                   20930600.8244
 -30093415.96546 -23426517.48944  23615693.2584                   23615694.3204
 -28932191.66847 -22524260.10246  20952605.5004                   20952603.8444
 -10783091.78145  -8379914.68643  24334168.0554                   24334172.7774
 -23142325.75848 -18010152.23646  21098023.8984                   21098023.2154
 -28796625.21547 -22414476.46545  22382028.3444                   22382028.0864
  -8089240.60547  -6280693.43045  23212080.8984                   23212081.9964
 -33003269.23048 -25693952.17346  20624726.3754                   20624722.4184
  -6008675.55546  -4659150.60844  23205058.7424                   23205057.1564
 11  8 25  0 25 30.0000000  0  9G12G17G10G09G05G04G25G02G30
 -25518632.89148 -19862715.49246  20917321.3204                   20917318.8054
 -30065733.09446 -23404946.48544  23620961.3054                   23620962.2894
 -28931704.68448 -22523880.60646  20952698.1024                   20952696.2504
 -10734098.41846  -8341738.29143  24343491.1484                   24343496.2734
 -23245196.01248 -18090310.81646  21078448.4844                   21078447.3714
 -28748188.25847 -22376733.42845  22391245.6954                   22391245.3524
  -8209691.93447  -6374551.52245  23189160.1174                   23189161.4454
 -33023044.98048 -25709361.83946  20620963.0784                   20620959.3754
  -6128687.39146  -4752666.23344  23182221.1414                   23182220.5514
 11  8 25  0 26  0.0000000  0  9G12G17G10G09G05G04G25G02G30
 -25587902.57848 -19916691.85546  20904139.8984                   20904137.5824
 -30037866.10946 -23383231.98344  23626264.4614                   23626265.6334
 -28930613.46147 -22523030.27646  20952905.7424                   20952904.4344
 -10685100.31646  -8303558.17844  24352816.1254                   24352820.4964
 -23347623.50048 -18170124.38346  21058957.2034                   21058955.9804
 -28699705.39147 -22338954.60045  22400471.2194                   22400471.4224
  -8329839.04347  -6468172.57445  23166296.7734                   23166297.8714
 -33042595.58648 -25724596.08646  20617242.5084                   20617239.0084
  -6248336.77746  -4845899.41844  23159452.2114                   23159451.3714
 11  8 25  0 26 30.0000000  0  9G12G17G10G09G05G04G25G02G30
 -25656644.14548 -19970256.69746  20891058.6564                   20891056.3714
 -30009815.32446 -23361374.28844  23631602.2584                   23631602.9144
 -28928920.26647 -22521710.89946  20953227.6484                   20953226.5044
 -10636101.77746  -8265377.76244  24362139.8984                   24362145.2074
 -23449606.39548 -18249591.50446  21039550.3914                   21039549.0784
 -28651178.97347 -22301141.81745  22409705.2344                   22409705.6604
  -8449680.08247  -6561555.13345  23143491.7034                   23143492.6484
 -33061922.93048 -25739656.34546  20613565.0234                   20613561.0204
  -6367621.59046  -4938848.54444  23136753.3054                   23136752.3634
 11  8 25  0 27  0.0000000  0  9G12G17G10G09G05G04G25G02G30
 -25724859.28148 -20023411.32746  20878077.7734                   20878075.2734
 -29981583.30546 -23339375.33844  23636974.5004                   23636975.4534
 -28926628.94948 -22519925.42346  20953663.8134                   20953662.3914
 -10587108.59446  -8227201.52043  24371464.1094                   24371467.7464
 -23551145.15248 -18328712.55746  21020228.0634                   21020227.0164
 -28602613.29747 -22263298.46445  22418947.5944                   22418947.5084
  -8569215.16847  -6654699.27245  23120744.9774                   23120745.3984
 -33081031.14848 -25754545.86146  20609928.7034                   20609924.5784
  -6486542.00046  -5031513.73444  23114123.2034                   23114122.4224
 11  8 25  0 27 30.0000000  0  9G12G17G10G09G05G04G25G02G30
 -25792546.15248 -20076154.33046  20865197.3054                   20865195.1094
 -29953169.80146 -23317234.99844  23642381.7584                   23642382.3404
 -28923741.12548 -22517675.16346  20954213.7584                   20954212.1764
 -10538123.98046  -8189031.94344  24380785.4774                   24380789.9024
 -23652237.80148 -18407485.98546  21000990.5004                   21000989.6844
 -28554009.85247 -22225425.68345  22428196.0474                   22428195.7974
  -8688441.78147  -6747603.08745  23098056.6484                   23098058.2194
 -33099921.46148 -25769265.58047  20606334.0314                   20606330.4104
  -6605095.30146  -5123892.86044  23091562.6724                   23091562.5864
 11  8 25  0 28  0.0000000  0  9G12G17G10G09G05G04G25G02G30
 -25859702.45348 -20128483.90746  20852418.0634                   20852415.8984
 -29924573.54746 -23294952.22944  23647823.7344                   23647824.1764
 -28920257.31248 -22514960.47146  20954876.4384                   20954874.9844
 -10489150.02046  -8150870.66744  24390105.0554                   24390109.6174
 -23752881.34848 -18485909.46546  20981839.1564                   20981837.9384
 -28505369.22747 -22187523.90345  22437452.2974                   22437452.3134
  -8807356.42247  -6840263.81045  23075427.7734                   23075428.7894
 -33118594.12148 -25783815.70446  20602780.7114                   20602776.7114
  -6723278.02046  -5215983.22344  23069074.0234                   23069073.1374
 11  8 25  0 28 30.0000000  0  9G12G17G10G09G05G04G25G02G30
 -25926326.84848 -20180399.00646  20839739.6804                   20839737.3794
 -29895794.77746 -23272527.29244  23653300.1174                   23653300.8164
 -28916179.31648 -22511782.79146  20955652.0234                   20955651.0944
 -10440190.21946  -8112720.39944  24399421.7194                   24399426.9304
 -23853073.32448 -18563981.06746  20962773.2034                   20962771.9884
 -28456693.37547 -22149594.69245  22446715.1954                   22446715.0474
  -8925956.69547  -6932679.54645  23052858.9534                   23052859.9494
 -33137050.87148 -25798197.57446  20599268.6564                   20599264.6214
  -6841087.70747  -5307782.90944  23046655.4694                   23046654.9494
 11  8 25  0 29  0.0000000  0  9G12G17G10G09G05G04G25G02G30
 -25992413.93048 -20231895.42446  20827163.8444                   20827161.5354
 -29866829.18746 -23249956.72544  23658811.8984                   23658812.6214
 -28911504.89848 -22508140.39046  20956542.0164                   20956540.3094
 -10391243.68446  -8074580.44144  24408735.8984                   24408741.2344
 -23952807.98048 -18641696.32546  20943794.1724                   20943792.9924
 -28407979.67247 -22111635.99945  22455985.2584                   22455985.1414
  -9044236.18447  -7024845.35545  23030351.2274                   23030351.9224
 -33155288.94548 -25812409.05046  20595798.0164                   20595793.7384
  -6958517.75047  -5399286.74844  23024308.4694                   23024308.1414
 11  8 25  0 29 30.0000000  0  9G12G17G10G09G05G04G25G02G30
 -26057962.66848 -20282972.34946  20814690.5394                   20814687.8404
 -29837676.85246 -23227240.67944  23664359.5864                   23664360.1134
 -28906235.28948 -22504034.18246  20957544.4844                   20957543.1804
 -10342314.25446  -8036453.89844  24418047.0394                   24418052.2304
 -24052083.29748 -18719053.65746  20924902.7274                   20924901.3404
 -28359229.89147 -22073649.16945  22465262.0234                   22465261.4414
  -9162192.56647  -7116759.39245  23007904.2114                   23007905.3094
 -33173309.77048 -25826451.24546  20592368.8444                   20592364.6484
  -7075565.89847  -5490493.04644  23002035.7584                   23002035.1914
 11  8 25  0 30  0.0000000  0  9G12G17G10G09G05G04G25G02G30
 -26122973.56648 -20333630.16846  20802318.8284                   20802316.4304
 -29808339.21547 -23204380.21344  23669942.1254                   23669943.4384
 -28900374.17248 -22499467.07346  20958660.1094                   20958658.4454
 -10293406.61746  -7998344.29943  24427354.2424                   24427359.7114
 -24150898.96148 -18796052.80646  20906098.5634                   20906097.1174
 -28310447.28147 -22035636.77245  22474545.3754                   22474544.7504
  -9279825.19947  -7208421.13845  22985519.8834                   22985520.6804
 -33191116.82048 -25840326.86446  20588980.3284                   20588975.9534
  -7192231.40247  -5581401.18944  22979834.3524                   22979833.4924
 11  8 25  0 30 30.0000000  0  9G12G17G10G09G05G04G25G02G30
 -24612025.00448 -19156267.65046  21089842.9224                   21089840.7154
 -28203399.09446 -21953777.54644  23975352.0234                   23975352.7194
 -27318505.16448 -21266841.86846  21259679.6414                   21259677.8404
  -8669107.64546  -6732657.03643  24736447.6334                   24736453.0554
 -22673831.60548 -17645091.17547  21187175.2974                   21187174.1604
 -26686217.35947 -20770003.09245  22783625.3754                   22783625.5784
  -7821709.68447  -6072227.22645  23262990.1094                   23262991.0234
 -31633292.74648 -24626437.97146  20885423.7664                   20885420.0664
  -5733089.84447  -4444407.66944  23257499.8914                   23257499.1174
 11  8 25  0 31  0.0000000  0  9G12G17G10G09G05G04G25G02G30
 -24675961.38348 -19206088.19347  21077676.2584                   21077673.9844
 -28173696.14846 -21930632.46244  23981004.9064                   23981004.9454
 -27311471.10948 -21261360.77546  21261017.9924                   21261016.7974
  -8620258.95346  -6694593.35543  24745743.5314                   24745749.0004
 -22771727.75048 -17721373.81746  21168545.7584                   21168544.8874
 -26637379.61747 -20731947.72945  22792919.6724                   22792918.9304
  -7938692.84047  -6163382.88645  23240728.8984                   23240730.1564
 -31650681.61348 -24639987.73546  20882115.1954                   20882111.0394
  -5848988.01247  -4534717.88144  23235445.3834                   23235444.1524
 11  8 25  0 31 30.0000000  0  9G12G17G10G09G05G04G25G02G30
 -24739354.37148 -19255485.32846  21065613.2034                   21065610.5554
 -28143805.43746 -21907341.02644  23986692.8754                   23986692.6374
 -27303848.46948 -21255421.05246  21262468.9924                   21262467.0984
  -8571439.77746  -6656552.72943  24755034.0554                   24755039.1954
 -22869156.05148 -17797291.92146  21150005.9694                   21150004.8364
 -26588511.62147 -20693868.80645  22802218.7814                   22802217.9614
  -8055342.62147  -6254278.81145  23218531.1174                   23218532.2664
 -31667858.37148 -24653372.21446  20878846.1334                   20878842.4224
  -5964493.76247  -4624722.30744  23213464.9534                   23213464.5164
 11  8 25  0 32  0.0000000  0  9G12G17G10G09G05G04G25G02G30
 -24802201.37148 -19304457.00546  21053653.6254                   21053650.8554
 -28113725.94146 -21883902.50244  23992416.9534                   23992417.0664
 -27295637.95348 -21249023.24946  21264031.1334                   21264029.7894
  -8522652.16446  -6618536.69142  24764318.1174                   24764323.0634
 -22966113.92648 -17872843.44346  21131555.5634                   21131554.4454
 -26539614.25047 -20655766.97545  22811523.7894                   22811522.6214
  -8171655.82847  -6344912.46145  23196397.5394                   23196398.3954
 -31684823.77048 -24666592.00046  20875618.1954                   20875614.1764
  -6079603.80947  -4714418.41044  23191560.5164                   23191559.5744
 11  8 25  0 32 30.0000000  0  9G12G17G10G09G05G04G25G02G30
 -24864505.23448 -19353005.47046  21041797.4774                   21041795.1484
 -28083461.75446 -21860320.06544  23998175.4844                   23998175.5594
 -27286845.25448 -21242171.80346  21265704.3284                   21265702.4184
  -8473903.31646  -6580550.93042  24773594.7274                   24773600.1024
 -23062602.91848 -17948029.61646  21113193.7894                   21113192.5944
 -26490692.75047 -20617646.34744  22820832.8054                   22820832.3204
  -8287633.77047  -6435284.87045  23174327.6644                   23174328.9104
 -31701582.72348 -24679650.92146  20872429.2194                   20872424.8984
  -6194319.58246  -4803807.23744  23169730.8984                   23169730.0474
 11  8 25  0 33  0.0000000  0  9G12G17G10G09G05G04G25G02G30
 -24926268.10548 -19401132.37446  21030044.5004                   21030042.0084
 -28053016.32046 -21836596.43044  24003969.0474                   24003969.7234
 -27277475.59448 -21234870.77546  21267487.3054                   21267485.5554
  -8425200.23046  -6542600.71942  24782863.4384                   24782868.3134
 -23158624.95748 -18022851.92546  21094921.8834                   21094920.3204
 -26441752.24647 -20579510.93644  22830146.0554                   22830145.8484
  -8403277.80147  -6525397.08945  23152321.4224                   23152322.4774
 -31718140.54748 -24692553.11446  20869277.9064                   20869274.2384
  -6308642.17647  -4892889.75344  23147975.7894                   23147974.5984
 11  8 25  0 33 30.0000000  0  9G12G17G10G09G05G04G25G02G30
 -24987482.51647 -19448831.92846  21018395.7894                   21018393.3714
 -28022382.72746 -21812726.12243  24009798.2344                   24009799.4304
 -27267524.23448 -21227116.47746  21269380.9614                   21269379.8404
  -8376539.33246  -6504683.47742  24792122.5474                   24792128.5164
 -23254171.35948 -18097303.61146  21076739.7894                   21076738.3754
 -26392787.77747 -20541356.85744  22839463.7894                   22839463.3094
  -8518578.73847  -6615241.94545  23130380.7734                   23130381.0594
 -31734491.87548 -24705294.41346  20866166.6174                   20866162.6764
  -6422562.65247  -4981658.90744  23126297.4454                   23126296.7624
 11  8 25  0 34  0.0000000  0  9G12G17G10G09G05G04G25G02G30
 -25048144.38748 -19496100.91546  21006852.1254                   21006849.9734
 -27991558.51646 -21788707.30044  24015663.9064                   24015664.8554
 -27256990.28548 -21218908.20446  21271385.3984                   21271384.2304
  -8327921.39146  -6466799.59243  24801375.1804                   24801380.2504
 -23349237.90648 -18171381.38046  21058649.3364                   21058648.0004
 -26343798.16047 -20503183.16444  22848785.6644                   22848785.6294
  -8633531.67247  -6704815.62645  23108505.2734                   23108506.1214
 -31750635.49248 -24717873.85846  20863094.4774                   20863090.5124
  -6536075.93746  -5070110.78344  23104696.7584                   23104695.5354
 11  8 25  0 34 30.0000000  0  9G12G17G10G09G05G04G25G02G30
 -25108258.74648 -19542943.28846  20995412.9774                   20995410.3484
 -27960548.76246 -21764543.89544  24021565.3284                   24021566.4574
 -27245881.21948 -21210251.79846  21273499.5864                   21273497.9734
  -8279354.94946  -6428956.06943  24810618.0474                   24810623.3754
 -23443827.55548 -18245087.54046  21040648.9144                   21040647.7504
 -26294790.25447 -20464995.21944  22858111.7894                   22858111.2344
  -8748139.47747  -6794120.36445  23086696.3984                   23086696.9454
 -31766578.10948 -24730296.65746  20860061.0394                   20860056.8204
  -6649184.92247  -5158247.63644  23083172.6094                   23083171.8834
 11  8 25  0 35  0.0000000  0  9G12G17G10G09G05G04G25G02G30
 -25167824.82048 -19589358.40646  20984077.8834                   20984075.3594
 -27929354.42646 -21740236.66944  24027501.2114                   24027502.3324
 -27234199.73048 -21201149.34346  21275722.4454                   21275720.8874
  -8230844.07046  -6391155.75043  24819848.6484                   24819855.3444
 -23537939.54748 -18318421.50746  21022740.1884                   21022739.0594
 -26245766.40647 -20426794.84444  22867441.2664                   22867440.6134
  -8862400.60247  -6883154.95245  23064953.2344                   23064954.4614
 -31782321.93748 -24742564.57846  20857064.6254                   20857060.7934
  -6761887.99647  -5246068.18844  23061726.1484                   23061725.4264
 11  8 25  0 35 30.0000000  0  9G12G17G10G09G05G04G25G02G30
 -25226835.64848 -19635340.87546  20972848.3204                   20972846.1134
 -27897969.60946 -21715780.97144  24033473.3754                   24033474.6644
 -27221941.50848 -21191597.47146  21278055.1334                   21278053.5474
  -8182385.77346  -6353396.37843  24829070.7814                   24829076.9924
 -23631566.18447 -18391377.26946  21004923.8134                   21004922.3484
 -26196722.04347 -20388578.51144  22876774.0634                   22876773.7734
  -8976306.65247  -6971912.86045  23043277.1884                   23043278.3484
 -31797862.39848 -24754674.02046  20854107.9064                   20854103.5664
  -6874176.74246  -5333565.89944  23040358.2114                   23040357.5004
 11  8 25  0 36  0.0000000  0  9G12G17G10G09G05G04G25G02G30
 -25285296.06248 -19680894.44946  20961723.5314                   20961721.4344
 -27866400.00846 -21691181.32744  24039481.4304                   24039482.2504
 -27209114.32848 -21181602.27246  21280495.7974                   21280494.4844
  -8133989.06246  -6315685.03644  24838280.6024                   24838286.5634
 -23724711.40248 -18463957.90346  20987198.6094                   20987197.5394
 -26147664.69547 -20350352.02744  22886109.1334                   22886108.9184
  -9089861.17647  -7060396.85045  23021668.8754                   23021669.7304
 -31813206.78548 -24766630.67646  20851187.7894                   20851183.9144
  -6986054.72747  -5420743.53444  23019068.7114                   23019067.4734
 11  8 25  0 36 30.0000000  0  9G12G17G10G09G05G04G25G02G30
 -25343198.66048 -19726013.35246  20950705.2734                   20950702.6844
 -27834639.14146 -21666432.63644  24045524.6954                   24045526.2344
 -27195714.16447 -21171160.57546  21283046.0004                   21283044.1684
  -8085650.66446  -6278019.13044  24847479.4144                   24847485.6414
 -23817367.07848 -18536157.07646  20969566.8594                   20969565.4924
 -26098589.43047 -20312111.61344  22895447.7974                   22895447.7584
  -9203055.56647  -7148600.20445  23000128.0234                   23000129.7854
 -31828350.25448 -24778430.76746  20848305.7344                   20848301.8164
  -7097513.23847  -5507594.31744  22997858.6414                   22997857.8834
 11  8 25  0 37  0.0000000  0  9G12G17G10G09G05G04G25G02G30
 -25400543.48848 -19770697.63046  20939793.0864                   20939790.6804
 -27802688.23046 -21641535.86444  24051605.4694                   24051606.0164
 -27181743.50847 -21160274.35346  21285704.2814                   21285703.0744
  -8037374.84446  -6240401.94444  24856666.1484                   24856672.6914
 -23909532.55148 -18607974.28246  20952028.6564                   20952026.9264
 -26049498.65647 -20273859.12444  22904789.6564                   22904789.5664
  -9315888.21947  -7236521.68145  22978656.8984                   22978658.2384
 -31843294.82448 -24790075.87746  20845462.0634                   20845458.0554
  -7208550.77047  -5594117.04844  22976728.8754                   22976727.9104
 11  8 25  0 37 30.0000000  0  9G12G17G10G09G05G04G25G02G30
 -25457333.11748 -19814949.28646  20928986.2274                   20928983.8094
 -27770551.03146 -21616493.95244  24057720.8054                   24057721.9224
 -27167208.31647 -21148948.21846  21288470.3364                   21288469.0004
  -7989168.47747  -6202838.92144  24865839.6884                   24865846.2934
 -24001209.44148 -18679410.76346  20934582.9384                   20934581.2664
 -26000397.28547 -20235598.34745  22914133.1414                   22914133.1724
  -9428360.49647  -7324162.33845  22957254.4304                   22957255.3524
 -31858045.42248 -24801569.84346  20842655.1564                   20842650.8914
  -7319168.63747  -5680312.74344  22955678.6254                   22955678.2154
 11  8 25  0 38  0.0000000  0  9G12G17G10G09G05G04G25G02G30
 -25513565.73048 -19858766.89946  20918285.4844                   20918283.1454
 -27738225.76246 -21591305.45444  24063871.5864                   24063872.8524
 -27152109.11748 -21137182.61546  21291343.5474                   21291342.0044
  -7941033.61347  -6165331.58244  24874999.8284                   24875006.7074
 -24092394.77348 -18750464.22346  20917230.7734                   20917229.2854
 -25951285.73047 -20197329.65144  22923478.2034                   22923478.5904
  -9540468.69147  -7411519.31645  22935920.9144                   22935922.0314
 -31872602.99648 -24812913.39646  20839885.0864                   20839881.0354
  -7429363.19147  -5766178.59144  22934709.8754                   22934708.3714
 11  8 25  0 38 30.0000000  0  9G12G17G10G09G05G04G25G02G30
 -25569237.94948 -19902147.83846  20907691.3284                   20907689.5594
 -27705710.90246 -21565969.26844  24070059.9614                   24070060.3874
 -27136445.90648 -21124977.50046  21294324.0474                   21294322.6334
  -7892970.94147  -6127880.47344  24884146.3284                   24884153.3404
 -24183084.99648 -18821131.88147  20899973.0944                   20899971.5164
 -25902163.05147 -20159052.28044  22932826.5704                   22932826.3444
  -9652208.44147  -7498589.18045  22914657.4614                   22914658.0124
 -31886965.73448 -24824105.12246  20837151.8054                   20837147.3634
  -7539129.98447  -5851711.13844  22913821.7114                   22913820.9884
 11  8 25  0 39  0.0000000  0  9G12G17G10G09G05G04G25G02G30
 -25624348.18748 -19945090.86746  20897204.2974                   20897201.7774
 -27673005.28547 -21540484.38744  24076283.3054                   24076284.1954
 -27120220.10247 -21112334.00646  21297411.6644                   21297410.0474
  -7844982.55146  -6090487.26644  24893278.4614                   24893285.5314
 -24273277.18748 -18891411.45247  20882810.1174                   20882808.7664
 -25853029.87547 -20120766.71044  22942176.3284                   22942176.1334
  -9763576.47747  -7585369.40145  22893464.7584                   22893465.4414
 -31901134.52748 -24835145.73346  20834455.5944                   20834451.4614
  -7648465.75847  -5936907.76645  22893015.9614                   22893015.0864
 11  8 25  0 39 30.0000000  0  9G12G17G10G09G05G04G25G02G30
 -25678897.68748 -19987596.95846  20886823.3914                   20886821.4694
 -27640110.93047 -21514852.44144  24082543.2974                   24082543.7974
 -27103435.85547 -21099255.35046  21300605.8134                   21300604.2584
  -7797073.77746  -6053156.10144  24902395.4144                   24902402.0514
 -24362972.03148 -18961303.50047  20865741.6644                   20865740.3014
 -25803889.76647 -20082475.74645  22951527.6644                   22951527.2274
  -9874572.62547  -7671859.84645  22872342.4844                   22872343.5664
 -31915112.87948 -24846037.94146  20831795.3364                   20831791.1604
  -7757370.40647  -6021768.48844  22872291.9924                   22872290.6994
 11  8 25  0 40  0.0000000  0  8G12G17G10G05G04G25G02G30
 -25732882.20348 -20029662.80746  20876550.7344                   20876548.4654
 -27607024.62946 -21489070.96944  24088839.1564                   24088839.9534
 -27086091.77047 -21085740.46846  21303906.1564                   21303904.2664
 -24452164.33648 -19030803.94247  20848768.9694                   20848767.4964
 -25754741.13747 -20044178.14844  22960880.5164                   22960880.2114
  -9985191.24647  -7758056.10945  22851292.7424                   22851293.5514
 -31928898.70348 -24856780.12846  20829172.1644                   20829168.3794
  -7865838.29347  -6106288.85644  22851651.0084                   22851649.9844
 11  8 25  0 40 30.0000000  0  8G12G17G10G05G04G25G02G30
 -25786304.28148 -20071290.37546  20866384.7734                   20866382.2544
 -27573749.65646 -21463142.43344  24095171.4924                   24095172.1334
 -27068193.48047 -21071793.73346  21307312.0704                   21307310.8164
 -24540855.96948 -19099914.25047  20831891.2114                   20831889.7304
 -25705588.33647 -20005877.28944  22970233.6094                   22970233.4884
 -10095433.46547  -7843959.07445  22830314.0554                   22830315.5634
 -31942496.96948 -24867376.17146  20826584.5004                   20826580.5434
  -7973870.57447  -6190469.80744  22831093.5394                   22831091.8594
 11  8 25  0 41  0.0000000  0  8G12G17G10G05G04G25G02G30
 -25839145.85948 -20112465.62246  20856329.3984                   20856327.2114
 -27540269.10546 -21437053.75444  24101542.8054                   24101543.0044
 -27049725.51247 -21057403.11146  21310826.5234                   21310825.3984
 -24629027.67648 -19168619.42547  20815112.7664                   20815111.3054
 -25656415.21147 -19967560.60244  22979591.3674                   22979590.7274
 -10205279.34447  -7929553.19045  22809410.7344                   22809412.2664
 -31955891.61348 -24877813.54446  20824035.3984                   20824031.6564
  -8081447.35947  -6274295.81845  22810621.7504                   22810621.3134
 11  8 25  0 41 30.0000000  0  8G12G17G10G05G04G25G02G30
 -25891410.42648 -20153191.24647  20846384.0704                   20846381.4144
 -27506587.14146 -21410808.08844  24107951.9774                   24107952.5124
 -27030694.42648 -21042573.68046  21314447.8284                   21314446.6564
 -24716682.09048 -19236921.51447  20798432.5314                   20798431.1054
 -25607227.69947 -19929232.72144  22988951.3364                   22988951.0634
 -10314731.08647  -8014840.22145  22788582.9614                   22788584.0274
 -31969088.29348 -24888096.66946  20821524.3444                   20821520.6254
  -8188570.77047  -6357768.51245  22790237.0394                   22790235.8284
 11  8 25  0 42  0.0000000  0  8G12G17G10G05G04G25G02G30
 -25943104.03548 -20193471.95846  20836547.2664                   20836544.3444
 -27472710.90646 -21384411.08244  24114398.3914                   24114399.1884
 -27011109.41448 -21027312.63246  21318174.9224                   21318173.3954
 -24803825.07048 -19304825.07946  20781849.9064                   20781848.4454
 -25558033.93047 -19890899.92444  22998312.9534                   22998312.1724
 -10423793.26647  -8099823.68345  22767829.1484                   22767830.1254
 -31982095.16448 -24898231.87746  20819049.1254                   20819045.3914
  -8295245.57447  -6440891.68344  22769937.5704                   22769936.0784
 11  8 25  0 42 30.0000000  0  8G12G17G10G05G04G25G02G30
 -25994224.32848 -20233305.94546  20826818.8674                   20826816.8634
 -27438638.37146 -21357861.04144  24120881.7734                   24120882.5904
 -26990971.09447 -21011620.42846  21322007.0634                   21322005.5354
 -24890453.00848 -19372327.32847  20765364.9694                   20765363.6804
 -25508833.71146 -19852562.12644  23007674.8284                   23007674.9574
 -10532461.66447  -8184500.30645  22747150.3364                   22747150.9574
 -31994911.57848 -24908218.68546  20816610.3674                   20816606.1994
  -8401467.57447  -6523662.00345  22749724.3834                   22749722.7234
 11  8 25  0 43  0.0000000  0  8G12G17G10G05G04G25G02G30
 -26044776.57848 -20272697.28346  20817198.9304                   20817197.0354
 -27404375.80146 -21331163.01044  24127401.8134                   24127403.2504
 -26970287.60248 -20995503.41646  21325943.1954                   21325941.7344
 -24976570.42248 -19439431.76547  20748977.5004                   20748975.9104
 -25459634.25447 -19814224.92644  23017037.4384                   23017037.0864
 -10640740.32047  -8268873.24745  22726545.4144                   22726546.6174
 -32007545.30548 -24918063.14546  20814205.9844                   20814202.2034
  -8507240.68047  -6606082.53244  22729595.8284                   22729594.6524
 11  8 25  0 43 30.0000000  0  8G12G17G10G05G04G25G02G30
 -26094757.37148 -20311643.34746  20807688.1564                   20807685.6684
 -27369920.55146 -21304314.78944  24133958.9304                   24133959.6914
 -26949058.07448 -20978960.91846  21329983.2664                   21329981.6954
 -25062172.75848 -19506134.82547  20732687.8594                   20732686.3054
 -25410434.05547 -19775887.11644  23026400.0554                   23026400.1024
 -10748623.92647  -8352938.35945  22706015.8054                   22706016.7234
 -32019994.70348 -24927763.96846  20811837.1644                   20811833.3164
  -8612559.84447  -6688149.37045  22709554.5394                   22709553.3984
 11  8 25  0 44  0.0000000  0  8G12G17G10G05G04G25G02G30
 -26144172.39548 -20350148.54446  20798285.2194                   20798282.5474
 -27335279.05146 -21277321.43644  24140550.7274                   24140551.7234
 -26927291.13348 -20961999.67246  21334125.0164                   21334123.4534
 -25147264.93448 -19572440.38447  20716495.3594                   20716493.7774
 -25361240.61347 -19737554.59844  23035760.7734                   23035760.9224
 -10856116.55947  -8436698.80245  22685560.9384                   22685561.4494
 -32032267.33248 -24937327.05346  20809501.6484                   20809497.4024
  -8717429.02047  -6769865.53244  22689598.3674                   22689597.3484
 11  8 25  0 44 30.0000000  0  8G12G17G10G05G04G25G02G30
 -26193019.62948 -20388211.31346  20788989.5004                   20788987.3524
 -27300449.87146 -21250181.85943  24147178.7194                   24147179.9264
 -26904987.79348 -20944620.44546  21338369.5554                   21338367.8164
 -25231844.11348 -19638346.19446  20700400.4924                   20700398.8244
 -25312054.09847 -19699227.45144  23045121.0234                   23045120.5904
 -10963214.60947  -8520151.80645  22665180.9224                   22665181.4224
 -32044363.18748 -24946752.39146  20807199.7974                   20807195.9654
  -8821844.80947  -6851228.42844  22669728.4694                   22669727.7034
 11  8 25  0 45  0.0000000  0  8G12G17G10G05G04G25G02G30
 -26241295.01248 -20425828.47946  20779802.9454                   20779800.4804
 -27265429.87546 -21222893.59743  24153843.0634                   24153843.8364
 -26882147.12548 -20926822.53946  21342715.5944                   21342713.7894
 -25315905.40248 -19703848.46346  20684404.0704                   20684401.9924
 -25262872.15647 -19660903.87444  23054480.1724                   23054479.7464
 -11069912.46947  -8603292.95445  22644876.7814                   22644877.4104
 -32056280.17248 -24956038.35646  20804932.3364                   20804928.2074
  -8925801.58647  -6932233.64144  22649946.1254                   22649944.6294
 11  8 25  0 45 30.0000000  0  8G12G17G10G05G04G25G02G30
 -26288999.03948 -20463000.43646  20770725.3674                   20770722.8094
 -27230220.19546 -21195457.45143  24160542.8204                   24160543.9614
 -26858772.34048 -20908608.44346  21347163.8134                   21347162.1414
 -25399448.54748 -19768946.97247  20668506.1564                   20668504.5354
 -25213697.23847 -19622585.77644  23063837.7974                   23063837.2584
 -11176208.97347  -8686121.38445  22624649.1414                   22624649.8284
 -32068020.71148 -24965186.81646  20802698.0704                   20802694.0164
  -9029298.25047  -7012880.34045  22630251.5634                   22630250.3874
 11  8 25  0 46  0.0000000  0  8G12G17G10G05G04G25G02G30
 -26336132.37148 -20499727.69046  20761756.0394                   20761753.3324
 -27194822.09846 -21167874.60443  24167278.5554                   24167280.2424
 -26834867.06248 -20889980.95246  21351712.6804                   21351711.2424
 -25482473.20348 -19833641.47747  20652707.0314                   20652705.5514
 -25164531.89547 -19584275.14744  23073193.5704                   23073193.7624
 -11282103.05547  -8768636.23545  22604498.2034                   22604499.0554
 -32079587.34048 -24974199.77346  20800496.8674                   20800492.7704
  -9132333.76647  -7093167.70445  22610644.4224                   22610642.9734
 11  8 25  0 46 30.0000000  0  8G12G17G10G05G04G25G02G30
 -26382691.99248 -20536007.91046  20752896.2034                   20752893.6294
 -27159233.24246 -21140142.99243  24174051.2504                   24174051.9104
 -26810431.18448 -20870940.00546  21356363.0784                   21356361.2194
 -25564975.27048 -19897928.76747  20637007.2734                   20637005.5204
 -25115374.84446 -19545970.96944  23082547.9064                   23082547.9414
 -11387590.00447  -8850833.83045  22584424.6644                   22584425.2034
 -32090978.93748 -24983076.34246  20798329.3134                   20798325.2344
  -9234903.63347  -7173092.22444  22591126.2894                   22591124.7344
 11  8 25  0 47  0.0000000  0  8G12G17G10G05G04G25G02G30
 -26428676.24648 -20571839.78346  20744145.5314                   20744143.1914
 -27123452.34846 -21112261.85843  24180860.0704                   24180861.0204
 -26785465.35248 -20851486.12345  21361113.8674                   21361112.1994
 -25646952.26648 -19961806.90347  20621407.8834                   20621405.8014
 -25066225.88346 -19507673.11744  23091900.4384                   23091900.3204
 -11492666.14147  -8932711.31745  22564429.5004                   22564429.7704
 -32102195.31648 -24991816.37846  20796195.0234                   20796190.8484
  -9337004.10547  -7252650.98945  22571696.8914                   22571695.4694
 11  8 25  0 47 30.0000000  0  8G12G17G10G05G04G25G02G30
 -26474085.40248 -20607223.52346  20735504.7114                   20735501.9964
 -27087480.97746 -21084232.26443  24187705.0944                   24187705.4804
 -26759973.52748 -20831622.36746  21365964.7664                   21365962.8094
 -25728403.86348 -20025275.63347  20605907.9694                   20605906.1214
 -25017087.57446 -19469383.52244  23101251.0474                   23101251.6484
 -11597330.60247  -9014268.02245  22544512.0634                   22544512.7734
 -32113238.89148 -25000421.76546  20794093.3364                   20794089.4804
  -9438634.50047  -7331843.46645  22552357.6564                   22552355.8324
 11  8 25  0 48  0.0000000  0  8G12G17G10G05G04G25G02G30
 -26518919.96948 -20642159.55046  20726972.8364                   20726970.1884
 -27051320.23446 -21056055.07743  24194586.5314                   24194586.8554
 -26733958.70347 -20811351.09946  21370915.2504                   21370913.6054
 -25809329.97348 -20088334.89047  20590508.3054                   20590506.6214
 -24967962.06247 -19431103.93844  23110599.6884                   23110599.9304
 -11701582.02747  -9095502.87545  22524673.7814                   22524674.5434
 -32124111.89848 -25008894.24246  20792024.3914                   20792020.5594
  -9539793.47747  -7410668.63045  22533107.4844                   22533105.9144
 11  8 25  0 48 30.0000000  0  8G12G17G10G05G04G25G02G30
 -26563182.78948 -20676650.05746  20718549.9694                   20718547.0944
 -27014973.16846 -21027732.66043  24201503.3204                   24201503.3594
 -26707426.38747 -20790676.57146  21375964.1254                   21375962.5864
 -25889731.91048 -20150985.71347  20575208.2664                   20575206.6564
 -24918853.31246 -19392837.39544  23119944.7114                   23119944.8554
 -11805421.06247  -9176416.39145  22504914.3054                   22504914.8524
 -32134818.52748 -25017237.07046  20789986.6094                   20789982.8714
  -9640481.83647  -7489127.03745  22513947.1024                   22513945.8954
 11  8 25  0 49  0.0000000  0  8G12G17G10G05G04G25G02G30
 -26606869.21148 -20710691.42446  20710236.3984                   20710233.9344
 -26978435.71946 -20999261.94243  24208455.5084                   24208456.1884
 -26680375.34448 -20769597.84146  21381111.4304                   21381109.7464
 -25969604.37948 -20213223.95547  20560009.2034                   20560007.1414
 -24869758.54346 -19354581.77144  23129287.5634                   23129286.9804
 -11908841.74247  -9257003.92245  22485233.4774                   22485234.0944
 -32145356.24648 -25025448.28146  20787981.7504                   20787977.6024
  -9740693.60947  -7567214.12345  22494877.2504                   22494875.6524
 11  8 25  0 49 30.0000000  0  8G12G17G10G05G04G25G02G30
 -26649978.25448 -20744282.88147  20702033.2504                   20702030.7154
 -26941707.57046 -20970642.67043  24215445.2034                   24215445.7234
 -26652807.14848 -20748116.12446  21386357.6724                   21386356.4574
 -26048945.45748 -20275048.13447  20544910.9454                   20544908.9774
 -24820678.27746 -19316337.39644  23138626.9064                   23138626.9614
 -12011841.05547  -9337263.10145  22465633.5634                   22465633.9024
 -32155725.47348 -25033528.20146  20786008.4534                   20786004.2934
  -9840425.96547  -7644927.60145  22475898.6094                   22475897.5354
 11  8 25  0 50  0.0000000  0  8G12G17G10G05G04G25G02G30
 -26692509.87148 -20777424.39446  20693939.5314                   20693937.0124
 -26904789.29746 -20941875.14743  24222470.4614                   24222470.9144
 -26624724.30548 -20726233.39046  21391701.5704                   21391700.2234
 -26127754.25048 -20336457.53447  20529914.0634                   20529912.1564
 -24771614.17246 -19278105.67044  23147963.6254                   23147963.1994
 -12114417.26647  -9417192.58345  22446113.8134                   22446114.9454
 -32165927.86348 -25041478.12346  20784066.6724                   20784063.0664
  -9939677.32047  -7722266.30245  22457011.7584                   22457010.6884
 11  8 25  0 50 30.0000000  0  8G12G17G10G05G04G25G02G30
 -26734464.17647 -20810116.06646  20685956.0234                   20685953.3444
 -26867681.47746 -20912959.98843  24229532.0944                   24229532.3244
 -26596129.89147 -20703952.03145  21397142.7974                   21397141.4534
 -26206029.69948 -20397451.34247  20515018.5634                   20515016.9924
 -24722567.52346 -19239887.53544  23157296.7584                   23157296.9144
 -12216568.39847  -9496790.84945  22426675.0554                   22426675.8984
 -32175964.91047 -25049299.20446  20782157.1024                   20782152.8324
 -10038445.60947  -7799228.59545  22438216.7114                   22438215.5784
 11  8 25  0 51  0.0000000  0  8G12G17G10G05G04G25G02G30
 -26775841.45348 -20842358.10046  20678082.2034                   20678079.5274
 -26830384.64546 -20883897.49043  24236629.2974                   24236629.8794
 -26567027.21947 -20681274.63145  21402681.1334                   21402679.5354
 -26283771.33248 -20458029.20347  20500224.8444                   20500223.1954
 -24673540.27046 -19201684.46844  23166626.5164                   23166626.4964
 -12318293.09847  -9576056.82245  22407317.2734                   22407318.4884
 -32185838.73447 -25056993.10946  20780278.0314                   20780273.8674
 -10136729.78547  -7875813.64545  22419513.7194                   22419513.0084
 11  8 25  0 51 30.0000000  0  8G12G17G10G05G04G25G02G30
 -26816642.21147 -20874150.89646  20670318.1954                   20670315.1914
 -26792900.02346 -20854688.71143  24243761.9304                   24243762.6644
 -26537419.01247 -20658203.30445  21408315.0394                   21408313.9384
 -26360978.87548 -20518190.87647  20485532.6954                   20485531.0044
 -24624534.28547 -19163498.06744  23175952.2974                   23175951.9964
 -12419590.06247  -9654989.47145  22388041.5634                   22388042.1844
 -32195551.31247 -25064561.35146  20778429.7664                   20778425.7664
 -10234528.58647  -7952020.49445  22400903.2504                   22400902.6174
 11  8 25  0 52  0.0000000  0  9G12G17G10G29G05G04G25G02G30
 -26856868.27048 -20905495.87746  20662663.4224                   20662660.4924
 -26755230.09046 -20825335.57843  24250930.3834                   24250931.6094
 -26507310.60247 -20634742.21446  21414045.0394                   21414043.3134
   2986838.30956   2337545.84654  24535120.8984                   24535121.4344
 -26437653.20748 -20577937.06547  20470941.9304                   20470940.1764
 -24575553.18746 -19125330.95144  23185272.7584                   23185272.5434
 -12520459.43047  -9733588.93645  22368846.4694                   22368847.1054
 -32205106.19547 -25072006.72146  20776611.3984                   20776607.5704
 -10331842.25447  -8027849.32345  22382384.7894                   22382383.8444
 11  8 25  0 52 30.0000000  0  9G12G17G10G29G05G04G25G02G30
 -26896520.78548 -20936393.94846  20655117.7814                   20655115.2664
 -26717376.25046 -20795839.07443  24258133.6804                   24258134.7074
 -26476705.51247 -20610894.09345  21419868.7584                   21419867.5474
   2874694.62547   2250161.21944  24513781.1804                   24513780.8054
 -26513794.60948 -20637267.99547  20456452.5634                   20456451.1724
 -24526598.98846 -19087184.86344  23194588.2584                   23194588.5044
 -12620900.33647  -9811854.54345  22349733.2274                   22349734.0704
 -32214505.85248 -25079331.13346  20774822.6484                   20774818.5664
 -10428669.96147  -8103299.45845  22363959.3364                   22363958.2974
 11  8 25  0 53  0.0000000  0  9G12G17G10G29G05G04G25G02G30
 -26935605.57048 -20966849.63646  20647680.4454                   20647677.2894
 -26679344.59446 -20766204.02443  24265371.2664                   24265371.8364
 -26445612.38347 -20586665.67245  21425785.7424                   21425783.8404
   2762456.35947   2162702.86944  24492422.8914                   24492422.6484
 -26589407.80148 -20696187.31647  20442063.9534                   20442061.9494
 -24477678.99646 -19049065.38844  23203897.8134                   23203897.1884
 -12720916.60247  -9889789.25245  22330700.5474                   22330701.5204
 -32223757.35248 -25086540.09546  20773062.2344                   20773058.5394
 -10525015.84847  -8178374.15545  22345625.3054                   22345624.0904
 11  8 25  0 53 30.0000000  0  9G12G17G10G29G05G04G25G02G30
 -26974120.84048 -20996861.53546  20640351.1254                   20640348.1684
 -26641133.98447 -20736429.53844  24272642.8754                   24272643.2664
 -26414032.30548 -20562057.80745  21431794.8984                   21431793.6174
   2650125.61746   2075172.42944  24471047.1644                   24471047.3754
 -26664490.37948 -20754693.18447  20427776.3674                   20427774.6564
 -24428792.82447 -19010972.30044  23213200.5164                   23213200.3054
 -12820504.65647  -9967390.29345  22311749.3674                   22311750.3914
 -32232860.50448 -25093633.47646  20771330.2734                   20771325.8524
 -10620876.38747  -8253070.65445  22327383.8914                   22327382.4654
 11  8 25  0 54  0.0000000  0  9G12G17G10G29G05G04G25G02G30
 -27012056.70747 -21026421.95246  20633131.6254                   20633129.4844
 -26602734.94146 -20706508.24243  24279949.5704                   24279950.2814
 -26381958.11748 -20537064.95945  21437898.4924                   21437896.9654
   2537712.53946   1987577.93343  24449654.7504                   24449655.3204
 -26739031.31248 -20812776.98747  20413591.5314                   20413589.6254
 -24379931.64847 -18972898.70144  23222498.1484                   23222498.1564
 -12919652.69547 -10044648.45045  22292882.5634                   22292883.0554
 -32241806.76247 -25100604.59146  20769627.8524                   20769623.5864
 -10716239.85247  -8327379.82445  22309236.6954                   22309235.1994
 11  8 25  0 54 30.0000000  0  9G12G17G10G29G05G04G25G02G30
 -27049414.34847 -21055531.81646  20626023.1254                   20626020.5084
 -26564149.23446 -20676441.43544  24287292.1724                   24287293.3714
 -26349393.69147 -20511690.07745  21444095.4304                   21444093.6994
   2425216.17746   1899918.51243  24428247.3594                   24428247.4614
 -26813030.90648 -20870438.96947  20399509.7974                   20399508.1764
 -24331097.98447 -18934846.53144  23231790.6414                   23231791.2894
 -13018359.91847 -10121563.11645  22274098.4534                   22274099.6054
 -32250598.72348 -25107455.47146  20767954.9224                   20767950.7624
 -10811105.66047  -8401301.19045  22291184.3284                   22291183.3094
 11  8 25  0 55  0.0000000  0  9G12G17G10G29G05G04G25G02G30
 -25510774.10547 -19856591.36746  20918816.7504                   20918814.0594
 -24949959.94546 -19418631.61044  24594462.6174                   24594463.4804
 -24740924.59048 -19258337.52845  21750176.7424                   21750175.3874
   3888058.85246   3039795.93143  24706617.0704                   24706617.1644
 -25311067.37548 -19700077.73347  20685324.0234                   20685322.0394
 -22706876.27746 -17669219.26144  23540870.1024                   23540870.4924
 -11541202.80547  -8970531.55246  22555192.7734                   22555193.1684
 -30683818.94148 -23886588.12146  21066103.0634                   21066098.9804
  -9330050.53947  -7247232.23545  22573019.8524                   22573018.4414
 11  8 25  0 55 30.0000000  0  9G12G17G10G29G05G04G25G02G30
 -25546972.45348 -19884797.88446  20911928.0554                   20911925.8094
 -24910999.00847 -19388272.44944  24601876.5864                   24601877.5084
 -24707385.73448 -19232203.35445  21756559.2274                   21756557.7814
   3775399.50846   2952009.54643  24685178.5084                   24685178.0314
 -25383978.55548 -19756891.61147  20671449.8834                   20671447.9344
 -22658098.52346 -17631210.66744  23550152.1644                   23550152.4144
 -11639020.19547  -9046752.84045  22536578.7034                   22536579.3674
 -30692303.69148 -23893199.61746  21064488.4614                   21064484.5944
  -9423913.22347  -7320371.95145  22555158.2894                   22555156.6764
 11  8 25  0 56  0.0000000  0  9G12G17G10G29G05G04G25G02G30
 -25582591.45348 -19912552.95846  20905150.2424                   20905147.3754
 -24871850.46947 -19357767.09644  24609325.7584                   24609327.3874
 -24673362.78148 -19205691.97745  21763033.6254                   21763031.8874
   3662659.80946   2864160.47743  24663725.4694                   24663725.0204
 -25456343.78948 -19813280.06947  20657678.6564                   20657676.6024
 -22609349.79746 -17593224.72544  23559429.1094                   23559429.0274
 -11736389.11747  -9122624.68846  22518049.7664                   22518050.3204
 -30700635.95348 -23899692.28646  21062902.6644                   21062898.6724
  -9517271.00047  -7393118.21845  22537392.8364                   22537390.9964
 11  8 25  0 56 30.0000000  0  9G12G17G10G29G05G04G25G02G30
 -25617625.46148 -19939852.18046  20898483.4144                   20898480.9414
 -24832509.99247 -19327112.18844  24616812.4304                   24616813.7274
 -24638853.71547 -19178801.79745  21769600.1884                   21769598.8794
   3549844.32046   2776252.34943  24642257.4844                   24642257.1054
 -25528157.53548 -19869238.80747  20644013.2114                   20644011.3674
 -22560626.44546 -17555258.49544  23568700.8984                   23568700.7464
 -11833302.91847  -9198141.87145  22499607.7504                   22499608.3094
 -30708812.31648 -23906063.47346  21061346.8524                   21061343.2464
  -9610117.34847  -7465465.97745  22519724.6094                   22519723.1884
 11  8 25  0 57  0.0000000  0  9G12G17G10G29G05G04G25G02G30
 -25652072.76648 -19966694.25546  20891928.2034                   20891925.7114
 -24792976.12946 -19296306.58644  24624334.7584                   24624336.2384
 -24603859.91848 -19151533.90545  21776259.9384                   21776258.0004
   3436955.90246   2688287.41943  24620775.4224                   24620775.1094
 -25599417.18748 -19924765.77847  20630452.8984                   20630451.2074
 -22511927.98446 -17517311.71244  23577967.5944                   23577967.1094
 -11929757.89547  -9273301.54546  22481252.8284                   22481253.4614
 -30716832.67248 -23912313.09946  21059820.7974                   21059816.9494
  -9702448.84847  -7537412.53645  22502154.8054                   22502153.3484
 11  8 25  0 57 30.0000000  0  8G12G10G29G05G04G25G02G30
 -25685935.32047 -19993080.65446  20885484.5004                   20885481.6334
 -24568385.28147 -19123891.33145  21783010.0164                   21783008.5514
   3323993.44946   2600264.76943  24599278.9064                   24599279.1054
 -25670123.02348 -19979861.20947  20616998.0554                   20616995.8794
 -22463256.69946 -17479386.06044  23587229.4304                   23587229.7234
 -12025753.62147  -9348103.36646  22462985.4614                   22462986.3984
 -30724699.42248 -23918443.03446  21058323.6644                   21058319.6764
  -9794265.10247  -7608957.62245  22484682.4064                   22484681.4264
 11  8 25  0 58  0.0000000  0  8G12G10G29G05G04G25G02G30
 -25719216.46148 -20019014.02146  20879151.2814                   20879148.9304
 -24532436.27047 -19095879.12545  21789850.5234                   21789849.3714
   3210953.62146   2512181.91544  24577768.3444                   24577768.2664
 -25740277.97748 -20034527.38147  20603648.0084                   20603646.1174
 -22414617.46947 -17441485.42444  23596485.6644                   23596485.2624
 -12121291.77047  -9422548.63746  22444805.1804                   22444805.9414
 -30732417.59848 -23924457.19446  21056855.0474                   21056850.8524
  -9885568.06247  -7680102.73345  22467308.0164                   22467306.8484
 11  8 25  0 58 30.0000000  0  8G12G10G29G05G04G25G02G30
 -25751910.68048 -20044490.04846  20872929.8984                   20872927.2384
 -24496009.66047 -19067494.76045  21796782.3914                   21796781.4344
   3097842.66046   2424043.57844  24556243.7894                   24556243.6994
 -25809875.35948 -20088759.07647  20590404.1954                   20590402.0824
 -22366005.31247 -17403605.82944  23605736.2274                   23605735.9024
 -12216364.55547  -9496631.29845  22426713.3914                   22426714.2234
 -30739982.41848 -23930351.85946  21055415.4924                   21055411.2664
  -9976350.03547  -7750841.88145  22450032.8524                   22450031.1844
 11  8 25  0 59  0.0000000  0  8G12G10G29G05G04G25G02G30
 -25784010.19948 -20069502.66546  20866821.5004                   20866818.7664
 -24459100.87548 -19038734.68045  21803805.9924                   21803804.7664
   2984668.68446   2335856.09444  24534707.6024                   24534707.3594
 -25878906.43048 -20142549.50147  20577267.6954                   20577266.0744
 -22317413.73447 -17365742.30444  23614982.9774                   23614982.8984
 -12310962.38347  -9570343.85345  22408711.9534                   22408712.8134
 -30747387.41848 -23936121.98346  21054006.3674                   21054002.5004
 -10066601.71947  -7821167.81845  22432858.2814                   22432857.1254
 11  8 25  0 59 30.0000000  0  8G12G10G29G05G04G25G02G30
 -25815519.19547 -20094055.12946  20860825.6254                   20860823.0474
 -24421715.84048 -19009603.49245  21810920.4384                   21810918.7274
   2871428.82846   2247617.36644  24513158.4454                   24513158.1884
 -25947374.16847 -20195900.94947  20564238.9064                   20564236.9574
 -22268847.07047 -17327898.23044  23624224.6804                   23624224.8364
 -12405086.89147  -9643687.60045  22390800.8284                   22390801.1994
 -30754637.16847 -23941771.13946  21052626.9614                   21052622.8054
 -10156324.82847  -7891081.88845  22415784.5394                   22415783.3674
 11  8 25  1  0  0.0000000  0  8G12G10G29G05G04G25G02G30
 -25846441.02348 -20118150.06746  20854941.5234                   20854938.8714
 -24383861.04348 -18980106.25145  21818123.7274                   21818122.2624
   2758119.66846   2159324.58544  24491597.0084                   24491596.6524
 -26015281.61348 -20248815.81247  20551316.3594                   20551314.4774
 -22220310.24247 -17290077.31044  23633461.0084                   23633460.8754
 -12498739.91047  -9716663.96046  22372979.2504                   22372979.8364
 -30761736.68448 -23947303.22446  21051275.9224                   21051271.5354
 -10245521.48047  -7960585.73345  22398811.1484                   22398809.6804
 11  8 25  1  0 30.0000000  0  8G12G10G29G05G04G25G02G30
 -25876774.69948 -20141786.70446  20849169.0554                   20849166.4534
 -24345537.93748 -18950244.10545  21825416.5634                   21825415.0204
   2644742.82446   2070979.04644  24470021.3674                   24470020.9344
 -26082626.41448 -20301292.24647  20538500.8594                   20538499.1374
 -22171802.69947 -17252279.25744  23642691.9534                   23642691.1884
 -12591918.27747  -9789270.46445  22355247.8284                   22355248.2704
 -30768685.78948 -23952718.09446  21049953.3984                   21049949.3834
 -10334188.60247  -8029676.95845  22381938.3134                   22381936.5394
 11  8 25  1  1  0.0000000  0  8G12G10G29G05G04G25G02G30
 -25906527.50048 -20164970.69946  20843507.0004                   20843504.6414
 -24306756.73848 -18920025.00645  21832796.4384                   21832794.8554
   2531292.03146   1982575.95543  24448431.7504                   24448432.2584
 -26149414.89848 -20353335.19247  20525791.7034                   20525789.4264
 -22123332.40247 -17214510.23944  23651916.0314                   23651915.3054
 -12684627.07047  -9861511.07446  22337605.6884                   22337606.4694
 -30775492.71548 -23958022.20046  21048658.1174                   21048654.2624
 -10422331.55947  -8098359.73845  22365165.3134                   22365164.1564
 11  8 25  1  1 30.0000000  0  8G12G10G29G05G04G25G02G30
 -25935696.17648 -20187699.54946  20837956.8444                   20837954.2384
 -24267516.21148 -18889447.97745  21840263.6484                   21840261.9534
   2417771.37146   1894118.39544  24426830.2114                   24426829.7774
 -26215642.80548 -20404941.31647  20513188.7584                   20513186.8364
 -22074896.71547 -17176768.17044  23661132.3834                   23661132.4184
 -12776860.76647  -9933381.46746  22320054.4774                   22320054.7894
 -30782155.00048 -23963213.60046  21047390.3594                   21047386.5634
 -10509944.98047  -8166629.90145  22348493.0394                   22348491.5474
 11  8 25  1  2  0.0000000  0  8G12G10G29G05G04G25G02G30
 -25964286.36748 -20209977.62546  20832516.0704                   20832513.6994
 -24227824.64148 -18858519.50045  21847816.5234                   21847815.2894
   2304175.96546   1805602.59243  24405213.2194                   24405213.5824
 -26281314.67248 -20456114.16847  20500691.6484                   20500689.5394
 -22026502.14147 -17139058.14044  23670341.8134                   23670341.5634
 -12868622.92648 -10004884.44046  22302592.6644                   22302593.5314
 -30788679.08648 -23968297.30646  21046148.8204                   21046144.6644
 -10597032.68447  -8234490.41545  22331920.9064                   22331919.3524
 11  8 25  1  2 30.0000000  0  8G12G10G29G05G04G25G02G30
 -25992294.78148 -20231802.36646  20827186.4144                   20827183.9024
 -24187681.51647 -18827239.15245  21855455.9774                   21855454.4884
   2190509.96146   1717031.77643  24383583.8284                   24383583.4884
 -26346426.43048 -20506850.57247  20488301.4454                   20488299.3554
 -21978146.00847 -17101378.06743  23679543.4774                   23679543.9104
 -12959908.34047 -10076015.91946  22285221.4064                   22285221.9804
 -30795062.68448 -23973271.53946  21044934.1884                   21044929.9184
 -10683589.67247  -8301937.40145  22315449.3204                   22315447.6764
 11  8 25  1  3  0.0000000  0  8G12G10G29G05G04G25G02G30
 -26019719.93048 -20253172.63147  20821967.5234                   20821965.1454
 -24147087.68447 -18795607.61945  21863180.0634                   21863179.2234
   2076775.49246   1628407.61643  24361940.7194                   24361940.6804
 -26410975.69548 -20557148.67247  20476018.0314                   20476016.2154
 -21929827.39547 -17063727.20243  23688738.4384                   23688738.4224
 -13050713.32447 -10146773.03446  22267942.2814                   22267942.6334
 -30801305.18048 -23978135.81146  21043745.8914                   21043741.9494
 -10769612.49247  -8368968.13545  22299079.6484                   22299078.0664
 11  8 25  1  3 30.0000000  0  8G12G10G29G05G04G25G02G30
 -26046564.77048 -20274090.68946  20816859.0004                   20816856.3054
 -24106048.60547 -18763629.10345  21870989.8054                   21870988.2624
   1962970.78146   1539728.64144  24340284.6024                   24340284.5394
 -26474964.60547 -20607010.12847  20463841.1414                   20463839.5864
 -21881549.83246 -17026108.38143  23697925.3204                   23697924.9804
 -13141038.73448 -10217156.47846  22250753.4924                   22250754.1024
 -30807410.45348 -23982893.17646  21042584.1724                   21042580.2234
 -10855102.13347  -8435583.43845  22282811.8204                   22282810.2034
 11  8 25  1  4  0.0000000  0  8G12G10G29G05G04G25G02G30
 -26072825.99248 -20294553.99147  20811861.6724                   20811859.2774
 -24064563.37147 -18731302.97545  21878884.1644                   21878882.9734
   1849100.07446   1450998.27544  24318615.7974                   24318614.8094
 -26538388.56248 -20656431.36047  20451772.1094                   20451769.8954
 -21833310.48847 -16988519.30044  23707104.7974                   23707104.8094
 -13230879.03148 -10287161.89346  22233657.6564                   22233658.0944
 -30813375.54748 -23987541.29546  21041449.1024                   21041445.3874
 -10940053.28547  -8501779.12345  22266646.1254                   22266644.5004
 11  8 25  1  4 30.0000000  0  8G12G10G29G05G04G25G02G30
 -26098509.82848 -20314567.37846  20806974.3594                   20806971.8404
 -24022641.05547 -18698636.25045  21886861.9534                   21886860.4104
   1735157.46946   1362211.88344  24296932.8834                   24296932.2664
 -26601253.27748 -20705416.82147  20439809.3754                   20439807.3484
 -21785116.60947 -16950965.69944  23716276.3444                   23716276.2234
 -13320238.68748 -10356792.78346  22216652.8364                   22216653.7384
 -30819207.92648 -23992086.01446  21040339.3754                   21040335.2074
 -11024470.68047  -8567558.90845  22250581.9774                   22250580.2814
 11  8 25  1  5  0.0000000  0  8G12G10G29G05G04G25G02G30
 -26123613.69148 -20334128.84246  20802197.2814                   20802194.5044
 -23980280.93747 -18665628.37145  21894922.8364                   21894921.1724
   1621147.43046   1273372.90444  24275237.5394                   24275236.8954
 -26663554.78148 -20753963.41447  20427953.7504                   20427951.9414
 -21736965.35547 -16913445.28944  23725438.6484                   23725438.5124
 -13409112.41047 -10426045.01746  22199740.8524                   22199741.1254
 -30824905.35548 -23996525.56846  21039254.9454                   21039250.9414
 -11108349.32447  -8632918.87545  22234620.2814                   22234618.8244
 11  8 25  1  5 30.0000000  0  8G12G10G29G05G04G25G02G30
 -26148135.44548 -20353236.71046  20797530.7814                   20797528.4064
 -23937483.98847 -18632280.11645  21903066.5704                   21903065.3484
   1507072.57446   1184483.44844  24253529.6954                   24253529.6764
 -26725290.22348 -20802068.92747  20416205.8204                   20416203.5864
 -21688855.39547 -16875957.03444  23734593.9384                   23734594.3524
 -13497496.26648 -10494915.54946  22182921.9844                   22182922.5124
 -30830466.53548 -24000858.95946  21038197.1334                   21038193.0474
 -11191685.52047  -8697856.15845  22218762.0084                   22218760.3094
 11  8 25  1  6  0.0000000  0  8G12G10G29G05G04G25G02G30
 -26172076.73848 -20371892.28046  20792975.1884                   20792972.6724
 -23894253.50847 -18598594.04645  21911293.1094                   21911292.0554
   1392932.77746   1095543.35244  24231809.7424                   24231808.8954
 -26786459.77348 -20849733.47647  20404565.5784                   20404563.6024
 -21640788.28946 -16838502.16644  23743740.7424                   23743740.9734
 -13585389.23448 -10563403.56646  22166196.7034                   22166196.8714
 -30835893.17248 -24005087.51246  21037164.1884                   21037160.1484
 -11274478.40647  -8762370.07945  22203006.9614                   22203005.7344
 11  8 25  1  6 30.0000000  0  8G12G10G29G05G04G25G02G30
 -26195435.66048 -20390094.04746  20788529.9224                   20788527.6134
 -23850590.19547 -18564570.70245  21919602.2114                   21919600.8204
   1278730.98446   1006554.94644  24210078.0164                   24210077.1564
 -26847060.95348 -20896955.15447  20393033.5084                   20393031.7344
 -21592762.82846 -16801079.78544  23752879.8284                   23752880.6254
 -13672787.42648 -10631506.04746  22149565.1954                   22149565.6294
 -30841184.33648 -24009210.49346  21036157.4774                   21036152.9344
 -11356724.39847  -8826457.85345  22187356.1334                   22187354.4144
 11  8 25  1  7  0.0000000  0  8G12G10G29G05G04G25G02G30
 -26218217.91848 -20407846.47246  20784194.6094                   20784192.1644
 -23806502.36747 -18530216.56545  21927991.6024                   21927990.3874
   1164462.59846    917514.70844  24188333.2194                   24188332.3404
 -26907098.62548 -20943737.72847  20381608.8914                   20381606.9534
 -21544785.14547 -16763694.57044  23762009.6884                   23762009.8014
 -13759694.50048 -10699225.82246  22133027.5864                   22133027.9534
 -30846346.54348 -24013233.00046  21035174.8594                   21035171.0354
 -11438427.45347  -8890122.56545  22171808.5004                   22171806.8094
 11  8 25  1  7 30.0000000  0  8G12G10G29G05G04G25G02G30
 -26240420.62548 -20425147.30046  20779969.7734                   20779967.1644
 -23761989.52347 -18495531.24545  21936462.2194                   21936460.7114
   1050131.64146    828425.66043  24166576.9454                   24166575.8954
 -26966568.65648 -20990077.98647  20370291.9614                   20370289.8754
 -21496852.60547 -16726344.54744  23771131.1334                   23771131.3554
 -13846105.37148 -10766558.96446  22116583.9454                   22116584.4964
 -30851377.27048 -24017153.05146  21034217.9144                   21034213.6994
 -11519582.58247  -8953360.31645  22156365.3364                   22156363.6134
 11  8 25  1  8  0.0000000  0  8G12G10G29G05G04G25G02G30
 -26262044.98848 -20441997.46746  20775854.7734                   20775852.3484
 -23717054.89547 -18460517.25045  21945012.9924                   21945011.7624
    935738.21946    739287.95344  24144808.3754                   24144807.8204
 -27025471.19948 -21035976.03947  20359083.0944                   20359081.1764
 -21448966.26247 -16689030.54944  23780243.2664                   23780243.5744
 -13932018.70748 -10833504.39946  22100235.4844                   22100235.5744
 -30856278.03948 -24020971.83346  21033284.9224                   21033280.9184
 -11600188.83247  -9016170.36045  22141026.2344                   22141024.7424
 11  8 25  1  8 30.0000000  0  8G12G10G29G05G04G25G02G30
 -26283088.66848 -20458395.14547  20771850.1414                   20771847.7544
 -23671698.69948 -18425174.78445  21953644.0554                   21953642.6644
    821285.57046    650104.08844  24123029.1804                   24123028.4384
 -27083803.25048 -21081429.55547  20347983.0784                   20347980.8524
 -21401124.30147 -16651751.13244  23789347.2114                   23789347.6564
 -14017430.14548 -10900058.75246  22083981.7894                   22083982.3954
 -30861047.16048 -24024688.03246  21032377.3754                   21032373.3014
 -11680242.10247  -9078549.51845  22125792.3914                   22125790.9924
 11  8 25  1  9  0.0000000  0  8G12G10G29G05G04G25G02G30
 -26303549.55148 -20474338.70846  20767956.8524                   20767954.4224
 -23625921.32447 -18389504.11145  21962355.4924                   21962353.7034
    706777.46946    560877.07444  24101238.0554                   24101237.7974
 -27141561.50848 -21126435.96647  20336991.8754                   20336989.7234
 -21353324.77047 -16614504.72344  23798442.8754                   23798443.6094
 -14102335.36348 -10966218.64946  22067824.9844                   22067825.2344
 -30865682.89848 -24028300.29746  21031495.3914                   21031491.5004
 -11759738.35947  -9140494.64045  22110664.7194                   22110663.5824
 11  8 25  1  9 30.0000000  0  8G12G10G29G05G04G25G02G30
 -26323430.04748 -20489830.01646  20764173.3444                   20764171.0704
 -23579727.53147 -18353508.96045  21971145.5234                   21971144.1414
    592212.89146    471606.03544  24079437.6254                   24079436.8364
 -27198747.58648 -21170996.52047  20326109.7274                   20326107.7114
 -21305570.53147 -16577293.61244  23807530.4304                   23807531.0704
 -14186734.67248 -11031984.32146  22051764.4384                   22051764.7734
 -30870187.95748 -24031810.73846  21030638.3984                   21030634.2194
 -11838678.16847  -9202006.16745  22095643.2424                   22095641.7234
 11  8 25  1 10  0.0000000  0  8G12G10G29G05G04G25G02G30
 -26342733.85248 -20504871.95846  20760500.2584                   20760497.4304
 -23533122.78547 -18317193.58845  21980014.1414                   21980012.8594
    477589.50446    382289.19544  24057625.5164                   24057625.3794
 -27255364.28548 -21215113.41247  20315335.9534                   20315333.6844
 -21257865.01647 -16540120.51244  23816609.0474                   23816608.8484
 -14270629.22748 -11097356.69146  22035799.8054                   22035800.6294
 -30874566.38748 -24035222.50046  21029804.6804                   21029800.8874
 -11917062.90247  -9263085.18145  22080726.9384                   22080725.7274
 11  8 25  1 10 30.0000000  0  8G12G10G29G05G04G25G02G30
 -26361461.75448 -20519465.13946  20756936.1884                   20756933.9184
 -23486110.10547 -18280560.33145  21988960.4774                   21988958.7384
    362907.79946    292926.93144  24035802.0704                   24035801.8954
 -27311410.84848 -21258786.02747  20304670.4924                   20304668.5234
 -21210208.83647 -16502985.78143  23825677.1644                   23825677.2624
 -14354017.50448 -11162334.54346  22019931.3364                   22019932.0124
 -30878819.31648 -24038536.48546  21028995.5864                   21028991.4104
 -11994891.35247  -9323730.72345  22065916.6094                   22065915.5704
 11  8 25  1 11  0.0000000  0  8G12G10G29G05G04G25G02G30
 -26379614.57848 -20533610.21146  20753481.7974                   20753479.5664
 -23438692.72747 -18243611.76445  21997983.4454                   21997982.3954
    248168.52046    203519.68944  24013968.0864                   24013967.8444
 -27366887.37148 -21302014.46347  20294113.8134                   20294111.8164
 -21162602.98047 -16465890.32843  23834736.5164                   23834736.5004
 -14436898.05948 -11226916.76346  22004159.9694                   22004160.2304
 -30882947.87948 -24041753.54846  21028210.0634                   21028205.5984
 -12072162.38747  -9383941.90245  22051212.4454                   22051211.2114
 11  8 25  1 11 30.0000000  0  8G12G10G29G05G04G25G02G30
 -26397191.39148 -20547306.44246  20750137.1954                   20750134.6914
 -23390872.09047 -18206348.93845  22007083.8054                   22007082.2544
    133374.09846    114069.57644  23992123.3594                   23992122.8094
 -27421792.30548 -21344797.51147  20283665.6724                   20283663.8014
 -21115046.73446 -16428833.47243  23843786.2734                   23843786.1334
 -14519267.86348 -11291101.00346  21988485.1414                   21988485.9024
 -30886951.59448 -24044873.34146  21027448.2424                   21027444.0554
 -12148873.21947  -9443716.56045  22036614.6484                   22036613.6134
 11  8 25  1 12  0.0000000  0  8G12G10G29G05G04G25G02G30
 -26414189.60548 -20560551.81446  20746902.5784                   20746900.3324
 -23342647.72747 -18168771.51745  22016260.7274                   22016258.5824
     18528.50046     24579.60944  23970268.8284                   23970268.3134
 -27476121.77348 -21387132.13547  20273326.9694                   20273325.0554
 -21067537.34846 -16391813.16843  23852826.3674                   23852827.0704
 -14601122.02748 -11354883.44346  21972908.8594                   21972909.5594
 -30890828.21148 -24047894.09546  21026710.5084                   21026706.3874
 -12225019.36747  -9503051.20845  22022124.8594                   22022123.5314
 11  8 25  1 12 30.0000000  0  8G12G10G29G05G04G25G02G30
 -26430617.34448 -20573352.66046  20743776.3364                   20743774.2504
 -23294029.76247 -18130887.40045  22025512.2894                   22025510.5474
    -96374.66047    -64955.20644  23948403.5634                   23948402.4104
 -27529882.90248 -21429023.89247  20263096.6954                   20263094.6804
 -21020082.74246 -16354835.61143  23861856.6724                   23861856.8594
 -14682466.31248 -11418268.56446  21957429.5944                   21957430.1174
 -30894585.57847 -24050821.91146  21025995.5704                   21025991.5124
 -12300606.72747  -9561950.43345  22007740.7894                   22007739.6054
 11  8 25  1 13  0.0000000  0  8G12G10G29G05G04G25G02G30
 -26446468.67648 -20585704.35946  20740760.2274                   20740757.6334
 -23245014.50047 -18092693.70145  22034839.5704                   22034837.8984
   -211327.88347   -154528.99844  23926529.1804                   23926528.0164
 -27583068.87548 -21470467.48747  20252975.8204                   20252973.7464
 -20972677.32846 -16317896.34743  23870877.8444                   23870877.6804
 -14763292.50448 -11481249.99246  21942049.0554                   21942049.1644
 -30898218.08248 -24053652.44046  21025304.4064                   21025299.9654
 -12375627.56247  -9620408.21845  21993465.2344                   21993463.2704
 11  8 25  1 13 30.0000000  0  8G12G10G29G05G04G25G02G30
 -26461746.92248 -20597609.47846  20737852.9454                   20737850.5944
 -23195607.35247 -18054194.62045  22044241.2274                   22044240.1604
   -326333.02347   -244143.33144  23904643.8594                   23904643.4844
 -27635682.06648 -21511464.74447  20242963.8134                   20242961.6994
 -20925323.78946 -16280997.45643  23879889.4064                   23879889.1214
 -14843601.50848 -11543828.41546  21926766.3594                   21926766.9264
 -30901729.13748 -24056388.32646  21024636.2034                   21024631.9494
 -12450082.91047  -9678425.34245  21979296.4454                   21979295.1374
 11  8 25  1 14  0.0000000  0  8G12G10G29G05G04G25G02G30
 -26476453.05548 -20609068.81446  20735053.9694                   20735051.8404
 -23145811.94947 -18015393.02945  22053717.1884                   22053715.5944
   -441388.94147   -333797.19644  23882748.9774                   23882748.3834
 -27687722.17648 -21552015.44847  20233060.7274                   20233058.6604
 -20878023.27046 -16244139.96343  23888890.2664                   23888889.6024
 -14923392.16048 -11606002.92246  21911582.7034                   21911583.1684
 -30905120.15648 -24059030.69446  21023990.7664                   21023986.8164
 -12523972.07847  -9736001.29945  21965235.8134                   21965234.2934
 11  8 25  1 14 30.0000000  0  8G12G10G29G05G04G25G02G30
 -26490589.70348 -20620084.38846  20732364.2504                   20732362.0164
 -23095632.55947 -17976292.21545  22063265.9534                   22063264.3364
   -556497.21147   -423491.88344  23860845.0164                   23860843.9184
 -27739191.39848 -21592121.31247  20223266.5474                   20223264.2704
 -20830778.13746 -16207325.55843  23897880.7974                   23897880.1254
 -15002664.79347 -11667773.78346  21896497.5944                   21896497.9734
 -30908393.86748 -24061581.63446  21023367.6724                   21023363.8324
 -12597295.73047  -9793136.58045  21951282.9304                   21951281.6334
 11  8 25  1 15  0.0000000  0  8G12G10G29G05G04G25G02G30
 -26504150.62148 -20630651.34246  20729783.4694                   20729781.0044
 -23045064.89847 -17936888.86545  22072888.6174                   22072887.3794
   -671649.57847   -513220.94644  23838931.5944                   23838930.4924
 -27790081.93448 -21631776.25047  20213582.2974                   20213580.2974
 -20783581.52746 -16170549.00143  23906862.1954                   23906861.9774
 -15081410.60548 -11729134.13646  21881512.8204                   21881513.2624
 -30911543.54348 -24064035.94146  21022768.4144                   21022764.2424
 -12670045.12947  -9849824.41645  21937439.0554                   21937437.6174
 11  8 25  1 15 30.0000000  0  8G12G10G29G05G04G25G02G30
 -26517142.25448 -20640774.70046  20727311.3914                   20727308.8834
 -22994117.75847 -17897189.80445  22082583.3674                   22082582.0474
   -786850.93447   -602988.13644  23817009.6024                   23817008.5594
 -27840399.52048 -21670984.72847  20204007.1484                   20204005.2304
 -20736439.97746 -16133815.35943  23915832.9144                   23915832.8714
 -15159634.04348 -11790087.43546  21866627.3594                   21866628.0044
 -30914575.92248 -24066398.82246  21022191.2114                   21022187.3594
 -12742225.30147  -9906068.69445  21923703.7344                   21923702.1684
 11  8 25  1 16  0.0000000  0  8G12G10G29G05G04G25G02G30
 -26529567.02348 -20650456.33046  20724946.9304                   20724944.6994
 -22942795.30947 -17857198.30845  22092349.2424                   22092348.4264
   -902101.51647   -692793.71544  23795078.3674                   23795077.5594
 -27890145.46948 -21709747.77947  20194540.8524                   20194538.7384
 -20689355.25846 -16097125.98443  23924792.7584                   23924792.8594
 -15237334.72748 -11850633.40046  21851841.7344                   21851842.0394
 -30917493.27048 -24068672.07546  21021636.0314                   21021632.0864
 -12813836.09047  -9961869.29345  21910076.4774                   21910075.1374
 11  8 25  1 16 30.0000000  0  8G12G10G29G05G04G25G02G30
 -26541424.96948 -20659696.29746  20722690.3134                   20722688.0664
 -22891099.81247 -17816916.10445  22102187.0704                   22102186.2504
  -1017399.41847   -782636.15744  23773137.2504                   23773136.5944
 -27939318.71948 -21748064.56247  20185183.6174                   20185181.4804
 -20642327.19146 -16060480.76743  23933742.1484                   23933742.3674
 -15314510.47348 -11910770.32046  21837155.2504                   21837155.6484
 -30920295.48448 -24070855.61746  21021102.9064                   21021099.0704
 -12884875.74247 -10017224.85145  21896558.1094                   21896556.4964
 11  8 25  1 17  0.0000000  0  8G12G10G29G05G04G25G02G30
 -26552713.00048 -20668492.15846  20720542.4614                   20720540.0864
 -22839030.00047 -17776342.25045  22112095.9614                   22112094.6524
  -1132739.84847   -872511.75944  23751188.8444                   23751188.5744
 -27987915.27348 -21785931.98647  20175935.9384                   20175933.9264
 -20595352.33646 -16023877.06544  23942680.5634                   23942680.8324
 -15391155.99648 -11970494.08646  21822570.1804                   21822570.2814
 -30922979.62148 -24072947.14746  21020592.4144                   21020588.1884
 -12955339.20347 -10072131.41045  21883149.6484                   21883148.0274
 11  8 25  1 17 30.0000000  0  8G12G10G29G05G04G25G02G30
 -26563434.64848 -20676846.69446  20718502.1414                   20718499.8204
 -22786591.35947 -17735480.98145  22122074.4614                   22122073.0394
  -1248124.52047   -962421.87144  23729232.2424                   23729231.2544
 -28035937.75848 -21823352.08547  20166797.6094                   20166795.2854
 -20548433.71146 -15987317.11844  23951609.2664                   23951609.0634
 -15467272.38748 -12029805.54846  21808085.9064                   21808086.1054
 -30925548.96548 -24074949.23546  21020103.1954                   21020099.1764
 -13025227.99247 -10126590.17745  21869850.0164                   21869848.7154
 11  8 25  1 18  0.0000000  0  8G12G10G29G05G04G25G02G30
 -26573594.16048 -20684763.19246  20716568.7194                   20716566.1994
 -22733790.16047 -17694337.19345  22132122.0784                   22132120.8164
  -1363555.73047  -1052368.23744  23707266.1954                   23707264.8014
 -28083389.58648 -21860327.50847  20157767.4774                   20157765.6724
 -20501575.27047 -15950804.09844  23960526.1724                   23960526.2464
 -15542861.53948 -12088706.16546  21793701.7034                   21793702.0394
 -30928007.73848 -24076865.13846  21019635.4144                   21019631.3094
 -13094544.25447 -10180602.83945  21856659.4304                   21856657.9694
 11  8 25  1 18 30.0000000  0  8G12G10G29G05G04G25G02G30
 -26583189.76647 -20692240.29646  20714743.0084                   20714740.6414
 -22680626.68447 -17652911.13045  22142239.1024                   22142237.1914
  -1479029.68047  -1142347.91244  23685291.8984                   23685291.2504
 -28130267.72748 -21896855.91747  20148847.0164                   20148844.9344
 -20454774.68746 -15914336.17843  23969432.0704                   23969432.2344
 -15617919.32848 -12147192.73246  21779418.3204                   21779418.8794
 -30930353.84448 -24078693.27546  21019189.2974                   21019185.0824
 -13163284.21547 -10234166.42745  21843578.9614                   21843577.2424
 11  8 25  1 19  0.0000000  0  8G12G10G29G05G04G25G02G30
 -26592218.10548 -20699275.37346  20713024.9064                   20713022.4804
 -22627099.20747 -17611201.40445  22152425.0164                   22152422.6684
  -1594540.92247  -1232356.65844  23663310.8834                   23663310.1644
 -28176568.25448 -21932934.21847  20140036.7034                   20140034.2854
 -20408028.00846 -15877910.19844  23978326.9924                   23978327.7504
 -15692440.15648 -12205260.90246  21765237.7034                   21765238.6414
 -30932583.67248 -24080430.79846  21018764.4844                   21018760.7774
 -13231442.78947 -10287276.98545  21830608.7034                   21830607.3794
 11  8 25  1 19 30.0000000  0  8G12G10G29G05G04G25G02G30
 -25025259.64848 -19478268.78846  21011207.3204                   21011204.8094
 -20997792.13747 -16341611.48145  22462471.7504                   22462470.1644
   -134664.23847    -94790.41644  23941116.2814                   23941115.5234
 -26646868.96148 -20740960.72347  20431128.6414                   20431126.4494
 -18785916.87146 -14613927.56644  24287004.8284                   24287005.1524
 -14190999.71148 -11035307.30246  22050952.2814                   22050952.4494
 -29359277.67648 -22854478.07446  21318154.7894                   21318150.7234
 -11723596.03147  -9112331.43645  22117542.6414                   22117541.2274
 11  8 25  1 20  0.0000000  0  8G12G10G29G05G04G25G02G30
 -25033158.02348 -19484423.38246  21009704.3054                   21009701.9614
 -20943546.97347 -16299342.53445  22472794.5944                   22472792.6454
   -250248.27747   -184855.90344  23919121.7504                   23919121.1454
 -26692015.02348 -20776139.45247  20422537.2974                   20422535.4774
 -18739280.68446 -14577587.74144  24295879.8594                   24295880.0594
 -14264443.64848 -11092536.33946  22036976.3204                   22036976.6604
 -29361278.60548 -22856037.22946  21317774.1414                   21317769.6604
 -11790589.58647  -9164534.19545  22104793.6954                   22104792.5434
 11  8 25  1 20 30.0000000  0  8G12G10G29G05G04G25G02G30
 -25040492.63348 -19490138.68246  21008308.5864                   21008306.2194
 -20888947.35947 -16256797.36945  22483184.6724                   22483182.6454
   -365866.77047   -274948.21744  23897119.8134                   23897119.0864
 -26736583.66448 -20810868.24447  20414056.0004                   20414053.9414
 -18692700.23046 -14541291.37343  24304743.1484                   24304743.7624
 -14337346.81648 -11149344.00146  22023103.6484                   22023103.6844
 -29363166.03147 -22857507.95546  21317415.0004                   21317410.6764
 -11856998.97747  -9216281.74945  22092156.6884                   22092155.3674
 11  8 25  1 21  0.0000000  0  8G12G10G29G05G04G25G02G30
 -25047267.11748 -19495417.51546  21007019.2894                   21007017.1804
 -20833998.24247 -16213979.87945  22493641.1954                   22493639.0164
   -481521.12147   -365068.49744  23875111.9144                   23875110.9144
 -26780577.38348 -20845149.04547  20405684.4534                   20405682.2664
 -18646178.34846 -14505040.57043  24313596.7194                   24313597.3954
 -14409710.50048 -11205731.28246  22009332.9454                   22009333.3834
 -29364943.02748 -22858892.61246  21317077.0784                   21317072.5904
 -11922825.77347  -9267575.33245  22079629.8984                   22079628.7704
 11  8 25  1 21 30.0000000  0  9G12G26G10G29G05G04G25G02G30
 -25053481.70748 -19500260.07546  21005836.5864                   21005834.6954
   6120585.20756   4780411.10653  24956885.9064                   24956890.5004
 -20778702.07447 -16170891.96245  22504163.5864                   22504161.4804
   -597209.56247   -455215.32344  23853097.1954                   23853095.8834
 -26823995.80948 -20878981.55947  20397422.2274                   20397420.0824
 -18599714.56646 -14468835.05143  24322438.5554                   24322438.8284
 -14481532.62948 -11261696.57246  21995665.5784                   21995665.9614
 -29366609.65647 -22860191.27646  21316759.5004                   21316755.5554
 -11988068.30947  -9318413.66845  22067215.0394                   22067213.2624
 11  8 25  1 22  0.0000000  0  9G12G26G10G29G05G04G25G02G30
 -25059147.19548 -19504674.75846  21004758.7114                   21004756.4304
   5996746.88746   4683914.05343  24933320.6644                   24933324.6134
 -20723071.55947 -16127543.49845  22514749.5084                   22514747.9344
   -712940.46947   -545395.24244  23831074.1024                   23831073.5314
 -26866848.60548 -20912373.32047  20389267.7424                   20389265.2544
 -18553319.19946 -14432682.84043  24331266.6484                   24331267.1804
 -14552821.58248 -11317246.40046  21982099.4384                   21982100.0044
 -29368176.32048 -22861412.04146  21316461.3054                   21316457.3794
 -12052735.31247  -9368803.53645  22054909.2734                   22054907.6884
 11  8 25  1 22 30.0000000  0  9G12G26G10G29G05G04G25G02G30
 -25064268.23848 -19508665.18846  21003784.0084                   21003782.1524
   5872753.67646   4587296.31343  24909724.9924                   24909728.8874
 -20667112.87147 -16083939.35745  22525397.9844                   22525396.9964
   -828716.72747   -635610.48444  23809042.7194                   23809041.8874
 -26909139.52048 -20945327.26647  20381220.2344                   20381217.9844
 -18506995.93046 -14396586.78243  24340081.3984                   24340082.4304
 -14623579.71948 -11372382.61146  21968635.2664                   21968635.4494
 -29369647.32848 -22862558.28546  21316181.3444                   21316177.3984
 -12116829.56647  -9418747.09245  22042712.7504                   22042710.8364
 11  8 25  1 23  0.0000000  0  9G12G26G10G29G05G04G25G02G30
 -25068839.50848 -19512227.24846  21002914.3204                   21002911.8754
   5748614.84846   4490565.16543  24886101.6254                   24886105.3284
 -20610821.88746 -16040076.27844  22536109.9614                   22536108.2894
   -944529.92247   -725854.49144  23787004.2974                   23787003.0984
 -26950861.80148 -20977838.11547  20373280.4224                   20373278.4924
 -18460738.29746 -14360541.92743  24348884.3284                   24348884.2304
 -14693798.81248 -11427098.80346  21955272.7664                   21955273.3794
 -29371016.54347 -22863625.21746  21315920.6724                   21315916.7664
 -12180343.21147  -9468238.23245  22030626.4534                   22030624.4344
 11  8 25  1 23 30.0000000  0  9G12G26G10G29G05G04G25G02G30
 -25072859.00847 -19515359.34146  21002149.4534                   21002147.4454
   5624336.14146   4393724.98443  24862452.3444                   24862454.7854
 -20554198.92246 -15995954.47845  22546884.5394                   22546883.7774
  -1060375.95747   -816124.10144  23764959.0784                   23764958.8364
 -26992012.79748 -21009903.79947  20365449.7034                   20365447.3444
 -18414543.85946 -14324546.24543  24357675.5784                   24357675.4924
 -14763474.87547 -11481391.83346  21942013.5944                   21942014.3444
 -29372280.95347 -22864610.47346  21315680.3284                   21315676.3324
 -12243272.64847  -9517274.14645  22018651.2894                   22018649.6564
 11  8 25  1 24  0.0000000  0  9G12G26G10G29G05G04G25G02G30
 -25076328.26647 -19518062.67846  21001489.3134                   21001486.9654
   5499920.02346   4296777.78943  24838776.0704                   24838779.1134
 -20497247.18446 -15951576.53545  22557722.3054                   22557721.1684
  -1176253.87547   -906418.51844  23742908.4924                   23742907.6294
 -27032593.10548 -21041524.79547  20357727.5394                   20357725.1994
 -18368413.14846 -14288600.29543  24366453.5944                   24366454.0084
 -14832607.01248 -11535261.03446  21928858.5474                   21928859.2464
 -29373442.20347 -22865515.33146  21315459.5634                   21315455.2934
 -12305617.33647  -9565854.42645  22006787.2734                   22006785.8714
 11  8 25  1 24 30.0000000  0  9G12G26G10G29G05G04G25G02G30
 -25079241.34448 -19520332.62446  21000934.9844                   21000932.6454
   5375376.17246   4199730.96443  24815076.1954                   24815078.9414
 -20439962.59846 -15906939.21345  22568623.0704                   22568622.1334
  -1292156.18747   -996731.94944  23720852.5634                   23720852.1484
 -27072596.41448 -21072696.18247  20350114.9304                   20350112.6334
 -18322339.96146 -14252699.09143  24375220.8984                   24375220.8164
 -14901187.26248 -11588700.18146  21915808.0704                   21915808.5394
 -29374494.27748 -22866335.12646  21315259.2894                   21315255.1024
 -12367369.72347  -9613973.14545  21995036.1724                   21995034.6724
 11  8 25  1 25  0.0000000  0  9G12G26G10G29G05G04G25G02G30
 -25081599.18447 -19522169.91746  21000486.5084                   21000484.1524
   5250708.64146   4102587.86143  24791351.7814                   24791354.5044
 -20382346.91447 -15862043.91145  22579587.3204                   22579586.2544
  -1408080.21947  -1087062.28144  23698793.3674                   23698792.3984
 -27112021.34448 -21103416.87647  20342612.6024                   20342610.4304
 -18276323.30146 -14216841.94142  24383977.8594                   24383977.7894
 -14969213.25048 -11641707.45746  21902863.3914                   21902863.4384
 -29375436.31647 -22867069.19046  21315079.5554                   21315075.5744
 -12428527.92247  -9661628.91445  21983398.5164                   21983396.4734
 11  8 25  1 25 30.0000000  0  9G12G26G10G29G05G04G25G02G30
 -25083406.19947 -19523578.00146  21000142.8754                   21000140.1954
   5125916.74246   4005347.76343  24767604.4304                   24767607.6914
 -20324406.68446 -15816895.71345  22590612.7194                   22590611.4614
  -1524028.45747  -1177411.48544  23676729.0784                   23676728.0394
 -27150871.91448 -21133690.02947  20335219.6804                   20335217.6214
 -18230366.96546 -14181031.80542  24392723.3524                   24392723.0784
 -15036687.54748 -11694284.84046  21890023.4924                   21890024.0474
 -29376272.84047 -22867721.03046  21314920.6954                   21314916.7274
 -12489094.71547  -9708823.81245  21971872.8284                   21971871.2034
 11  8 25  1 26  0.0000000  0  9G12G26G10G29G05G04G25G02G30
 -25084665.68747 -19524559.43846  20999903.2114                   20999900.4024
   5001000.85545   3908011.00842  24743833.4304                   24743836.8204
 -20266147.18746 -15771498.72845  22601699.0474                   22601698.0514
  -1640001.73447  -1267780.16244  23654659.9304                   23654659.5044
 -27189151.03548 -21163517.89347  20327935.4614                   20327933.3834
 -18184473.87146 -14145270.92642  24401456.8204                   24401455.7544
 -15103611.26247 -11746433.20046  21877288.1334                   21877288.6294
 -29377006.76247 -22868292.92446  21314781.0084                   21314777.0274
 -12549071.77047  -9755559.15645  21960459.3754                   21960458.0164
 11  8 25  1 26 30.0000000  0  9G12G26G10G29G05G04G25G02G30
 -25085375.85547 -19525112.82546  20999767.7114                   20999765.0944
   4875967.55545   3810582.84442  24720040.5634                   24720043.1564
 -20207567.53146 -15725852.26345  22612846.6414                   22612845.3054
  -1755995.37547  -1358164.72744  23632586.5234                   23632586.1684
 -27226855.34448 -21192897.85547  20320760.4774                   20320758.1454
 -18138640.50846 -14109556.63843  24410177.2504                   24410177.7664
 -15169979.64148 -11798148.82346  21864658.9224                   21864658.8954
 -29377634.80147 -22868782.30946  21314661.3594                   21314657.5124
 -12608454.74647  -9801831.62545  21949159.5704                   21949157.8244
 11  8 25  1 27  0.0000000  0  9G12G26G10G29G05G04G25G02G30
 -25085539.99647 -19525240.74146  20999736.4614                   20999733.8834
   4750817.75845   3713063.84042  24696224.3674                   24696227.1604
 -20148672.80947 -15679960.31145  22624053.8444                   22624052.8054
  -1872010.35947  -1448565.91144  23610509.7734                   23610508.7544
 -27263986.97348 -21221831.57547  20313694.4924                   20313692.3054
 -18092869.29746 -14073890.55243  24418887.5004                   24418887.2544
 -15235793.83248 -11849432.61646  21852134.9064                   21852134.8634
 -29378159.85947 -22869191.44846  21314561.8444                   21314557.4734
 -12667245.17247  -9847642.34245  21937971.6804                   21937970.3754
 11  8 25  1 27 30.0000000  0  9G12G26G10G29G05G04G25G02G30
 -25085157.93447 -19524943.03946  20999809.0394                   20999806.7424
   4625555.60945   3615457.31943  24672389.2114                   24672390.1294
 -20089464.43746 -15633823.92944  22635320.9694                   22635319.9304
  -1988043.62947  -1538981.35944  23588429.6174                   23588428.5474
 -27300545.10248 -21250318.39447  20306737.7664                   20306735.5634
 -18047158.93046 -14038272.25943  24427586.2504                   24427585.7344
 -15301051.27048 -11900282.56846  21839716.3914                   21839716.8484
 -29378580.88747 -22869519.53746  21314481.3364                   21314477.6094
 -12725440.95347  -9892989.69145  21926897.7274                   21926896.0474
 11  8 25  1 28  0.0000000  0  9G12G26G10G29G05G04G25G02G30
 -25084236.43048 -19524224.99346  20999984.4384                   20999982.0744
   4500178.62145   3517761.26242  24648528.8594                   24648532.3014
 -20029950.65647 -15587449.56244  22646646.2504                   22646644.7234
  -2104099.55947  -1629414.45745  23566344.6334                   23566343.5084
 -27336535.31648 -21278362.70647  20299888.9384                   20299886.9734
 -18001515.17646 -14002705.72843  24436272.1414                   24436271.5084
 -15365756.27348 -11950702.07646  21827403.5634                   21827403.7424
 -29378903.96548 -22869771.29246  21314419.8054                   21314415.8404
 -12783046.67247  -9937877.27145  21915935.4144                   21915934.2704
 11  8 25  1 28 30.0000000  0  9G12G26G10G29G05G04G25G02G30
 -25082769.64847 -19523082.05146  21000263.5394                   21000261.1994
   4374697.30546   3419983.89943  24624651.1094                   24624653.2194
 -19970127.28947 -15540833.96844  22658030.1024                   22658028.5904
  -2220169.67647  -1719858.60644  23544257.2814                   23544256.4574
 -27371951.09848 -21305959.40047  20293149.7894                   20293147.8524
 -17955930.93446 -13967185.50643  24444946.2894                   24444946.3874
 -15429900.61347 -12000684.66946  21815197.5864                   21815197.8674
 -29379122.41848 -22869941.52546  21314378.1884                   21314374.3914
 -12840054.71947  -9982299.13745  21905087.3834                   21905085.8984
 11  8 25  1 29  0.0000000  0  9G12G26G10G29G05G04G25G02G30
 -25080763.97348 -19521519.20846  21000645.2424                   21000643.0354
   4249109.26246   3322123.41643  24600752.8364                   24600754.6724
 -19910002.07047 -15493983.17444  22669471.8754                   22669470.1604
  -2336257.75847  -1810316.77744  23522166.1094                   23522165.5944
 -27406797.91048 -21333112.74047  20286518.4534                   20286516.2854
 -17910411.54747 -13931715.77943  24453608.2584                   24453608.5944
 -15493488.38747 -12050233.59346  21803097.2114                   21803097.1214
 -29379241.81248 -22870034.57546  21314355.7814                   21314351.8984
 -12896469.46147 -10026258.68445  21894351.7504                   21894350.1054
 11  8 25  1 29 30.0000000  0  9G12G26G10G29G05G04G25G02G30
 -25078216.96148 -19519534.53246  21001130.4064                   21001127.8594
   4123421.60246   3224185.22043  24576834.5394                   24576837.3364
 -19849573.79747 -15446896.21144  22680971.0634                   22680968.9964
  -2452358.25446  -1900784.59344  23500073.2894                   23500072.2664
 -27441071.88348 -21359819.70347  20279996.2034                   20279994.0044
 -17864953.27347 -13896293.83343  24462258.9774                   24462258.6254
 -15556514.52348 -12099344.87746  21791103.3594                   21791104.0864
 -29379258.58648 -22870047.64846  21314352.5314                   21314349.0124
 -12952286.39847 -10069752.40345  21883730.5944                   21883728.6914
 11  8 25  1 30  0.0000000  0  9G12G26G10G29G05G04G25G02G30
 -25075133.05948 -19517131.50846  21001716.8054                   21001714.3554
   3997634.18846   3126169.36043  24552897.4224                   24552900.1604
 -19788848.52347 -15399577.82744  22692526.4694                   22692524.3674
  -2568472.69946  -1991263.30344  23477977.2274                   23477976.3674
 -27474776.77348 -21386083.24447  20273582.5314                   20273580.3594
 -17819559.15247 -13860921.75643  24470896.9774                   24470897.0354
 -15618981.13748 -12148020.16246  21779216.6954                   21779216.9924
 -29379176.52048 -22869983.72546  21314368.3134                   21314364.0984
 -13007507.93047 -10112782.18145  21873221.9844                   21873220.4534
 11  8 25  1 30 30.0000000  0  9G12G26G10G29G05G04G25G02G30
 -25071511.03948 -19514309.16846  21002406.1884                   21002403.7344
   3871752.77046   3028080.16043  24528942.8284                   24528945.4304
 -19727826.64147 -15352028.32044  22704138.5944                   22704136.9614
  -2684597.54347  -2081750.13744  23455878.9144                   23455878.4184
 -27507910.70348 -21411901.87047  20267277.5084                   20267275.0394
 -17774226.82847 -13825597.92844  24479523.1644                   24479523.6414
 -15680884.74647 -12196256.75146  21767436.6884                   21767437.2464
 -29378993.55147 -22869841.15146  21314403.2894                   21314399.1254
 -13062131.19147 -10155345.78145  21862827.7814                   21862826.2664
 11  8 25  1 31  0.0000000  0  9G12G26G10G29G05G04G25G02G30
 -25067348.86748 -19511065.93246  21003198.0634                   21003196.0514
   3745783.70746   2929922.74643  24504971.4534                   24504974.1724
 -19666507.36747 -15304247.10744  22715806.9384                   22715805.7424
  -2800727.91847  -2172241.27144  23433780.9924                   23433779.6174
 -27540470.52048 -21437273.13847  20261081.6414                   20261079.1254
 -17728953.28147 -13790319.79244  24488139.0084                   24488138.9774
 -15742221.00447 -12244051.23346  21755764.4614                   21755765.4184
 -29378706.67647 -22869617.62446  21314457.4924                   21314453.6684
 -13116152.10547 -10197440.01445  21852547.5864                   21852546.0394
 11  8 25  1 31 30.0000000  0  9G12G26G10G29G05G04G25G02G30
 -25062655.57848 -19507408.84446  21004091.1954                   21004089.0594
   3619722.97346   2831693.84843  24480982.1724                   24480985.2734
 -19604900.78547 -15256241.98144  22727530.3284                   22727529.2734
  -2916869.36746  -2262741.05644  23411679.5784                   23411678.6804
 -27572463.66048 -21462202.83947  20254993.5084                   20254990.9454
 -17683745.66447 -13755093.08543  24496741.7974                   24496741.9144
 -15802995.93447 -12291408.32946  21744199.5944                   21744199.9414
 -29378323.32847 -22869318.91946  21314530.5704                   21314526.4344
 -13169577.25847 -10239070.02645  21842381.0474                   21842379.4104
 11  8 25  1 32  0.0000000  0  9G12G26G10G29G05G04G25G02G30
 -25057432.02748 -19503338.56446  21005085.2344                   21005083.1174
   3493574.16446   2733396.28143  24456977.4924                   24456979.9534
 -19543009.16846 -15208014.79844  22739308.3834                   22739306.7704
  -3033020.12946  -2353248.09645  23389576.3984                   23389575.4184
 -27603890.35948 -21486691.17047  20249012.7584                   20249011.0474
 -17638603.82046 -13719917.62743  24505331.2974                   24505331.8634
 -15863208.37548 -12338327.11546  21732741.6884                   21732742.2664
 -29377844.05547 -22868945.47746  21314622.1564                   21314617.9654
 -13222405.83247 -10280235.17545  21832328.5864                   21832327.1054
 11  8 25  1 32 30.0000000  0  9G12G26G10G29G05G04G25G02G30
 -25051674.91048 -19498852.51946  21006180.9534                   21006178.9414
   3367344.63746   2635035.80444  24432956.5554                   24432958.7234
 -19480830.50446 -15159563.91044  22751140.2274                   22751139.0594
  -3149174.21147  -2443757.74144  23367473.4924                   23367472.6914
 -27634746.75047 -21510735.09647  20243141.3594                   20243139.2704
 -17593522.83646 -13684789.58243  24513910.9144                   24513911.2234
 -15922852.71547 -12384803.22346  21721391.5864                   21721391.9574
 -29377263.87147 -22868493.40346  21314732.2894                   21314728.6684
 -13274632.71547 -10320931.46045  21822389.9384                   21822388.2234
 11  8 25  1 33  0.0000000  0  9G12G26G10G29G05G04G25G02G30
 -25045391.78948 -19493956.60446  21007376.5784                   21007374.4024
   3241032.09446   2536610.67343  24408920.0164                   24408922.4884
 -19418373.86346 -15110896.41944  22763025.7114                   22763024.0824
  -3265336.10947  -2534273.46945  23345368.2974                   23345367.2734
 -27665039.11348 -21534339.52247  20237376.7664                   20237374.4694
 -17548508.90246 -13649713.78643  24522476.1724                   24522476.4964
 -15981934.12148 -12430840.69046  21710148.8834                   21710149.2934
 -29376589.38747 -22867967.83446  21314860.9064                   21314856.4344
 -13326263.54347 -10361163.29946  21812564.8524                   21812563.2624
 11  8 25  1 33 30.0000000  0  9G12G26G10G29G05G04G25G02G30
 -25038582.09848 -19488650.36746  21008672.6024                   21008670.1954
   3114641.59446   2438124.76844  24384869.0554                   24384871.1724
 -19355639.71946 -15062012.69944  22774962.8754                   22774962.4184
  -3381501.75447  -2624792.12244  23323262.3134                   23323261.4304
 -27694765.59448 -21557502.99447  20231719.8054                   20231717.7274
 -17503559.94546 -13614688.67843  24531029.7034                   24531029.9304
 -16040449.32047 -12476436.94146  21699014.0784                   21699014.2194
 -29375818.76647 -22867367.35746  21315007.1334                   21315003.3794
 -13377295.47748 -10400928.46846  21802853.6724                   21802852.1024
 11  8 25  1 34  0.0000000  0  9G12G26G10G29G05G04G25G02G30
 -25031245.66448 -19482933.69146  21010068.6174                   21010066.4654
   2988178.14146   2339582.00543  24360803.3594                   24360805.0634
 -19292629.16846 -15012913.61844  22786953.8754                   22786952.7194
  -3497667.80947  -2715311.10945  23301156.8524                   23301155.4694
 -27723925.43448 -21580224.93547  20226170.7664                   20226169.0944
 -17458674.20746 -13579712.68443  24539570.9924                   24539571.5474
 -16098395.74647 -12521590.00946  21687987.0944                   21687987.3984
 -29374950.64147 -22866690.89646  21315172.3834                   21315168.3594
 -13427726.41047 -10440225.31645  21793256.7734                   21793255.7464
 11  8 25  1 34 30.0000000  0  9G12G26G10G29G05G04G25G02G30
 -25023383.19948 -19476807.12646  21011564.6564                   21011562.3874
   2861645.24646   2240985.16843  24336724.4064                   24336726.3554
 -19229344.69947 -14963601.07344  22798996.1954                   22798995.4144
  -3613832.57047  -2805829.08845  23279051.1644                   23279050.4064
 -27752518.82448 -21602505.48047  20220729.5784                   20220727.5634
 -17413851.37146 -13544785.80743  24548100.3754                   24548100.6804
 -16155772.35947 -12566299.05546  21677068.8444                   21677069.1604
 -29373985.34447 -22865938.71446  21315356.2344                   21315352.3094
 -13477555.76648 -10479053.40246  21783774.9694                   21783773.7544
 11  8 25  1 35  0.0000000  0  9G12G26G10G29G05G04G25G02G30
 -25014999.10548 -19470274.09446  21013160.0944                   21013158.0744
   2735043.73846   2142334.83743  24312633.1094                   24312634.5784
 -19165791.17247 -14914078.83544  22811090.1254                   22811089.5704
  -3729997.02746  -2896346.81145  23256946.1884                   23256945.2194
 -27780548.61348 -21624346.85747  20215396.1254                   20215393.8634
 -17369093.91046 -13509909.85942  24556616.9224                   24556617.7814
 -16212580.64148 -12610565.23846  21666258.2194                   21666258.2894
 -29372925.46948 -22865112.83846  21315557.5864                   21315554.1254
 -13526785.46948 -10517414.22945  21774406.7274                   21774405.7584
 11  8 25  1 35 30.0000000  0  9G12G26G10G29G05G04G25G02G30
 -25006092.03948 -19463333.53846  21014855.3754                   21014852.9144
   2608379.79346   2043635.87243  24288529.5554                   24288531.4694
 -19101968.74647 -14864347.11544  22823235.5394                   22823234.1954
  -3846156.85546  -2986860.95745  23234841.5234                   23234840.5984
 -27808012.57848 -21645747.32847  20210169.7734                   20210167.5704
 -17324398.90246 -13475082.65443  24565122.9304                   24565123.1764
 -16268816.88748 -12654385.69546  21655556.6484                   21655557.2854
 -29371768.16447 -22864211.03946  21315777.9774                   21315774.1644
 -13575412.23448 -10555305.23345  21765153.8834                   21765151.9654
 11  8 25  1 36  0.0000000  0  9G12G26G10G29G05G04G25G02G30
 -24996668.14548 -19455990.27346  21016648.5314                   21016645.9064
   2481651.80146   1944886.97143  24264413.7424                   24264415.8954
 -19037884.75047 -14814411.57044  22835430.1884                   22835429.0664
  -3962314.88346  -3077373.71444  23212737.2034                   23212736.5354
 -27834916.34448 -21666711.27947  20205050.3594                   20205048.0704
 -17279771.18746 -13440307.80543  24573615.3134                   24573615.7424
 -16324485.18748 -12697763.57346  21644963.7114                   21644964.0594
 -29370518.94948 -22863237.61846  21316015.9384                   21316011.9024
 -13623440.70348 -10592730.02645  21756014.1884                   21756012.3914
 11  8 25  1 36 30.0000000  0  9G12G26G10G29G05G04G25G02G30
 -24986729.62948 -19448245.99846  21018539.9064                   21018537.5164
   2354862.40247   1846090.24043  24240286.5864                   24240288.6804
 -18973542.10246 -14764274.45444  22847674.1804                   22847673.1054
  -4078470.36346  -3167884.44345  23190633.7034                   23190632.7384
 -27861260.71947 -21687239.34847  20200036.8754                   20200034.7304
 -17235211.20346 -13405585.66143  24582094.6954                   24582095.2774
 -16379585.16047 -12740698.60646  21634478.5554                   21634479.1054
 -29369178.34448 -22862192.98346  21316270.6414                   21316266.8594
 -13670871.02348 -10629688.71745  21746988.4844                   21746986.9064
 11  8 25  1 37  0.0000000  0  9G12G26G10G29G05G04G25G02G30
 -24976271.89548 -19440097.14546  21020529.7814                   21020527.6094
   2228021.44146   1747253.32443  24216149.0004                   24216150.0634
 -18908937.33246 -14713933.12344  22859968.1954                   22859966.7624
  -4194615.12946  -3258386.85845  23168532.2274                   23168530.9534
 -27887040.30147 -21707327.31347  20195131.2034                   20195128.9144
 -17190712.48446 -13370911.34243  24590562.4844                   24590562.8484
 -16434109.78547 -12783185.32346  21624102.8524                   21624102.9264
 -29367740.28548 -22861072.41946  21316544.8284                   21316540.6764
 -13717696.50448 -10666176.10345  21738077.8054                   21738076.0984
 11  8 25  1 37 30.0000000  0  8G12G26G10G29G05G25G02G30
 -24965301.72748 -19431548.98146  21022617.4454                   21022615.0314
   2101127.09846   1648374.84143  24192002.3134                   24192003.6764
 -18844078.41446 -14663393.71244  22872310.6564                   22872309.1804
  -4310752.62947  -3348883.60645  23146431.7734                   23146431.1334
 -27912260.71947 -21726979.55647  20190331.8674                   20190329.6414
 -16488063.28547 -12825226.98846  21613835.8284                   21613835.7894
 -29366210.05548 -22859880.00946  21316835.6724                   21316831.8794
 -13763921.88348 -10702195.87346  21729281.2894                   21729279.9804
 11  8 25  1 38  0.0000000  0  8G12G26G10G29G05G25G02G30
 -24953815.79748 -19422598.93146  21024803.1804                   21024800.6374
   1974187.61346   1549461.13243  24167846.3674                   24167847.4844
 -18778963.25846 -14612654.67944  22884701.5634                   22884700.1804
  -4426876.50047  -3439369.72345  23124334.2424                   23124333.2504
 -27936917.78548 -21746192.84147  20185639.8134                   20185637.2624
 -16541440.26648 -12866819.43846  21603678.3204                   21603678.7384
 -29364583.35548 -22858612.43846  21317145.1254                   21317141.4224
 -13809542.27048 -10737744.21046  21720600.0554                   21720598.7704
 11  8 25  1 38 30.0000000  0  8G12G26G10G29G05G25G02G30
 -24941810.47748 -19413244.14546  21027087.5554                   21027085.2114
   1847211.04346   1450518.59743  24143682.9694                   24143684.9144
 -18713589.64146 -14561714.17444  22897141.4064                   22897140.2664
  -4542979.72747  -3529839.75145  23102240.2504                   23102239.5784
 -27961007.09048 -21764963.70247  20181055.5394                   20181053.5664
 -16594234.92648 -12907958.12046  21593632.1024                   21593632.0704
 -29362855.30148 -22857265.89746  21317474.1254                   21317470.1214
 -13854552.33648 -10772816.96946  21712034.8984                   21712033.5164
 11  8 25  1 39  0.0000000  0  8G12G26G10G29G05G25G02G30
 -24929290.02048 -19403487.97446  21029470.0004                   21029467.7074
   1720198.65646   1351548.06943  24119513.9614                   24119515.4884
 -18647962.17246 -14510575.88544  22909630.2584                   22909628.8284
  -4659062.99247  -3620294.20445  23080150.2114                   23080149.6994
 -27984532.25848 -21783294.97647  20176579.0084                   20176576.6604
 -16646448.82448 -12948644.25846  21583695.9774                   21583696.2704
 -29361028.21948 -22855842.18146  21317821.8754                   21317817.9344
 -13898954.11348 -10807415.74345  21703585.4774                   21703583.8404
 11  8 25  1 39 30.0000000  0  8G12G26G10G29G05G25G02G30
 -24916258.83248 -19393333.82546  21031949.8754                   21031947.5944
   1593150.99646   1252550.03343  24095336.6254                   24095338.5664
 -18582086.51246 -14459244.23044  22922165.6804                   22922164.0434
  -4775127.65247  -3710734.18045  23058064.4224                   23058063.4384
 -28007496.42248 -21801189.11347  20172209.0314                   20172206.8714
 -16698084.24648 -12988879.63946  21573869.8204                   21573870.3284
 -29359105.68448 -22854344.08346  21318187.8364                   21318183.1374
 -13942750.43048 -10841542.72545  21695251.7664                   21695249.8834
 11  8 25  1 40  0.0000000  0  8G12G26G10G29G05G25G02G30
 -24902717.37148 -19382782.05446  21034526.8594                   21034524.5944
   1466072.38346   1153527.96343  24071154.2034                   24071155.7934
 -18515964.23046 -14407720.37744  22934748.7504                   22934746.6414
  -4891170.44147  -3801157.11345  23035982.5234                   23035980.9024
 -28029899.39548 -21818645.94247  20167945.8524                   20167943.3714
 -16749139.47748 -13028662.91646  21564154.5554                   21564154.6054
 -29357086.29748 -22852770.52146  21318571.9144                   21318567.8094
 -13985940.02048 -10875196.92545  21687032.9614                   21687031.6094
 11  8 25  1 40 30.0000000  0  8G12G26G10G29G05G25G02G30
 -24888674.64148 -19371839.67946  21037199.0554                   21037196.7734
   1338959.88346   1054479.43043  24046965.5234                   24046966.9144
 -18449604.58647 -14356011.57344  22947376.7114                   22947374.8834
  -5007196.56247  -3891567.03045  23013902.3284                   23013901.4344
 -28051748.60948 -21835671.28747  20163788.0314                   20163785.4614
 -16799620.34448 -13067998.66446  21554548.3834                   21554548.6604
 -29354976.78148 -22851126.75146  21318973.1094                   21318969.1024
 -14028529.19148 -10908383.27246  21678928.3754                   21678926.6884
 11  8 25  1 41  0.0000000  0  8G12G26G10G29G05G25G02G30
 -24874128.27748 -19360504.87146  21039967.1254                   21039964.8324
   1211820.30546    955409.79844  24022771.5704                   24022773.4614
 -18383006.71947 -14304117.18344  22960049.4384                   22960048.3674
  -5123200.64547  -3981959.78245  22991827.8834                   22991826.5274
 -28073041.21148 -21852262.90247  20159736.2814                   20159733.9654
 -16849522.72348 -13106883.62746  21545052.2424                   21545052.5434
 -29352773.77348 -22849410.11546  21319392.4924                   21319388.5124
 -14070514.29348 -10941098.91145  21670938.7344                   21670937.3054
 11  8 25  1 41 30.0000000  0  8G12G26G10G29G05G25G02G30
 -24859083.84048 -19348781.95146  21042829.9144                   21042827.8134
   1084653.40647    856318.85943  23998572.6414                   23998573.9924
 -18316177.04747 -14252042.10244  22972767.1254                   22972765.8324
  -5239184.64547  -4072336.85945  22969757.1254                   22969755.9534
 -28093781.57847 -21868424.20247  20155789.2734                   20155787.0044
 -16898849.78548 -13145320.30046  21535665.4454                   21535665.8524
 -29350481.02748 -22847623.55646  21319828.7584                   21319824.6684
 -14111899.02048 -10973346.73146  21663063.8054                   21663061.8364
 11  8 25  1 42  0.0000000  0  8G12G26G10G29G05G25G02G30
 -24843539.66848 -19336669.62846  21045787.9924                   21045785.6024
    957465.57847    757211.64143  23974369.2424                   23974370.9264
 -18249114.93447 -14199785.92544  22985528.6254                   22985527.1724
  -5355143.56247  -4162694.41445  22947690.5474                   22947689.2704
 -28113967.56248 -21884153.51947  20151948.2274                   20151946.0314
 -16947597.88348 -13183305.82346  21526389.5394                   21526389.5274
 -29348095.62148 -22845764.79046  21320282.5784                   21320278.4024
 -14152680.25048 -11005124.28746  21655303.1254                   21655301.4924
 11  8 25  1 42 30.0000000  0  8G12G26G10G29G05G25G02G30
 -24827500.14148 -19324171.30246  21048840.2974                   21048837.9184
    830258.34447    658089.28144  23950162.1564                   23950163.2854
 -18181825.30147 -14147352.44744  22998333.5234                   22998331.8714
  -5471077.88347  -4253032.73645  22925628.9924                   22925628.2544
 -28133602.30148 -21899453.29847  20148211.6804                   20148209.5004
 -16995768.76648 -13220841.57246  21517222.5314                   21517222.8714
 -29345620.54748 -22843836.16646  21320753.7974                   21320749.6724
 -14192860.25448 -11036433.36946  21647656.7734                   21647655.3524
 11  8 25  1 43  0.0000000  0  8G12G26G10G29G05G25G02G30
 -24810969.31248 -19311290.15946  21051985.8984                   21051983.9804
    703032.58646    558952.45344  23925952.1884                   23925953.2304
 -18114312.99647 -14094745.46844  23011180.6804                   23011179.3484
  -5586988.23047  -4343352.43445  22903572.1024                   22903570.8874
 -28152689.11348 -21914326.12747  20144579.6954                   20144577.2774
 -17043364.31248 -13257929.00946  21508165.5234                   21508165.5434
 -29343057.87548 -22841839.27546  21321241.5164                   21321237.1054
 -14232441.32847 -11067275.74145  21640125.0944                   21640123.4144
 11  8 25  1 43 30.0000000  0  8G12G26G10G29G05G25G02G30
 -23218531.95748 -18070429.89146  21355016.6484                   21355014.3874
   2151213.85547   1687405.58144  24201531.7664                   24201532.9224
 -16471165.00447 -12814370.44344  23323861.2424                   23323859.9304
  -4127451.09047  -3206050.70945  23181312.9694                   23181311.7814
 -26595810.67248 -20701174.07147  20440843.7814                   20440841.4264
 -15514964.61348 -12066968.22246  21799010.3134                   21799010.4884
 -27764989.68748 -21612175.74446  21621537.8834                   21621533.5474
 -12696004.39548  -9870052.14446  21932499.1414                   21932497.3134
 11  8 25  1 44  0.0000000  0  8G12G26G10G29G05G25G02G30
 -23201023.29348 -18056786.79646  21358348.6804                   21358346.4144
   2023962.49247   1588248.79144  24177316.6564                   24177317.8054
 -16403214.10947 -12761421.71744  23336792.1884                   23336790.3284
  -4243307.09447  -3296328.04645  23159266.0554                   23159264.4344
 -26613803.32048 -20715194.29347  20437419.5314                   20437417.1454
 -15561407.08248 -12103157.17946  21790172.3134                   21790172.4384
 -27762250.99648 -21610041.70646  21622059.0784                   21622055.0204
 -12734386.77048  -9899960.46646  21925195.1804                   21925193.8594
 11  8 25  1 44 30.0000000  0  8G12G26G10G29G05G25G02G30
 -23183028.84848 -18042765.16046  21361772.8134                   21361770.4574
   1896702.88747   1489085.64044  24153099.8834                   24153100.9384
 -16335048.66847 -12708305.78344  23349763.3444                   23349761.9344
  -4359133.75447  -3386582.54345  23137224.5784                   23137223.3244
 -26631251.07048 -20728789.92647  20434099.5554                   20434097.2544
 -15607272.89848 -12138896.79346  21781444.4774                   21781444.7584
 -27759425.39148 -21607839.93946  21622596.6484                   21622592.4344
 -12772170.52347  -9929402.35946  21918005.3914                   21918004.0124
 11  8 25  1 45  0.0000000  0  8G12G26G10G29G05G25G02G30
 -23164551.47348 -18028367.22246  21365289.0394                   21365286.8954
   1769437.83646   1389918.25844  24128881.5314                   24128882.5664
 -16266671.72347 -12655025.09644  23362774.7584                   23362773.6334
  -4474929.97747  -3476813.29745  23115189.6254                   23115188.4184
 -26648155.29748 -20741962.04047  20430882.8364                   20430880.5004
 -15652562.43048 -12174187.34546  21772826.2504                   21772826.3984
 -27756513.51248 -21605570.93846  21623150.8364                   21623146.8834
 -12809356.42648  -9958378.37546  21910929.0554                   21910927.6374
 11  8 25  1 45 30.0000000  0  8G12G26G10G29G05G25G02G30
 -23145589.93448 -18013592.00446  21368897.4064                   21368894.6604
   1642173.99646   1290751.78644  24104664.4844                   24104665.0594
 -16198083.14547 -12601579.47644  23375826.3914                   23375825.4804
  -4590690.95347  -3567016.58945  23093160.7974                   23093159.9384
 -26664514.13748 -20754709.17247  20427769.7194                   20427767.8914
 -15697272.30148 -12209026.23046  21764318.0944                   21764318.4964
 -27753512.43048 -21603232.42946  21623722.0944                   21623717.6644
 -12845941.67648  -9986886.36046  21903966.7344                   21903965.5744
 11  8 25  1 46  0.0000000  0  8G12G26G10G29G05G25G02G30
 -23126148.57448 -17998442.91846  21372596.8134                   21372594.3524
   1514912.88746   1191587.40744  24080447.0084                   24080448.0084
 -16129287.50847 -12547972.51044  23388918.3524                   23388917.3524
  -4706416.72747  -3657192.47045  23071139.1884                   23071137.6564
 -26680330.81648 -20767033.85147  20424760.0634                   20424757.6094
 -15741404.27748 -12243414.81146  21755919.9924                   21755920.6884
 -27750424.29348 -21600826.09146  21624309.5314                   21624305.0164
 -12881928.49248 -10014928.03846  21897118.7584                   21897117.2854
 11  8 25  1 46 30.0000000  0  8G12G26G10G29G05G25G02G30
 -23106229.37548 -17982921.46846  21376387.3364                   21376384.9654
   1387657.55147   1092427.57644  24056231.1804                   24056231.7114
 -16060287.72347 -12494206.42244  23402048.2664                   23402047.3324
  -4822105.79347  -3747339.71845  23049123.9384                   23049122.4024
 -26695606.55948 -20778937.01147  20421853.3914                   20421850.8134
 -15784958.27348 -12277353.01146  21747632.0704                   21747632.6884
 -27747249.48048 -21598352.21146  21624913.6564                   21624909.5274
 -12917317.37147 -10042503.79946  21890384.8444                   21890383.1414
 11  8 25  1 47  0.0000000  0  8G12G26G10G29G05G25G02G30
 -23085834.58248 -17967029.43446  21380268.4304                   21380265.9454
   1260411.02346    993274.56344  24032016.6954                   24032017.5314
 -15991086.98047 -12440283.82543  23415217.1254                   23415215.7504
  -4937756.66847  -3837457.26345  23027116.6724                   23027114.8714
 -26710342.98848 -20790419.92847  20419048.8834                   20419046.6024
 -15827934.49248 -12310840.98546  21739454.1414                   21739454.5274
 -27743988.29348 -21595811.03646  21625534.4454                   21625529.9384
 -12952109.02048 -10069614.19646  21883764.3834                   21883762.7194
 11  8 25  1 47 30.0000000  0  8G12G26G10G29G05G25G02G30
 -23064968.71548 -17950770.33246  21384239.0004                   21384236.7114
   1133174.45346    894129.33643  24007803.7504                   24007805.4304
 -15921690.17247 -12386208.43644  23428422.9534                   23428421.3364
  -5053370.15647  -3927545.65345  23005115.8914                   23005114.7774
 -26724543.35548 -20801485.13247  20416346.5554                   20416344.0864
 -15870335.09048 -12343880.43546  21731385.5474                   21731385.8794
 -27740643.44548 -21593204.66346  21626170.8914                   21626166.7664
 -12986306.10947 -10096261.29846  21877256.8284                   21877255.0394
 11  8 25  1 48  0.0000000  0  8G12G26G10G29G05G25G02G30
 -23043632.17648 -17934144.47646  21388299.2114                   21388296.7894
   1005952.96146    794995.87143  23983594.1724                   23983595.4804
 -15852098.31647 -12331981.00244  23441665.0944                   23441664.3524
  -5168942.41047  -4017601.92645  22983122.6414                   22983121.5944
 -26738207.36348 -20812132.39347  20413746.3594                   20413744.1094
 -15912158.22748 -12376469.92646  21723426.8914                   21723427.0594
 -27737213.32848 -21590531.85246  21626823.3364                   21626819.3484
 -13019907.35247 -10122444.11546  21870862.5004                   21870861.0904
 11  8 25  1 48 30.0000000  0  8G12G26G10G29G05G25G02G30
 -23021829.55148 -17917155.43946  21392447.8524                   21392445.5824
    878747.56646    695874.94343  23959387.2974                   23959388.6454
 -15782316.44547 -12277605.53044  23454944.8674                   23454942.8404
  -5284474.16447  -4107626.62045  22961138.0704                   22961137.2074
 -26751338.43748 -20822364.39247  20411247.6414                   20411245.1414
 -15953406.28548 -12408611.28746  21715577.6564                   21715578.0124
 -27733700.80148 -21587794.81146  21627491.8914                   21627487.6804
 -13052915.54747 -10148164.81846  21864581.5004                   21864579.6414
 11  8 25  1 49  0.0000000  0  8G12G26G10G29G05G25G02G30
 -22999562.79348 -17899804.73446  21396685.1254                   21396683.3634
    751561.78146    596769.26343  23935185.2734                   23935186.0234
 -15712347.25847 -12223084.08143  23468259.3134                   23468257.9024
  -5399963.89147  -4197618.59145  22939161.1484                   22939160.2814
 -26763938.30948 -20832182.46847  20408850.0704                   20408847.5824
 -15994079.28948 -12440304.55346  21707837.8594                   21707838.0904
 -27730106.00448 -21584993.67646  21628175.8674                   21628171.8834
 -13085331.32447 -10173423.89346  21858412.8834                   21858411.2814
 11  8 25  1 49 30.0000000  0  8G12G26G10G29G05G25G02G30
 -22976831.52048 -17882092.06946  21401010.9064                   21401008.8014
    624401.51646    497683.53944  23910987.3834                   23910988.0394
 -15642190.93747 -12168416.83644  23481609.8984                   23481608.7504
  -5515407.12547  -4287574.34245  22917193.3054                   22917192.0354
 -26776005.46948 -20841585.43647  20406553.5864                   20406551.1024
 -16034174.52748 -12471547.61746  21700208.1644                   21700208.3984
 -27726426.41848 -21582126.47246  21628875.9224                   21628872.0084
 -13117152.52347 -10198219.67346  21852357.5394                   21852355.9844
 11  8 25  1 50  0.0000000  0  8G12G26G10G29G05G25G02G30
 -22953637.23448 -17864018.62546  21405424.5164                   21405422.5314
    497271.43046    398621.26343  23886794.9774                   23886795.8874
 -15571849.03547 -12113604.94744  23494995.3204                   23494994.0904
  -5630800.82047  -4377491.46545  22895234.2424                   22895233.0044
 -26787540.11348 -20850573.46147  20404359.0704                   20404356.3554
 -16073691.00048 -12502339.67746  21692688.4224                   21692688.8054
 -27722661.23848 -21579192.56846  21629592.4694                   21629588.3444
 -13148378.57448 -10222551.68446  21846415.3444                   21846413.8634
 11  8 25  1 50 30.0000000  0  8G12G26G10G29G05G25G02G30
 -22929985.22748 -17845588.52146  21409925.4924                   21409923.5984
    370171.76246    299582.67743  23862608.7894                   23862609.0354
 -15501327.38747 -12058653.04844  23508415.3754                   23508413.7384
  -5746146.34447  -4467371.05045  22873284.6644                   22873283.4734
 -26798546.80548 -20859150.09047  20402264.2034                   20402261.5274
 -16112631.82048 -12532683.18746  21685278.0864                   21685278.5314
 -27718813.54748 -21576194.35446  21630324.7034                   21630320.6094
 -13179013.16047 -10246422.84146  21840585.8754                   21840584.1764
 11  8 25  1 51  0.0000000  0  8G12G26G10G29G05G25G02G30
 -22905877.72748 -17826803.48646  21414512.7114                   21414510.6414
    243105.81646    200570.42244  23838429.2814                   23838428.9304
 -15430628.88747 -12003563.34344  23521868.6334                   23521867.5864
  -5861442.16447  -4557211.92245  22851344.3364                   22851343.4534
 -26809027.29748 -20867316.69747  20400270.0084                   20400267.5274
 -16150997.33648 -12562578.38746  21677977.1484                   21677978.0634
 -27714883.62148 -21573132.08146  21631072.5004                   21631068.6254
 -13209057.18447 -10269833.79345  21834868.5164                   21834867.0514
 11  8 25  1 51 30.0000000  0  8G12G26G10G29G05G25G02G30
 -22881316.14848 -17807664.61346  21419186.8054                   21419184.7664
    116077.60946    101587.54643  23814256.2114                   23814256.2464
 -15359755.35947 -11948337.22044  23535355.3134                   23535354.6914
  -5976685.71947  -4647012.08045  22829414.4774                   22829412.9964
 -26818981.49648 -20875073.20547  20398375.4614                   20398373.0354
 -16188786.89548 -12592024.79846  21670786.4534                   21670786.6764
 -27710871.07048 -21570005.41146  21631836.3674                   21631832.0204
 -13238510.47748 -10292784.44546  21829263.6884                   21829262.3674
 11  8 25  1 52  0.0000000  0  8G12G26G10G29G05G25G02G30
 -22856303.07048 -17788173.92846  21423946.6724                   21423944.7734
    -10909.06246      2637.04443  23790090.7274                   23790091.1414
 -15288709.75047 -11892977.04944  23548874.7344                   23548873.3874
  -6091875.04347  -4736769.96645  22807494.8054                   22807493.4774
 -26828411.59848 -20882421.32947  20396581.1254                   20396578.5354
 -16226000.46948 -12621022.39546  21663705.0084                   21663704.9384
 -27706775.88347 -21566814.35546  21632615.3834                   21632611.4494
 -13267373.55148 -10315275.19246  21823771.5864                   21823770.0274
 11  8 25  1 52 30.0000000  0  8G12G26G10G29G05G25G02G30
 -22830838.19547 -17768331.19246  21428792.8054                   21428790.3754
   -137848.44946    -96276.61443  23765935.5394                   23765936.0944
 -15217492.18447 -11837482.87044  23562426.6254                   23562426.3834
  -6207005.89547  -4826482.30445  22785585.9774                   22785584.6764
 -26837316.43048 -20889360.14547  20394886.5394                   20394884.1214
 -16262635.85248 -12649569.44446  21656733.3754                   21656733.4574
 -27702596.06648 -21563557.34646  21633410.7194                   21633406.9534
 -13295644.72348 -10337304.69846  21818391.5944                   21818390.4184
 11  8 25  1 53  0.0000000  0  9G12G26G10G29G05G15G25G02G30
 -22804926.86347 -17748140.58946  21433723.3284                   21433721.0394
   -264740.14846   -195153.13643  23741788.9064                   23741789.0824
 -15146108.43747 -11781859.18144  23576010.6884                   23576010.1844
  -6322079.58647  -4916150.08345  22763688.0084                   22763686.2384
 -26845700.44148 -20895893.13847  20393291.0394                   20393288.5394
   7693881.88756   6006504.02854  24649079.1484                   24649083.8014
 -16298696.36748 -12677668.54146  21649871.1254                   21649871.7774
 -27698334.68747 -21560236.78446  21634221.8984                   21634217.8324
 -13323327.87547 -10358876.01546  21813123.2664                   21813122.0784
 11  8 25  1 53 30.0000000  0  9G12G26G10G29G05G15G25G02G30
 -22778575.19547 -17727606.84746  21438738.0864                   21438735.6134
   -391584.29346   -293992.61044  23717651.0314                   23717651.2814
 -15074564.89847 -11726111.01744  23589625.5004                   23589624.9534
  -6437097.81247  -5005774.66645  22741801.0394                   22741799.6254
 -26853568.80548 -20902024.31447  20391793.6334                   20391791.2034
   7568585.70746   5908871.13543  24625235.2814                   24625240.4064
 -16334185.77048 -12705322.60946  21643117.3204                   21643117.9804
 -27693995.20747 -21556855.36246  21635047.4384                   21635042.9804
 -13350427.25447 -10379992.42946  21807966.8594                   21807965.4144
 11  8 25  1 54  0.0000000  0  9G12G26G10G29G05G15G25G02G30
 -22751791.03147 -17706736.08246  21443834.9614                   21443832.8594
   -518382.98846   -392796.61444  23693521.3834                   23693522.5084
 -15002869.44947 -11670244.45044  23603268.4454                   23603267.8054
  -6552064.35247  -5095358.94245  22719923.5944                   22719922.1914
 -26860928.20348 -20907758.89947  20390393.1884                   20390391.0824
   7443146.25446   5811126.49843  24601365.1174                   24601369.3404
 -16369109.89548 -12732536.19146  21636471.7894                   21636472.0124
 -27689583.50047 -21553417.64846  21635886.7814                   21635883.0744
 -13376949.20347 -10400658.90446  21802920.1484                   21802918.4844
 11  8 25  1 54 30.0000000  0  9G12G26G10G29G05G15G25G02G30
 -22724575.25447 -17685529.01546  21449013.6484                   21449011.6684
   -645131.25446   -491561.38544  23669402.5084                   23669402.6414
 -14931023.45347 -11614260.59744  23616940.2274                   23616939.4264
  -6666976.18447  -5184900.61645  22698056.6174                   22698055.3754
 -26867779.03548 -20913097.20147  20389089.5784                   20389087.3164
   7317567.32046   5713273.24643  24577468.2504                   24577471.7274
 -16403467.65247 -12759308.46546  21629933.9454                   21629934.6804
 -27685098.64548 -21549922.95546  21636740.5394                   21636736.5864
 -13402893.18047 -10420875.01346  21797983.1024                   21797981.3954
 11  8 25  1 55  0.0000000  0  9G12G26G10G29G05G15G25G02G30
 -22696928.37947 -17663986.04246  21454274.6414                   21454272.9884
   -771824.07446   -590282.97344  23645293.4614                   23645293.9184
 -14859028.27747 -11558160.48743  23630640.6094                   23630640.0204
  -6781829.37947  -5274396.59045  22676200.3524                   22676199.4264
 -26874121.14148 -20918039.09347  20387882.5474                   20387880.2894
   7191852.98446   5615314.39643  24553544.8674                   24553547.8554
 -16437257.76647 -12785638.41346  21623503.8524                   21623504.3914
 -27680539.01248 -21546369.99146  21637608.2344                   21637604.3404
 -13428258.47348 -10440640.18545  21793155.9064                   21793154.0664
 11  8 25  1 55 30.0000000  0  9G12G26G10G29G05G15G25G02G30
 -22668844.67647 -17642102.67246  21459619.0004                   21459616.7274
   -898449.28546   -688951.81844  23621197.5004                   23621197.8134
 -14786877.94147 -11501939.47044  23644370.4694                   23644369.7664
  -6896613.44547  -5363838.68545  22654357.9304                   22654356.5164
 -26879947.70348 -20922579.25747  20386773.9064                   20386771.4964
   7066014.37546   5517258.72143  24529598.5084                   24529601.3914
 -16470471.76247 -12811519.44046  21617183.6884                   21617183.9964
 -27675895.70747 -21542751.81746  21638491.7584                   21638487.4614
 -13453037.15247 -10459948.24545  21788441.0084                   21788439.3984
 11  8 25  1 56  0.0000000  0  9G12G26G10G29G05G15G25G02G30
 -22640329.11347 -17619882.77946  21465045.6884                   21465043.5784
  -1025005.99646   -787567.29844  23597113.3674                   23597114.5354
 -14714577.55147 -11445601.53943  23658128.7734                   23658127.9804
  -7011329.21547  -5453227.58145  22632528.1414                   22632526.7154
 -26885262.77348 -20926720.85847  20385762.6884                   20385760.3524
   6940051.05146   5419105.82243  24505628.1414                   24505630.6994
 -16503112.96947 -12836954.14846  21610971.8204                   21610972.4384
 -27671171.76247 -21539070.80346  21639390.8444                   21639386.5744
 -13477232.95347 -10478802.12445  21783836.7194                   21783835.0594
 11  8 25  1 56 30.0000000  0  9G12G26G10G29G05G15G25G02G30
 -22611382.08647 -17597326.69746  21470554.1094                   21470551.9344
  -1151488.73847   -886125.18044  23573045.3674                   23573045.9774
 -14642127.91447 -11389147.29243  23671915.6954                   23671914.3674
  -7125973.27047  -5542560.57045  22610712.3284                   22610710.6094
 -26890066.03548 -20930463.65247  20384848.4304                   20384846.3364
   6813968.11346   5320859.79343  24481635.0234                   24481637.6844
 -16535179.67647 -12861941.17746  21604870.0164                   21604870.2974
 -27666365.37148 -21535325.55446  21640305.3054                   21640301.3954
 -13500844.93047 -10497201.06745  21779343.3284                   21779341.7504
 11  8 25  1 57  0.0000000  0  9G12G26G10G29G05G15G25G02G30
 -22582008.08648 -17574437.89046  21476143.5784                   21476141.6374
  -1277896.05147   -984624.26544  23548990.8594                   23548991.2344
 -14569533.58647 -11332580.25643  23685730.1024                   23685728.5204
  -7240545.31247  -5631837.44545  22588909.6804                   22588908.6564
 -26894361.03548 -20933810.39447  20384031.3204                   20384028.7074
   6687765.90245   5222520.75443  24457619.4064                   24457621.3284
 -16566674.22747 -12886482.38446  21598876.3364                   21598877.0044
 -27661478.45748 -21531517.57046  21641235.3914                   21641231.5474
 -13523875.75448 -10515147.16446  21774960.5164                   21774959.5514
 11  8 25  1 57 30.0000000  0  9G12G26G10G29G05G15G25G02G30
 -22552209.05547 -17551217.89546  21481814.4064                   21481812.1484
  -1404223.69147  -1083061.23644  23524951.4774                   23524951.6334
 -14496796.55947 -11275902.04243  23699571.2194                   23699570.2854
  -7355042.57447  -5721056.03945  22567121.9694                   22567120.0634
 -26898148.91048 -20936761.97447  20383310.2274                   20383307.9414
   6561447.61746   5124091.27643  24433581.5784                   24433583.7624
 -16597596.44547 -12910577.62546  21592992.2424                   21592992.7384
 -27656510.89848 -21527646.73846  21642180.3834                   21642176.5234
 -13546325.87948 -10532640.76545  21770688.5864                   21770687.3164
 11  8 25  1 58  0.0000000  0  9G12G26G10G29G05G15G25G02G30
 -22521986.80147 -17527668.11846  21487565.6564                   21487563.2704
  -1530467.55947  -1181432.93944  23500927.4144                   23500928.1294
 -14423918.93446 -11219114.29743  23713439.1174                   23713438.3204
  -7469463.16447  -5810214.90945  22545348.2034                   22545347.0044
 -26901430.73448 -20939319.22847  20382685.9614                   20382683.3094
   6435016.06645   5025573.50343  24409521.8284                   24409525.5124
 -16627946.33248 -12934226.87646  21587216.8834                   21587217.4384
 -27651461.82048 -21523712.38546  21643141.0634                   21643137.5204
 -13568195.85248 -10549682.28846  21766527.2584                   21766525.3914
 11  8 25  1 58 30.0000000  0  9G12G26G10G29G05G15G25G02G30
 -22491344.39147 -17503790.93746  21493396.3524                   21493394.3094
  -1656624.90647  -1279737.23944  23476921.1564                   23476920.7854
 -14350904.00046 -11162219.60043  23727333.2894                   23727332.3444
  -7583805.67647  -5899312.92445  22523589.6644                   22523588.1764
 -26904208.77048 -20941483.93147  20382157.4534                   20382154.7234
   6308473.89146   4926969.55943  24385441.1954                   24385444.9304
 -16657725.10548 -12957431.10546  21581550.2194                   21581550.1954
 -27646332.07448 -21519715.18446  21644117.7584                   21644113.3594
 -13589487.32848 -10566273.03945  21762475.4694                   21762474.2384
 11  8 25  1 59  0.0000000  0  9G12G26G10G29G05G15G25G02G30
 -22460278.57048 -17479583.82546  21499307.8444                   21499306.2424
  -1782686.20747  -1377966.65744  23452931.8914                   23452932.3444
 -14277748.39546 -11105215.25143  23741254.3914                   23741253.7734
  -7698062.21547  -5988343.94345  22501846.8134                   22501845.8874
 -26906478.87948 -20943252.84647  20381725.5634                   20381722.9144
   6181828.94146   4828285.48543  24361341.4694                   24361344.9884
 -16686927.24248 -12980186.02846  21575993.2894                   21575993.5554
 -27641115.75448 -21515650.52546  21645110.1804                   21645105.7934
 -13610195.43448 -10582409.21645  21758534.4534                   21758533.0944
 11  8 25  1 59 30.0000000  0  9G12G26G10G29G05G15G25G02G30
 -22428798.04348 -17455053.57046  21505298.4064                   21505296.4694
  -1908654.18747  -1476123.37844  23428960.9534                   23428961.4104
 -14204461.25847 -11048108.39743  23755200.4224                   23755200.1094
  -7812237.08647  -6077311.31945  22480120.5944                   22480119.2774
 -26908249.13748 -20944632.26147  20381388.4534                   20381385.8014
   6055077.78946   4729518.63643  24337220.5474                   24337224.5744
 -16715559.62148 -13002496.97846  21570544.7734                   21570544.9774
 -27635819.37148 -21511523.48046  21646118.2584                   21646113.8554
 -13630327.57448 -10598096.59346  21754703.6484                   21754702.3054
 11  8 25  2  0  0.0000000  0  9G12G26G10G29G05G15G25G02G30
 -22396906.73048 -17430203.21046  21511367.3594                   21511365.4734
  -2034526.56247  -1574205.62744  23405007.7274                   23405008.2274
 -14131046.33246 -10990902.00743  23769171.2504                   23769170.1134
  -7926329.60547  -6166214.52145  22458409.5634                   22458407.7504
 -26909522.19548 -20945624.25047  20381146.4384                   20381143.6414
   5928221.71946   4630670.11043  24313081.2894                   24313084.4264
 -16743624.17648 -13024365.46546  21565204.0864                   21565204.7114
 -27630444.08648 -21507334.94946  21647141.2664                   21647136.7274
 -13649886.10548 -10613337.00345  21750981.8284                   21750980.4924
 11  8 25  2  0 30.0000000  0  9G12G26G10G29G05G15G25G02G30
 -22364600.54748 -17405029.57846  21517515.1334                   21517512.9734
  -2160293.24647  -1672205.49644  23381075.2894                   23381075.0864
 -14057499.85546 -10933593.04744  23783166.9304                   23783165.3984
  -8040331.40247  -6255047.00545  22436715.1174                   22436713.7234
 -26910293.66448 -20946225.39047  20380999.2504                   20380997.0004
   5801269.67246   4531746.77744  24288922.6484                   24288925.8594
 -16771114.99648 -13045786.90346  21559972.5944                   21559973.1644
 -27624983.76648 -21503080.15846  21648180.1174                   21648175.7304
 -13668865.84048 -10628126.38745  21747370.0474                   21747368.6414
 11  8 25  2  1  0.0000000  0  9G12G26G10G29G05G15G25G02G30
 -22331883.53948 -17379535.82546  21523740.7584                   21523739.1414
  -2285952.07447  -1770121.32144  23357162.6884                   23357163.1564
 -13983825.68746 -10876184.61743  23797186.5864                   23797185.5944
  -8154241.65247  -6343808.18445  22415038.9694                   22415037.5354
 -26910566.58648 -20946438.05347  20380947.4384                   20380944.9614
   5674223.20746   4432749.82844  24264746.0944                   24264749.6914
 -16798033.98448 -13066762.75346  21554850.1884                   21554850.9184
 -27619439.44148 -21498759.91646  21649235.2274                   21649230.9384
 -13687269.06248 -10642466.56346  21743868.1414                   21743866.5474
 11  8 25  2  1 30.0000000  0  9G12G26G10G29G05G15G25G02G30
 -22298765.21547 -17353729.35446  21530042.8204                   21530041.0944
  -2411506.52347  -1867955.83144  23333270.8984                   23333270.9844
 -13910033.25446 -10818684.05443  23811228.7734                   23811227.0554
  -8268065.68447  -6432502.17845  22393378.6174                   22393377.5984
 -26910349.56648 -20946268.93447  20380988.4144                   20380986.1214
   5547078.05946   4333675.98844  24240550.9064                   24240554.5514
 -16824388.84048 -13087299.01846  21549835.2974                   21549835.6884
 -27613818.24247 -21494379.77146  21650304.6254                   21650300.7074
 -13705104.03948 -10656363.93345  21740473.6644                   21740472.5664
 11  8 25  2  2  0.0000000  0  9G12G26G10G29G05G15G25G02G30
 -22265242.88747 -17327608.07546  21536422.2424                   21536420.2814
  -2536947.35247  -1965701.79144  23309400.1254                   23309400.1054
 -13836119.75446 -10761089.13543  23825294.5394                   23825292.8984
  -8381795.78147  -6521122.95545  22371736.1414                   22371735.1484
 -26909638.84048 -20945715.11647  20381124.0234                   20381121.2114
   5419841.98846   4234531.33844  24216338.6334                   24216341.9774
 -16850174.64147 -13107391.87146  21544928.3674                   21544928.7704
 -27608114.82047 -21489935.55746  21651390.1884                   21651385.7154
 -13722366.45748 -10669815.17145  21737189.2814                   21737187.8324
 11  8 25  2  2 30.0000000  0  9G12G26G10G29G05G15G25G02G30
 -22231318.16047 -17301173.23746  21542877.6954                   21542875.9534
  -2662270.53547  -2063356.10444  23285551.6884                   23285551.6994
 -13762087.24646 -10703401.52243  23839382.2974                   23839380.4804
  -8495429.29747  -6609668.50245  22350112.9844                   22350111.0634
 -26908435.87548 -20944777.72247  20381352.9844                   20381350.5704
   5292518.78146   4135318.78744  24192110.0554                   24192112.6214
 -16875391.66048 -13127041.52946  21540129.8444                   21540130.3754
 -27602328.50447 -21485426.75446  21652491.1254                   21652486.9064
 -13739057.08248 -10682820.85045  21734013.3134                   21734011.6134
 11  8 25  2  3  0.0000000  0  9G12G26G10G29G05G15G25G02G30
 -22196994.59847 -17274427.60946  21549409.6024                   21549407.5904
  -2787472.57447  -2160916.01044  23261726.2974                   23261726.6914
 -13687938.79746 -10645623.53743  23853491.5864                   23853490.4184
  -8608964.81647  -6698137.69045  22328507.5944                   22328506.3714
 -26906743.14148 -20943458.70547  20381674.8204                   20381672.4414
   5165110.08246   4036039.56244  24167865.0554                   24167866.8094
 -16900041.07848 -13146248.89646  21535439.0314                   21535439.6094
 -27596459.85547 -21480853.79146  21653608.0004                   21653603.3754
 -13755177.55548 -10695382.27445  21730945.6334                   21730944.0434
 11  8 25  2  3 30.0000000  0  9G12G26G10G29G05G15G25G02G30
 -22162278.13747 -17247375.82346  21556016.0084                   21556013.8244
  -2912553.79347  -2258381.78744  23237924.2814                   23237923.8914
 -13613680.17646 -10587759.63643  23867623.0634                   23867621.6334
  -8722403.97747  -6786531.77445  22306920.9144                   22306919.7344
 -26904565.44148 -20941761.77747  20382089.6954                   20382086.7734
   5037615.21947   3936693.26044  24143603.9304                   24143605.2544
 -16924127.10248 -13165017.24446  21530855.7274                   21530855.9654
 -27590512.50447 -21476219.49346  21654739.6884                   21654735.5514
 -13770732.75848 -10707503.22146  21727985.4924                   21727983.8794
 11  8 25  2  4  0.0000000  0  9G12G26G10G29G05G15G25G02G30
 -22127169.68747 -17220018.60546  21562696.7424                   21562694.7584
  -3037508.92247  -2355749.30144  23214146.1644                   23214145.7114
 -13539312.59046 -10529810.94443  23881774.4924                   23881772.6604
  -8835743.16447  -6874847.95445  22285353.5554                   22285351.7424
 -26901903.42248 -20939687.47847  20382595.8834                   20382593.3204
   4910038.59446   3837283.22544  24119325.5314                   24119327.9884
 -16947648.97347 -13183345.99946  21526379.4924                   21526380.3324
 -27584484.64547 -21471522.46846  21655886.5164                   21655882.5594
 -13785722.37148 -10719183.44746  21725132.9304                   21725131.9064
 11  8 25  2  4 30.0000000  0  9G12G26G10G29G05G15G25G02G30
 -22091671.01647 -17192357.30946  21569451.9774                   21569450.0634
  -3162333.30547  -2453014.96244  23190392.7814                   23190392.7424
 -13464837.34046 -10471778.24343  23895946.8754                   23895945.2034
  -8948979.34847  -6963083.89245  22263805.0554                   22263803.5124
 -26898757.78148 -20937236.31147  20383194.6414                   20383191.9734
   4782383.73046   3737812.16943  24095033.3914                   24095035.7624
 -16970606.57448 -13201235.07246  21522011.0784                   21522011.3914
 -27578375.49647 -21466762.10146  21657049.4924                   21657044.9924
 -13800146.88748 -10730423.35746  21722388.3134                   21722386.6914
 11  8 25  2  5  0.0000000  0  9G12G26G10G29G05G15G25G02G30
 -22055785.45747 -17164394.55546  21576280.8444                   21576278.8954
  -3287024.11347  -2550176.49444  23166664.8134                   23166664.2304
 -13390257.87146 -10413664.40743  23910138.4694                   23910137.7544
  -9062111.05947  -7051238.42045  22242276.9844                   22242275.2384
 -26895131.18048 -20934410.36747  20383884.8444                   20383882.3874
   4654652.62946   3638281.77943  24070726.7664                   24070728.7624
 -16993001.43748 -13218685.64746  21517749.3984                   21517750.0234
 -27572185.61747 -21461938.83546  21658227.0704                   21658222.7624
 -13814008.28548 -10741224.45946  21719750.5394                   21719748.9264
 11  8 25  2  5 30.0000000  0  9G12G26G10G29G05G15G25G02G30
 -22019515.32048 -17136132.11846  21583182.8204                   21583180.9304
  -3411576.92247  -2647230.53444  23142963.1254                   23142962.4844
 -13315576.06646 -10355470.80643  23924349.9384                   23924348.7464
  -9175135.43747  -7139309.31745  22220768.7274                   22220767.1374
 -26891025.01248 -20931210.74147  20384665.9304                   20384663.6994
   4526848.47746   3538694.45243  24046406.3984                   24046408.4614
 -17014833.73048 -13235697.85646  21513594.7584                   21513595.3404
 -27565914.27047 -21457052.06846  21659420.6334                   21659416.5824
 -13827307.33648 -10751587.39846  21717219.5084                   21717218.2304
 11  8 25  2  6  0.0000000  0  9G12G26G10G29G05G15G25G02G30
 -21982862.74247 -17107571.69246  21590157.7424                   21590155.4774
  -3535987.90247  -2744174.07244  23119288.1094                   23119287.7154
 -13240794.16846 -10297199.15943  23938580.7734                   23938579.4494
  -9288050.50847  -7227295.04245  22199281.4694                   22199280.1804
 -26886440.55948 -20927638.42447  20385538.5704                   20385535.9384
   4398974.67246   3439052.81843  24022072.5944                   24022074.6134
 -17036104.03148 -13252272.15046  21509547.3204                   21509547.7624
 -27559561.40247 -21452101.78146  21660629.6254                   21660624.9654
 -13840045.13348 -10761512.98746  21714795.9694                   21714794.6884
 11  8 25  2  6 30.0000000  0  9G12G26G10G29G05G15G25G02G30
 -21945836.16847 -17078719.82246  21597203.1174                   21597201.3524
  -3660259.20347  -2841008.73944  23095639.8204                   23095639.6954
 -13165920.52746 -10238856.10243  23952828.4064                   23952827.2854
  -9400859.91047  -7315198.42845  22177815.0084                   22177813.2624
 -26881385.63747 -20923699.50947  20386500.3444                   20386497.8954
   4271027.92646   3339354.39243  23997725.0314                   23997726.4494
 -17056819.05148 -13268413.74546  21505605.1024                   21505605.8364
 -27553132.51647 -21447092.26346  21661852.7424                   21661848.5744
 -13852228.93048 -10771006.90046  21712477.6174                   21712475.9534
 11  8 25  2  7  0.0000000  0  9G12G26G10G29G05G15G25G02G30
 -21908433.80147 -17049575.14846  21604320.8364                   21604319.1994
  -3784382.51647  -2937728.09244  23072020.4614                   23072019.6844
 -13090953.10546 -10180439.95243  23967094.7114                   23967093.2504
  -9513557.05147  -7403014.34745  22156369.5084                   22156367.7664
 -26875858.05947 -20919392.29747  20387552.2274                   20387549.8874
   4143015.46146   3239604.64643  23973364.6724                   23973365.5274
 -17076975.25048 -13284119.90246  21501769.8204                   21501770.4804
 -27546623.00447 -21442019.92546  21663091.2034                   21663087.4654
 -13863855.72348 -10780066.79046  21710265.0234                   21710263.8914
 11  8 25  2  7 30.0000000  0  9G12G26G10G29G05G15G25G02G30
 -21870661.79747 -17020142.43746  21611508.5474                   21611506.9414
  -3908358.06246  -3034332.31544  23048428.5394                   23048428.1994
 -13015897.69146 -10121955.20543  23981377.2894                   23981375.8244
  -9626143.41047  -7490743.93845  22134944.8524                   22134942.9804
 -26869862.89148 -20914720.72347  20388693.0234                   20388690.3164
   4014936.66046   3139803.24843  23948991.5474                   23948993.0664
 -17096577.16048 -13299394.14246  21498039.6334                   21498040.5904
 -27540036.43047 -21436887.52045  21664345.0394                   21664340.6414
 -13874930.56248 -10788696.57545  21708157.3054                   21708156.0554
 11  8 25  2  8  0.0000000  0  9G12G26G10G29G05G15G25G02G30
 -20257100.02047 -15762821.60146  21918559.4454                   21918557.6644
  -2456753.34847  -1903211.67844  23324659.8364                   23324659.3634
 -11365334.93046  -8835802.46243  24295468.7734                   24295467.5634
  -8163188.68047  -6350779.18045  22413335.6414                   22413333.8404
 -25287977.84448 -19682083.01247  20689716.0554                   20689712.9964
   5462222.84846   4267558.93543  24224400.8524                   24224402.3714
 -15540200.53548 -12086633.15946  21794208.2664                   21794208.8134
 -25957948.41447 -20204091.64546  21965405.9144                   21965402.1604
 -12310030.01248  -9569293.59545  22005948.2274                   22005946.7154
 11  8 25  2  8 30.0000000  0  9G12G26G10G29G05G15G25G02G30
 -20218588.82047 -15732812.89246  21925887.6094                   21925885.9694
  -2580413.18447  -1999569.86944  23301127.7974                   23301127.9304
 -11290102.40647  -8777179.69743  24309785.1564                   24309784.1844
  -8275538.37947  -6438324.35745  22391956.3524                   22391954.1374
 -25281044.71548 -19676680.55947  20691035.1564                   20691032.2424
   5334028.00446   4167667.20243  24200006.5314                   24200007.4574
 -15558688.00848 -12101038.98846  21790689.8984                   21790690.9184
 -25951199.08647 -20198832.42646  21966690.6564                   21966686.5744
 -12319996.66848  -9577059.86646  22004051.4694                   22004050.2424
 11  8 25  2  9  0.0000000  0  9G12G26G10G29G05G15G25G02G30
 -20179712.52347 -15702519.70746  21933285.4924                   21933284.0354
  -2703910.38747  -2095801.32244  23277626.7814                   23277626.8324
 -11214785.72347  -8718491.42143  24324117.6094                   24324116.5314
  -8387767.12147  -6525775.29446  22370599.8834                   22370598.1454
 -25273646.10548 -19670915.40147  20692443.4384                   20692440.6994
   5205778.76446   4067733.00644  24175601.0394                   24175602.2234
 -15576620.46548 -12115012.34946  21787277.9384                   21787278.4844
 -25944368.78147 -20193510.11145  21967990.3364                   21967986.1214
 -12329412.20748  -9584396.69846  22002259.8204                   22002258.4654
 11  8 25  2  9 30.0000000  0  9G12G26G10G29G05G15G25G02G30
 -20140474.21947 -15671944.42446  21940752.5234                   21940750.9654
  -2827241.41047  -2191903.30944  23254158.1564                   23254157.5944
 -11139387.14846  -8659739.26743  24338465.2194                   24338464.4184
  -8499872.98447  -6613130.47645  22349266.9454                   22349265.3954
 -25265784.48447 -19664789.44547  20693939.0084                   20693936.3524
   5077477.90246   3967758.41544  24151185.8134                   24151187.3164
 -15593999.04748 -12128554.10446  21783971.0164                   21783971.4184
 -25937457.41847 -20188124.62145  21969305.6644                   21969301.7464
 -12338278.35248  -9591305.42145  22000572.9844                   22000571.4734
 11  8 25  2 10  0.0000000  0  9G12G26G10G29G05G15G25G02G30
 -20100881.46947 -15641092.96646  21948286.6334                   21948285.3914
  -2950407.12547  -2287876.47344  23230719.7344                   23230719.9774
 -11063914.08246  -8600929.07743  24352827.3054                   24352826.5234
  -8611858.79747  -6700392.11646  22327956.2814                   22327954.9414
 -25257466.36747 -19658307.79147  20695521.8364                   20695519.3054
   4949123.33846   3867742.03144  24126761.1414                   24126762.3014
 -15610829.62148 -12141668.84946  21780767.8444                   21780768.7544
 -25930469.89847 -20182679.79546  21970635.2194                   21970630.7384
 -12346601.39848  -9597790.95846  21998989.0234                   21998987.9454
 11  8 25  2 10 30.0000000  0  9G12G26G10G29G05G15G25G02G30
 -20060930.59847 -15609962.44446  21955889.7034                   21955887.6524
  -3073398.13747  -2383713.50944  23207315.5704                   23207315.3794
 -10988363.10246  -8542058.28243  24367204.5394                   24367203.3164
  -8723716.16847  -6787553.67546  22306670.9304                   22306668.8204
 -25248687.85547 -19651467.38847  20697192.3594                   20697189.4024
   4820723.80946   3767690.74944  24102326.9304                   24102328.2584
 -15627107.38348 -12154352.83146  21777670.5634                   21777671.3714
 -25923400.30947 -20177171.01645  21971980.2664                   21971976.5234
 -12354377.17248  -9603850.04045  21997509.3914                   21997508.2154
 11  8 25  2 11  0.0000000  0  9G12G26G10G29G05G15G25G02G30
 -20020624.03547 -15578554.76346  21963559.1884                   21963557.6994
  -3196209.93447  -2479410.91444  23183944.7734                   23183944.9344
 -10912736.02046  -8483128.06943  24381595.9924                   24381594.9884
  -8835442.51247  -6874613.13046  22285409.9064                   22285408.2664
 -25239450.62147 -19644269.54047  20698950.1484                   20698947.3014
   4692282.71546   3667607.09244  24077884.9224                   24077886.2344
 -15642832.74248 -12166606.35946  21774678.0864                   21774678.8134
 -25916247.62947 -20171597.50245  21973341.5234                   21973337.4064
 -12361606.48048  -9609483.32546  21996133.5634                   21996132.4454
 11  8 25  2 11 30.0000000  0  9G12G26G10G29G05G15G25G02G30
 -19979969.17247 -15546875.67346  21971295.5474                   21971293.7774
  -3318843.23447  -2574969.20344  23160609.3594                   23160608.1914
 -10837039.40245  -8424143.70443  24396000.1954                   24395999.9654
  -8947040.09447  -6961572.25145  22264173.8524                   22264172.3094
 -25229760.61348 -19636718.86647  20700793.8054                   20700791.1844
   4563798.55546   3567489.81244  24053435.2194                   24053436.1564
 -15658011.23048 -12178433.74946  21771789.8834                   21771790.5744
 -25909015.98847 -20165962.44245  21974717.4924                   21974714.0434
 -12368295.44947  -9614695.53345  21994860.6884                   21994859.8284
 11  8 25  2 12  0.0000000  0  9G12G26G10G29G05G15G25G02G30
 -19938967.10247 -15514926.03446  21979098.1414                   21979096.3404
  -3441293.15647  -2670384.60045  23137308.2504                   23137306.6764
 -10761274.34045  -8365106.05843  24410416.9694                   24410417.0664
  -9058505.16447  -7048428.10646  22242962.6094                   22242961.1374
 -25219618.80548 -19628816.15547  20702723.9924                   20702721.4614
   4435275.61646   3467342.21144  24028978.0634                   24028978.9804
 -15672642.61348 -12189834.83246  21769005.5394                   21769006.1054
 -25901703.90647 -20160264.71145  21976109.0554                   21976104.8444
 -12374444.33648  -9619486.88745  21993690.7504                   21993689.5314
 11  8 25  2 12 30.0000000  0  9G12G26G10G29G05G15G25G02G30
 -19897622.73847 -15482709.67146  21986965.7584                   21986963.7934
  -3563557.91447  -2765655.71045  23114040.4844                   23114040.1214
 -10685445.35946  -8306018.53843  24424847.1564                   24424846.6254
  -9169837.74647  -7135180.72846  22221776.6094                   22221774.8794
 -25209029.26648 -19620564.55846  20704739.1564                   20704736.5084
   4306714.25446   3367164.93244  24004513.1724                   24004514.6094
 -15686730.24648 -12200812.19846  21766324.7894                   21766325.0314
 -25894313.64547 -20154506.06545  21977515.6174                   21977511.1764
 -12380057.08647  -9623860.48545  21992622.7114                   21992621.5004
 11  8 25  2 13  0.0000000  0  9G12G26G10G29G05G15G25G02G30
 -19855933.19548 -15450224.34046  21994899.0234                   21994897.2424
  -3685628.22347  -2860775.32945  23090812.1644                   23090811.1914
 -10609548.85546  -8246878.47443  24439290.2974                   24439288.9184
  -9281029.77347  -7221823.83345  22200617.5554                   22200615.6724
 -25197988.32848 -19611961.21946  20706840.0634                   20706837.2544
   4178123.45446   3266964.39144  23980043.6254                   23980044.4494
 -15700269.56648 -12211362.32346  21763748.3834                   21763748.8874
 -25886839.34047 -20148681.93445  21978937.5784                   21978933.6844
 -12385129.62547  -9627813.12145  21991657.2114                   21991656.0204
 11  8 25  2 13 30.0000000  0  9G12G26G10G29G05G15G25G02G30
 -19813904.31647 -15417474.60446  22002896.7424                   22002894.9064
  -3807502.94147  -2955742.50544  23067619.2424                   23067618.9144
 -10533590.44146  -8187690.02742  24453744.0474                   24453743.8714
  -9392082.30147  -7308358.22346  22179484.8134                   22179483.1724
 -25186500.90648 -19603009.98046  20709026.0314                   20709023.3284
   4049503.06646   3166741.01944  23955567.8674                   23955568.5744
 -15713264.81648 -12221488.49646  21761275.4384                   21761276.0124
 -25879283.61348 -20142794.35445  21980375.8594                   21980371.7034
 -12389666.56647  -9631348.41145  21990794.2274                   21990792.8954
 11  8 25  2 14  0.0000000  0  9G12G26G10G29G05G15G25G02G30
 -19771540.44148 -15384463.80746  22010958.3754                   22010956.1334
  -3929180.18047  -3050555.83044  23044464.9534                   23044464.5084
 -10457573.65246  -8128456.19443  24468209.9384                   24468208.9184
  -9502994.49647  -7394783.27246  22158378.7344                   22158377.0594
 -25174570.61748 -19593713.63146  20711296.3284                   20711293.4774
                                  23931086.4614                   23931087.4344
 -15725718.69948 -12231192.83346  21758905.4844                   21758906.1954
 -25871647.78147 -20136844.34745  21981828.7504                   21981824.5704
 -12393671.33647  -9634469.03545  21990032.0864                   21990031.0394
 11  8 25  2 14 30.0000000  0  9G12G26G10G29G05G15G25G02G30
 -19728846.84048 -15351196.10146  22019082.8444                   22019080.4844
  -4050658.83247  -3145214.41045  23021348.5864                   23021347.4104
 -10381503.54346  -8069180.76943  24482685.9774                   24482684.8554
  -9613766.69147  -7481099.22246  22137299.4694                   22137297.5554
 -25162202.04348 -19584075.78046  20713649.9144                   20713647.4964
                                  23906599.2664                   23906600.4104
 -15737635.17248 -12240478.40346  21756637.8284                   21756638.6054
 -25863934.50447 -20130834.02045  21983296.5164                   21983292.1294
 -12397148.33247  -9637178.39145  21989370.2034                   21989368.7074
 11  8 25  2 15  0.0000000  0  9G12G26G10G29G05G15G25G02G30
 -19685822.68048 -15317670.80446  22027269.7894                   22027267.9924
  -4171931.83247  -3239712.73345  22998270.8444                   22998270.0394
 -10305379.46147  -8009863.31643  24497171.6724                   24497170.8054
  -9724393.38347  -7567301.80446  22116247.8204                   22116246.3984
 -25149394.23048 -19574095.65147  20716087.3444                   20716084.4694
                                  23882108.9144                   23882109.6484
 -15749012.24648 -12249343.66646  21754472.8134                   21754473.3674
 -25856140.08647 -20124760.43445  21984779.7194                   21984775.5824
 -12400096.11347  -9639475.34645  21988809.5944                   21988808.0394
 11  8 25  2 15 30.0000000  0  9G12G26G10G29G05G15G25G02G30
 -19642468.11347 -15283888.06346  22035520.5234                   22035518.2584
  -4292991.91047  -3334045.15945  22975233.9064                   22975233.2664
 -10229199.89147  -7950502.59143  24511668.2034                   24511667.2624
  -9834869.10247  -7653386.74146  22095225.0394                   22095223.1604
 -25136146.00848 -19563772.34746  20718607.8284                   20718605.4024
   3534767.00056   2765649.15353  23857615.5634                   23857615.6054
 -15759847.78148 -12257786.95846  21752410.7734                   21752411.2734
 -25848260.77347 -20118620.72045  21986279.2664                   21986274.9064
 -12402512.95347  -9641358.62045  21988349.6644                   21988348.2504
 11  8 25  2 16  0.0000000  0  9G12G26G10G29G05G15G25G02G30
 -19598788.92248 -15249852.36146  22043831.9534                   22043830.0634
  -4413838.48047  -3428211.21744  22952237.0554                   22952236.7854
 -10152970.05146  -7891102.71443  24526174.6484                   24526173.6724
  -9945194.15647  -7739354.28446  22074230.9614                   22074229.7304
 -25122462.14148 -19553109.58347  20721212.1804                   20721209.9454
   3406037.66856   2665340.79454  23833119.0084                   23833119.4694
 -15770146.08248 -12265811.61546  21750450.8284                   21750451.8874
 -25840299.52348 -20112417.15445  21987794.0704                   21987789.9224
 -12404403.71947  -9642831.94046  21987989.8134                   21987988.5944
 11  8 25  2 16 30.0000000  0  9G12G26G10G29G05G15G25G02G30
 -19554787.65247 -15215565.69746  22052205.2274                   22052203.5164
  -4534467.66447  -3522207.87144  22929282.2274                   22929281.5124
 -10076692.40246  -7831665.61743  24540689.3914                   24540688.5744
 -10055366.64847  -7825202.95246  22053265.7664                   22053264.3014
 -25108344.77348 -19542109.03646  20723898.6334                   20723896.2974
                                  23808620.0004                   23808620.4804
 -15779908.52348 -12273418.73946  21748593.0314                   21748593.8754
 -25832256.25448 -20106149.67445  21989324.6804                   21989320.4804
 -12405770.37547  -9643896.88145  21987729.5004                   21987728.5084
 11  8 25  2 17  0.0000000  0  9G12G26G10G29G05G15G25G02G30
 -19510469.84448 -15181032.37246  22060638.9454                   22060636.6054
  -4654878.52747  -3616034.42245  22906368.9064                   22906367.9494
 -10000372.19546  -7772195.33043  24555212.9224                   24555212.1334
 -10165387.09447  -7910933.14946  22032329.6954                   22032327.5664
 -25093799.03948 -19530774.68846  20726666.3914                   20726664.2814
                                  23784119.1954                   23784118.8794
 -15789139.30548 -12280611.57846  21746836.8524                   21746837.5084
 -25824133.52347 -20099820.28446  21990870.3834                   21990866.1054
 -12406617.57447  -9644557.05245  21987568.6334                   21987567.1604
 11  8 25  2 17 30.0000000  0  9G12G26G10G29G05G15G25G02G30
 -19465837.35947 -15146253.85046  22069132.0944                   22069130.1174
  -4775066.25447  -3709687.08144  22883497.6804                   22883496.8954
  -9924010.53546  -7712692.71143  24569743.9304                   24569743.1454
 -10275251.96147  -7996542.12246  22011422.9614                   22011421.0514
 -25078826.04348 -19519107.41746  20729515.5784                   20729513.2424
                                  23759615.9304                   23759615.5944
 -15797838.92248 -12287390.52546  21745181.4384                   21745181.8594
 -25815930.03948 -20093427.97046  21992431.4144                   21992427.1994
 -12406946.17647  -9644813.11645  21987505.8914                   21987504.1724
 11  8 25  2 18  0.0000000  0  9G12G26G10G29G05G15G25G02G30
 -19420889.32448 -15111229.43246  22077685.5554                   22077683.5354
  -4895023.37547  -3803160.09644  22860670.2504                   22860669.2664
  -9847605.66845  -7653156.51343  24584283.3204                   24584281.7704
 -10384955.23848  -8082025.17946  21990547.2584                   21990545.3404
 -25063423.85548 -19507105.71146  20732446.3984                   20732444.0634
                                  23735111.8834                   23735113.1804
 -15806004.74648 -12293753.52046  21743627.6334                   21743628.1604
 -25807641.75048 -20086969.55746  21994008.9064                   21994004.4924
 -12406754.28947  -9644663.62145  21987542.5474                   21987540.7464
 11  8 25  2 18 30.0000000  0  9G12G26G10G29G05G15G25G02G30
 -19375633.77048 -15075965.40646  22086297.5314                   22086295.2344
  -5014751.35547  -3896454.52344  22837887.2424                   22837886.3404
  -9771165.31245  -7593592.67143  24598828.8134                   24598828.2504
 -10494500.26248  -8167384.91346  21969701.2894                   21969699.6954
 -25047600.05548 -19494775.47346  20735458.0164                   20735455.5784
                                  23710608.6414                   23710608.8054
 -15813643.75448 -12299706.02346  21742174.1804                   21742174.7624
 -25799273.75448 -20080449.05345  21995601.0864                   21995596.8244
 -12406049.26248  -9644114.27245  21987676.4614                   21987674.7814
 11  8 25  2 19  0.0000000  0  8G12G26G29G05G15G25G02G30
 -19330072.98847 -15040463.51346  22094967.3754                   22094965.2974
  -5134245.90647  -3989567.04544  22815147.8444                   22815147.0274
 -10603883.94148  -8252618.92546  21948886.6334                   21948884.5314
 -25031356.14148 -19482117.87046  20738548.7974                   20738546.5004
                                  23686103.8134                   23686103.8714
 -15820756.58648 -12305248.50846  21740820.5004                   21740821.3754
 -25790824.91448 -20073865.54245  21997208.9534                   21997204.5944
 -12404832.30147  -9643166.03145  21987908.3524                   21987906.9534
 11  8 25  2 19 30.0000000  0  8G12G26G29G05G15G25G02G30
 -19284209.00447 -15004725.37846  22103694.7114                   22103692.8284
  -5253501.92647  -4082493.74945  22792454.1724                   22792453.2974
 -10713102.72348  -8337724.45346  21928102.4844                   21928100.9344
 -25014693.14548 -19469133.72046  20741719.5084                   20741716.9344
   2504711.93056   1963010.55354  23661601.2814                   23661601.3484
 -15827343.77748 -12310381.40946  21739566.7344                   21739567.6994
 -25782294.19948 -20067218.23345  21998832.3204                   21998827.9184
 -12403104.35547  -9641819.60245  21988236.8054                   21988236.0664
 11  8 25  2 20  0.0000000  0  9G12G26G21G29G05G15G25G02G30
 -19238035.36347 -14968745.94446  22112481.7504                   22112479.7544
  -5372506.66847  -4175224.61545  22769808.0704                   22769807.7814
   9323937.94956   7273570.78653  25172134.0474                   25172132.7344
 -10822145.18448  -8422692.59646  21907352.6564                   21907350.9884
 -24997604.07048 -19455817.56046  20744972.1024                   20744969.3714
   2375962.23447   1862686.32444  23637100.6724                   23637100.7854
 -15833397.60548 -12315098.68846  21738414.9844                   21738415.6254
 -25773671.82848 -20060499.52345  22000473.0164                   22000468.5904
 -12400858.27347  -9640069.43445  21988664.6564                   21988663.4924
 11  8 25  2 20 30.0000000  0  9G12G26G21G29G05G15G25G02G30
 -19191558.06247 -14932529.89746  22121326.1484                   22121324.0314
  -5491259.42647  -4267759.16245  22747210.2034                   22747209.1684
   9235932.50446   7204995.15743  25155386.3524                   25155386.0204
 -10931012.15248  -8507523.98746  21886635.9534                   21886633.9454
 -24980094.61748 -19442173.82346  20748303.7734                   20748301.1804
   2247228.09846   1762374.19545  23612603.6644                   23612603.2154
 -15838922.84848 -12319404.08446  21737363.8054                   21737363.9344
 -25764961.14147 -20053711.97145  22002130.3284                   22002126.5474
 -12398099.27047  -9637919.59845  21989189.3364                   21989188.3914
 11  8 25  2 21  0.0000000  0  9G12G26G21G29G05G15G25G02G30
 -19144787.68047 -14896085.47346  22130225.7974                   22130224.2504
  -5609764.34047  -4360100.53845  22724659.3134                   22724658.4344
   9147928.34846   7136420.47143  25138640.2584                   25138638.8634
 -11039709.14548  -8592222.91746  21865951.6724                   21865949.8874
 -24962174.20748 -19428209.86246  20751714.1094                   20751711.4694
   2118504.71547   1662070.41845  23588107.6804                   23588108.2034
 -15843928.68048 -12323304.74046  21736411.2344                   21736411.6134
 -25756169.50448 -20046861.34645  22003803.6094                   22003799.1334
 -12394837.11347  -9635377.69845  21989810.3914                   21989809.1174
 11  8 25  2 21 30.0000000  0  9G12G26G21G29G05G15G25G02G30
 -19097725.92647 -14859413.99746  22139181.3754                   22139179.8444
  -5728016.64547  -4452245.11645  22702156.8284                   22702155.9774
   9059925.52746   7067846.95843  25121893.8984                   25121892.8404
 -11148232.91048  -8676786.86246  21845300.1724                   21845298.3714
 -24943844.47348 -19413926.95446  20755201.9384                   20755199.3204
   1989796.26546   1561778.60345  23563615.3754                   23563615.2544
 -15848415.87148 -12326801.27546  21735557.2894                   21735558.0434
 -25747295.43747 -20039946.49645  22005492.2194                   22005487.9144
 -12391072.89847  -9632444.57345  21990526.8364                   21990525.3874
 11  8 25  2 22  0.0000000  0  9G12G26G21G29G05G15G25G02G30
 -19050383.27347 -14822523.64746  22148190.4534                   22148188.6254
  -5846019.63347  -4544195.39845  22679701.6024                   22679700.7854
   8971916.94146   6999268.93843  25105145.8984                   25105144.8594
 -11256588.01648  -8761219.37546  21824680.9924                   21824679.0824
 -24925114.74648 -19399332.35646  20758766.0314                   20758763.3054
   1861098.53546   1461494.71544  23539125.0784                   23539124.6134
 -15852392.92648 -12329900.28346  21734800.3284                   21734801.3134
 -25738345.86347 -20032972.80945  22007195.4224                   22007191.0394
 -12386815.61347  -9629127.23645  21991337.0864                   21991335.3754
 11  8 25  2 22 30.0000000  0  9G12G26G21G29G05G15G25G02G30
 -19002757.21947 -14785412.46546  22157253.3444                   22157251.7934
  -5963764.35947  -4635944.46245  22657295.1884                   22657294.1644
   8883906.89146   6930689.74043  25088397.9694                   25088397.0784
 -11364767.13348  -8845514.74546  21804094.6564                   21804093.3164
 -24905981.57848 -19384423.39546  20762406.8284                   20762404.1684
   1732419.74247   1361225.73444  23514637.8284                   23514638.1334
 -15855856.53948 -12332599.20246  21734141.2584                   21734141.5434
 -25729315.44147 -20025936.11245  22008914.1334                   22008909.6604
 -12382062.53947  -9625423.57345  21992241.4534                   21992240.2464
 11  8 25  2 23  0.0000000  0  9G12G26G21G29G05G15G25G02G30
 -18954849.75847 -14748082.00746  22166369.6564                   22166368.1994
  -6081246.17647  -4727488.61745  22634939.3054                   22634938.4224
   8795895.53546   6862109.48543  25071649.1954                   25071649.1564
 -11472766.89148  -8929670.34446  21783543.0944                   21783541.7814
 -24886446.78148 -19369201.47146  20766124.5474                   20766121.9144
   1603763.80146   1260974.48444  23490155.2424                   23490155.2624
 -15858807.41848 -12334898.58846  21733579.3594                   21733580.2704
 -25720202.90248 -20018835.42845  22010647.8364                   22010643.8794
 -12376814.90648  -9621334.54045  21993240.1484                   21993238.8524
 11  8 25  2 23 30.0000000  0  9G12G26G21G29G05G15G25G02G30
 -18906660.67248 -14710532.09046  22175540.1334                   22175538.7424
  -6198458.34847  -4818822.70345  22612634.4534                   22612633.5664
   8707885.59446   6793530.31243  25054902.5474                   25054901.3014
 -11580582.33648  -9013682.33346  21763026.5474                   21763024.7154
 -24866509.37548 -19353665.81046  20769918.5314                   20769915.6484
   1475136.46946   1160745.71644  23465678.2664                   23465677.9774
 -15861244.27048 -12336797.42946  21733116.1174                   21733116.6094
 -25711005.00848 -20011668.24645  22012398.0234                   22012393.6954
 -12371071.82047  -9616859.40745  21994332.7504                   21994331.4184
 11  8 25  2 24  0.0000000  0  9G12G26G21G29G05G15G25G02G30
 -18858196.49647 -14672767.82946  22184762.4694                   22184760.7624
  -6315400.21947  -4909946.14045  22590381.0944                   22590380.4414
   8619873.53946   6724949.57343  25038154.6724                   25038153.0594
 -11688213.92648  -9097551.05146  21742545.3524                   21742543.4774
 -24846175.00048 -19337820.83946  20773787.6954                   20773785.5594
   1346538.16157   1060539.54454  23441207.1024                   23441206.3914
 -15863171.90648 -12338299.48446  21732749.2344                   21732749.4184
 -25701724.75848 -20004436.89245  22014164.1174                   22014159.9264
 -12364838.60548  -9612002.37245  21995518.8754                   21995517.8364
 11  8 25  2 24 30.0000000  0  9G12G26G21G29G05G15G25G02G30
 -18809459.02747 -14634790.62245  22194037.0394                   22194035.4414
  -6432067.03547  -5000855.27245  22568179.9144                   22568179.2624
   8531859.85246   6656367.46643  25021405.4144                   25021404.1484
 -11795658.25048  -9181273.85046  21722099.0314                   21722096.9224
 -24825444.88348 -19321667.50446  20777732.5084                   20777730.0354
   1217972.36747    960358.49444  23416741.6484                   23416741.0164
 -15864591.00448 -12339405.27646  21732479.3364                   21732479.8954
 -25692360.49648 -19997140.06845  22015945.9064                   22015941.8094
 -12358116.26248  -9606764.20045  21996798.1954                   21996796.6994
 11  8 25  2 25  0.0000000  0  9G12G26G21G29G05G15G25G02G30
 -18760453.93747 -14596604.86645  22203362.2034                   22203360.7584
  -6548458.00847  -5091549.44545  22546031.8984                   22546030.4844
   8443841.34446   6587781.58943  25004656.2584                   25004655.3164
 -11902915.93748  -9264851.20746  21701688.4064                   21701686.6174
 -24804323.83648 -19305209.54346  20781751.1884                   20781749.2464
   1089439.40246    860203.09744  23392281.8914                   23392281.9184
 -15865506.14548 -12340118.36846  21732305.1174                   21732305.4774
 -25682915.18748 -19989780.10046  22017743.3204                   22017739.1134
 -12350910.00848  -9601148.94745  21998169.8054                   21998168.4104
 11  8 25  2 25 30.0000000  0  9G12G26G21G29G05G15G25G02G30
 -18711178.65647 -14558208.56946  22212739.1174                   22212737.4614
  -6664563.75047  -5182021.37645  22523937.4144                   22523936.5394
   8355822.41846   6519195.43943  24987906.8134                   24987905.0204
 -12009979.18748  -9348277.05546  21681315.0004                   21681312.9884
 -24782808.99248 -19288444.72546  20785846.0164                   20785843.3524
    960947.89546    760080.04744  23367830.9144                   23367830.7384
 -15865913.65248 -12340435.91046  21732227.4224                   21732227.7384
 -25673382.67248 -19982352.16645  22019557.5394                   22019553.7384
 -12343216.70748  -9595154.16045  21999633.4224                   21999631.8794
 11  8 25  2 26  0.0000000  0  9G12G26G21G29G05G15G25G02G30
 -18661639.02347 -14519606.29346  22222165.9924                   22222164.1884
  -6780383.76247  -5272270.65545  22501897.0234                   22501896.5164
   8267800.02345   6450606.66042  24971155.6724                   24971154.7734
 -12116848.38748  -9431551.70746  21660978.4774                   21660976.5084
 -24760905.25448 -19271376.86546  20790014.4614                   20790011.7854
    832498.33646    659989.73844  23343387.9844                   23343387.2304
 -15865818.27048 -12340361.58946  21732245.9454                   21732245.9964
 -25663765.50847 -19974858.26845  22021387.0944                   22021383.1764
 -12335041.36748  -9588783.77045  22001189.3594                   22001188.0234
 11  8 25  2 26 30.0000000  0  9G12G26G21G29G05G15G25G02G30
 -18611836.78147 -14480799.38745  22231643.1564                   22231641.5824
  -6895912.81647  -5362293.18645  22479912.8444                   22479912.0044
   8179774.73445   6382015.47742  24954406.5634                   24954404.1884
 -12223520.12148  -9514672.48146  21640679.4614                   21640677.6174
 -24738613.77748 -19254006.89746  20794255.9144                   20794253.4064
    704094.25046    559934.68444  23318952.1254                   23318952.1024
 -15865220.53548 -12339895.82846  21732359.2034                   21732359.5824
 -25654062.37148 -19967297.37145  22023233.6884                   22023229.5514
 -12326385.12948  -9582038.66545  22002836.4064                   22002835.0704
 11  8 25  2 27  0.0000000  0  9G12G26G21G29G05G15G25G02G30
 -18561777.28147 -14441792.00746  22241169.1484                   22241167.6294
  -7011149.32847  -5452087.79145  22457983.9844                   22457982.4654
   8091743.91045   6313420.09842  24937653.5554                   24937651.6374
 -12329994.26248  -9597639.29446  21620417.9924                   21620416.4384
 -24715939.26248 -19236338.43246  20798570.7504                   20798568.2894
    575736.56646    459915.90844  23294526.7424                   23294526.7154
 -15864124.66048 -12339041.89346  21732568.2814                   21732568.3484
 -25644275.58648 -19959671.31245  22025096.2814                   22025092.4264
 -12317252.61748  -9574922.40145  22004574.4844                   22004573.2034
 11  8 25  2 27 30.0000000  0  9G12G26G21G29G05G15G25G02G30
 -18511460.68747 -14402584.29346  22250744.2114                   22250742.7074
  -7126087.23447  -5541649.71145  22436112.0474                   22436110.6994
   8003709.71945   6244822.05142  24920900.6884                   24920899.7664
 -12436265.66448  -9680448.12046  21600195.2424                   21600193.3594
 -24692881.00848 -19218370.96246  20802958.5234                   20802955.8634
    447431.47046    359938.13344  23270111.3364                   23270111.2274
 -15862529.61748 -12337799.01846  21732871.8834                   21732872.4694
 -25634401.43448 -19951977.15545  22026975.1644                   22026970.9654
 -12307643.25048  -9567434.59745  22006403.2034                   22006401.1804
 11  8 25  2 28  0.0000000  0  9G12G26G21G29G05G15G25G02G30
 -18460891.46547 -14363179.74445  22260366.9454                   22260365.5984
  -7240723.84847  -5630976.87445  22414297.3134                   22414295.9224
   7915669.82045   6176219.56342  24904147.7734                   24904146.3874
 -12542333.28148  -9763098.18446  21580010.9774                   21580009.2894
 -24669443.14848 -19200107.69546  20807418.4454                   20807416.0234
    319180.22946    260002.26844  23245705.4144                   23245705.5514
 -15860438.98448 -12336169.96246  21733269.5944                   21733270.1764
 -25624441.35548 -19944216.05445  22028870.6644                   22028866.3014
 -12297561.09047  -9559578.36445  22008321.4064                   22008319.9844
 11  8 25  2 28 30.0000000  0  9G12G26G21G29G05G15G25G02G30
 -18410076.25447 -14323583.50245  22270036.9614                   22270035.3554
  -7355059.33247  -5720069.37445  22392539.5864                   22392538.3634
   7827620.38346   6107609.69942  24887393.2114                   24887390.8014
 -12648198.89548  -9845590.81946  21559865.3054                   21559863.3714
 -24645631.58648 -19181553.22246  20811949.9774                   20811947.0744
    190982.21146    160107.81044  23221310.1414                   23221309.9064
 -15857858.19548 -12334158.97646  21733760.6724                   21733761.3554
 -25614398.58248 -19936390.52445  22030781.7974                   22030777.8674
 -12287012.04747  -9551358.33245  22010329.1804                   22010327.8674
 11  8 25  2 29  0.0000000  0  9G12G26G21G29G05G15G25G02G30
 -18359013.32447 -14283794.23945  22279754.0474                   22279752.6564
  -7469085.16847  -5808920.57445  22370841.4844                   22370840.3324
   7739565.85246   6038995.85242  24870637.0084                   24870634.9494
 -12753855.20348  -9927920.37346  21539759.6174                   21539758.0634
 -24621443.82448 -19162705.61146  20816552.8364                   20816549.9964
     62845.48846     60261.22744  23196926.8524                   23196926.5554
 -15854784.40648 -12331763.82846  21734345.2344                   21734346.1454
 -25604268.09048 -19928496.61745  22032709.5944                   22032705.4804
 -12275993.63348  -9542772.55845  22012425.8204                   22012424.2854
 11  8 25  2 29 30.0000000  0  9G12G26G21G29G05G15G25G02G30
 -18307702.40247 -14243811.74445  22289517.9694                   22289516.4064
  -7582794.28147  -5897525.01945  22349203.3054                   22349202.1454
   7651508.70746   5970380.01243  24853879.6724                   24853878.6334
 -12859295.95348 -10010081.96446  21519695.0784                   21519692.9384
 -24596878.77048 -19143564.02146  20821227.3054                   20821224.6804
    -65223.99646    -39533.03844  23172555.4614                   23172555.3284
 -15851216.24648 -12328983.46346  21735024.0864                   21735025.3164
 -25594046.35247 -19920531.62245  22034654.7504                   22034650.4414
 -12264504.98048  -9533820.37145  22014611.9224                   22014610.5124
 11  8 25  2 30  0.0000000  0  9G12G26G21G29G05G15G25G02G30
 -18256149.03947 -14203640.32545  22299328.6884                   22299326.8284
  -7696186.04747  -5985882.15745  22327625.6644                   22327624.2814
   7563445.59846   5901759.45643  24837122.3914                   24837120.7304
 -12964522.20748 -10092076.41546  21499671.3364                   21499669.1954
 -24571942.05548 -19124132.81746  20825972.5314                   20825970.1484
   -193225.53446   -139274.36544  23148197.8674                   23148197.4574
 -15847158.75848 -12325821.78946  21735796.4924                   21735797.0234
 -25583735.85948 -19912497.46945  22036616.4064                   22036612.4534
 -12252551.62948  -9524506.08445  22016886.7894                   22016885.1884
 11  8 25  2 30 30.0000000  0  9G12G26G21G29G05G15G25G02G30
 -18204363.05948 -14163287.63445  22309183.4924                   22309181.6524
  -7809263.38747  -6073994.30845  22306107.5474                   22306106.5664
   7475369.21946   5833128.63543  24820362.0554                   24820360.0904
 -13069538.51248 -10173907.26646  21479686.7734                   21479684.9964
 -24546642.26248 -19104418.68946  20830787.3054                   20830784.5704
   -321163.03546   -238965.72844  23123852.0864                   23123851.9654
 -15842620.46548 -12322285.48046  21736660.3134                   21736660.9454
 -25573342.97747 -19904399.11245  22038594.1884                   22038590.4264
 -12240142.52748  -9514836.65745  22019247.9844                   22019246.5204
 11  8 25  2 31  0.0000000  0  9G12G26G21G29G05G15G25G02G30
 -18152337.07847 -14122747.94245  22319083.3444                   22319081.7734
  -7922011.88747  -6161850.19445  22284652.2424                   22284650.9104
   7387289.66446   5764495.21243  24803600.7114                   24803599.3634
 -13174331.41848 -10255564.04746  21459745.5234                   21459743.4964
 -24520971.50848 -19084415.51446  20835672.1884                   20835669.3204
   -449022.51246   -338596.38344  23099520.4694                   23099520.3914
 -15837592.81248 -12318367.85246  21737616.7504                   21737617.6134
 -25562856.73047 -19896228.02545  22040589.7664                   22040585.5474
 -12227269.54347  -9504805.79245  22021697.5944                   22021696.5944
 11  8 25  2 31 30.0000000  0  9G12G26G21G29G05G15G25G02G30
 -18100083.13347 -14082030.61445  22329027.1334                   22329025.5744
  -8034436.71947  -6249453.90045  22263257.9384                   22263257.0204
   7299197.69947   5695852.26943  24786837.1414                   24786835.8484
 -13278907.24248 -10337051.67246  21439845.6724                   21439843.4064
 -24494940.91848 -19064131.93146  20840625.5234                   20840623.3674
   -576810.00746   -438170.78944  23075203.6254                   23075203.0004
 -15832086.65248 -12314077.35946  21738664.6484                   21738665.2814
 -25552285.41447 -19887990.62545  22042601.1644                   22042596.9694
 -12213944.01247  -9494422.27645  22024233.7814                   22024231.9844
 11  8 25  2 32  0.0000000  0  9G12G26G21G29G05G15G25G02G30
 -16472182.46147 -12813536.59845  22638806.0554                   22638804.5554
  -6571107.55547  -5109197.34145  22541720.5704                   22541719.3284
   8786518.62946   6854803.70943  25069864.7814                   25069864.2384
 -11807837.27748  -9190763.35246  21719780.8834                   21719779.0744
 -22893130.49648 -17815967.96746  21145440.0314                   21145437.3674
    870905.09446    689919.03244  23350694.6174                   23350694.0044
 -14250681.18748 -11081813.38246  22039596.1644                   22039596.9344
 -23966206.14548 -18652084.68445  22344422.5864                   22344418.1094
 -10624745.75447  -8256085.98645  22326647.6884                   22326646.5164
 11  8 25  2 32 30.0000000  0  9G12G26G21G29G05G15G25G02G30
 -16419474.41447 -12772465.43445  22648836.3754                   22648834.6214
  -6682867.68447  -5196283.08545  22520453.3284                   22520451.9454
   8698406.35947   6786144.97143  25053097.7894                   25053096.8984
 -11911965.58247  -9271902.24446  21699965.9694                   21699963.9384
 -22866380.32448 -17795123.67846  21150530.1254                   21150527.6724
    743277.35246    590469.01745  23326407.4614                   23326406.9184
 -14244217.71948 -11076776.93246  22040825.9224                   22040827.0514
 -23955457.58247 -18643709.16745  22346467.6644                   22346463.3754
 -10610515.89547  -8244997.81645  22329355.6174                   22329354.4024
 11  8 25  2 33  0.0000000  0  9G12G26G21G29G05G15G25G02G30
 -16366543.91447 -12731220.90945  22658908.1954                   22658906.6564
  -6794289.85547  -5283105.48745  22499250.5314                   22499248.7814
   8610283.43847   6717477.82044  25036328.3524                   25036327.6054
 -12015866.61748  -9352864.05046  21680193.8674                   21680192.0164
 -22839274.33648 -17774002.13346  21155688.3914                   21155685.7034
    615734.05546    491084.83144  23302136.3984                   23302135.7424
 -14237278.73848 -11071369.95446  22042146.4454                   22042147.4884
 -23944619.94147 -18635264.27745  22348529.9844                   22348525.7034
 -10595837.82447  -8233560.38445  22332148.6094                   22332147.7304
 11  8 25  2 33 30.0000000  0  9G12G26G21G29G05G15G25G02G30
 -16313393.02747 -12689804.66245  22669023.1174                   22669021.1644
  -6905370.01247  -5369661.38345  22478112.7344                   22478111.0204
   8522149.65646   6648802.26143  25019557.2114                   25019556.1484
 -12119537.30148  -9433646.36346  21660465.9844                   21660464.2194
 -22811814.26648 -17752604.65846  21160913.7344                   21160911.0984
    488278.94946    391769.29944  23277882.6804                   23277882.1524
 -14229865.71548 -11065593.58546  22043557.0164                   22043558.0824
 -23933692.11747 -18626749.08645  22350609.3364                   22350605.4734
 -10580713.40247  -8221775.14545  22335026.6884                   22335025.2584
 11  8 25  2 34  0.0000000  0  9G12G26G21G29G05G15G25G02G30
 -16260026.36347 -12648220.27045  22679177.9844                   22679176.7234
  -7016105.30547  -5455948.55045  22457040.1254                   22457038.6524
   8434003.30546   6580116.88144  25002783.0394                   25002782.2464
 -12222976.44948  -9514248.26546  21640782.1644                   21640780.4344
 -22784003.24248 -17730933.72646  21166206.0634                   21166203.7274
    360914.23146    292524.17744  23253645.5784                   23253645.1134
 -14221981.94548 -11059450.41746  22045057.5634                   22045058.3594
 -23922674.92647 -18618164.26945  22352705.9774                   22352702.1254
 -10565146.21147  -8209644.89445  22337989.1884                   22337988.3914
 11  8 25  2 34 30.0000000  0  9G12G26G21G29G05G15G25G02G30
 -16206444.25047 -12606468.02245  22689374.8054                   22689373.0314
  -7126489.97747  -5541962.52145  22436034.6884                   22436033.0234
   8345846.58646   6511423.43844  24986007.6024                   24986006.4454
 -12326179.44148  -9594666.14446  21621143.3594                   21621141.3594
 -22755841.58648 -17708989.58346  21171565.1174                   21171562.5164
    233645.17646    193353.70845  23229427.3834                   23229426.7114
 -14213627.19148 -11052940.22346  22046647.4534                   22046648.1254
 -23911565.53547 -18609507.60045  22354819.9694                   22354815.7424
 -10549136.52747  -8197169.86645  22341035.6174                   22341034.6724
 11  8 25  2 35  0.0000000  0  9G12G26G21G29G05G15G25G02G30
 -16152653.86347 -12564553.46845  22699611.0784                   22699609.0704
  -7236523.81647  -5627703.11545  22415095.4384                   22415094.6094
   8257675.28546   6442718.62243  24969228.1884                   24969227.7664
 -12429147.09848  -9674900.64546  21601549.2424                   21601547.4694
 -22727335.14547 -17686776.75746  21176989.5084                   21176987.2034
    106471.47246     94257.52844  23205226.8524                   23205225.7304
 -14204807.17248 -11046067.50346  22048325.3914                   22048326.3244
 -23900367.03947 -18600781.51045  22356950.9924                   22356946.6024
 -10532690.44947  -8184354.75045  22344165.3674                   22344164.3164
 11  8 25  2 35 30.0000000  0  9G12G26G21G29G05G15G25G02G30
 -16098653.36347 -12522475.18945  22709886.4844                   22709884.9844
  -7346198.56247  -5713163.86745  22394225.0164                   22394224.1724
   8169493.37546   6374005.60543  24952448.3834                   24952446.9964
 -12531872.68448  -9754946.51946  21582001.0634                   21581999.2544
 -22698481.83648 -17664293.64746  21182479.8834                   21182477.6684
    -20599.52046     -4758.73345  23181045.7274                   23181045.4384
 -14195519.62548 -11038830.46046  22050092.9224                   22050094.0234
 -23889074.78547 -18591982.35545  22359099.6724                   22359095.5904
 -10515806.18747  -8171198.20345  22347378.2034                   22347377.3554
 11  8 25  2 36  0.0000000  0  9G12G26G21G29G05G15G25G02G30
 -16044448.73047 -12480237.85745  22720201.1334                   22720199.8834
  -7455513.72747  -5798344.44145  22373422.4614                   22373421.8554
   8081297.40246   6305281.60843  24935664.4694                   24935663.9574
 -12634356.67648  -9834804.13146  21562499.1724                   21562497.0864
 -22669287.03948 -17641544.44346  21188035.5944                   21188032.8674
   -147567.57446   -103694.73145  23156884.7584                   23156884.1844
 -14185769.75448 -11031233.17346  22051948.0634                   22051949.0784
 -23877691.15247 -18583112.00245  22361266.0554                   22361262.0354
 -10498489.28947  -8157704.55545  22350673.8674                   22350672.6644
 11  8 25  2 36 30.0000000  0  9G12G26G21G29G05G15G25G02G30
 -15990045.32447 -12437845.62045  22730553.9694                   22730552.2344
  -7564468.13347  -5883243.91745  22352689.7664                   22352688.2504
   7993084.39546   6236544.38343  24918878.7034                   24918877.2894
 -12736599.12948  -9914473.54246  21543043.0784                   21543040.9774
 -22639755.52048 -17618532.86446  21193655.5704                   21193652.8794
   -274431.95346   -202549.93745  23132742.8914                   23132742.0554
 -14175562.15648 -11023279.20546  22053890.8204                   22053891.7274
 -23866218.39847 -18574172.20145  22363449.2194                   22363445.6174
 -10480744.79748  -8143877.70345  22354050.0164                   22354049.0594
 11  8 25  2 37  0.0000000  0  9G12G26G21G29G05G15G25G02G30
 -15935442.34847 -12395297.87345  22740944.5634                   22740942.8054
  -7673054.28147  -5967856.44145  22332026.6564                   22332025.0904
   7904857.73446   6167796.46543  24902089.1024                   24902088.3634
 -12838593.83248  -9993949.90146  21523634.1094                   21523631.9454
 -22609886.09048 -17595257.97146  21199339.5314                   21199336.8914
   -401185.86746   -301319.09445  23108622.3524                   23108621.5634
 -14164895.27748 -11014967.36646  22055920.7734                   22055921.4024
 -23854652.25847 -18565159.63845  22365650.0164                   22365646.4104
 -10462571.50047  -8129716.71645  22357508.7584                   22357507.5904
 11  8 25  2 37 30.0000000  0  9G12G26G21G29G05G15G25G02G30
 -15880640.88747 -12352595.48345  22751373.1024                   22751371.5204
  -7781266.59047  -6052177.65145  22311434.6884                   22311432.7774
   7816618.86746   6099039.08343  24885297.5864                   24885296.2974
 -12940336.39548 -10073229.77146  21504272.8594                   21504270.7154
 -22579679.02048 -17571719.99346  21205087.9924                   21205084.9924
   -527824.23546   -399998.22645  23084523.7894                   23084522.5554
 -14153769.44148 -11006297.89246  22058037.6724                   22058038.6174
 -23842990.37547 -18556072.47045  22367869.3134                   22367865.5864
 -10443970.12947  -8115222.15045  22361048.4224                   22361047.4454
 11  8 25  2 38  0.0000000  0  9G12G26G21G29G05G15G25G02G30
 -15825648.09047 -12309743.98945  22761837.8054                   22761836.0824
  -7889105.27047  -6136207.71045  22290913.4064                   22290911.7384
   7728363.34846   6030268.64643  24868503.5864                   24868502.3094
 -13041828.25048 -10152314.30146  21484959.5164                   21484957.6914
 -22549140.40648 -17547923.65646  21210898.8984                   21210896.0204
   -654347.51646   -498587.62245  23060446.8284                   23060446.4614
 -14142190.73848 -10997275.53846  22060241.3204                   22060241.8244
 -23831236.09847 -18546913.30745  22370106.2814                   22370102.0474
 -10424947.27747  -8100399.18045  22364668.5474                   22364667.1884
 11  8 25  2 38 30.0000000  0  9G12G26G21G29G05G15G25G02G30
 -15770466.66447 -12266745.50545  22772338.4534                   22772337.1174
  -7996566.59847  -6219943.75245  22270464.1174                   22270462.6484
   7640090.68846   5961484.84943  24851705.3594                   24851704.0004
 -13143067.00048 -10231201.60546  21465694.7034                   21465692.4454
 -22518272.85948 -17523871.01346  21216772.8134                   21216770.2154
   -780752.63346   -597084.98545  23036392.4534                   23036392.1604
 -14130161.40248 -10987902.03446  22062530.2194                   22062531.0234
 -23819389.04347 -18537681.86845  22372360.8834                   22372356.9924
 -10405505.50847  -8085249.76345  22368368.1484                   22368366.7774
 11  8 25  2 39  0.0000000  0  9G12G26G21G29G05G15G25G02G30
 -15715101.36347 -12223603.74945  22782874.5004                   22782872.8524
  -8103648.63747  -6303384.24845  22250086.8364                   22250085.3674
   7551799.15646   5892686.38543  24834904.2114                   24834902.4804
 -13244051.48048 -10309890.77046  21446478.0554                   21446476.1604
 -22487080.53148 -17499565.29746  21222708.4534                   21222706.0434
   -907038.15246   -695489.16345  23012361.4304                   23012360.4534
 -14117685.25848 -10978180.37146  22064904.5164                   22064905.4844
 -23807450.43047 -18528379.06045  22374632.2344                   22374628.3324
 -10385648.98047  -8069777.14845  22372146.4144                   22372145.5434
 11  8 25  2 39 30.0000000  0  9G12G26G21G29G05G15G25G02G30
 -15659551.57447 -12180318.23545  22793445.0634                   22793443.6334
  -8210344.54347  -6386523.84245  22229783.8834                   22229781.9654
   7463491.29746   5823875.16243  24818099.8054                   24818097.7034
 -13344776.02048 -10388377.38846  21427310.6414                   21427308.4924
 -22455562.18448 -17475005.53946  21228706.3914                   21228703.6294
  -1033197.36147   -793794.88545  22988353.6094                   22988352.7814
 -14104761.34448 -10968109.80846  22067363.7584                   22067364.4614
 -23795416.11747 -18519001.67645  22376922.8754                   22376918.3954
 -10365377.12947  -8053980.91545  22376004.5784                   22376003.3284
 11  8 25  2 40  0.0000000  0 10G12G26G21G29G05G15G25G02G30G18
 -15603823.23447 -12136893.58545  22804049.8754                   22804048.0904
  -8316652.89147  -6469361.46045  22209553.6564                   22209551.8794
   7375164.22746   5755049.00543  24801291.6564                   24801289.2504
 -13445240.89848 -10466661.66646  21408192.7344                   21408190.8554
 -22423722.92248 -17450195.71246  21234765.0704                   21234762.5554
  -1159229.77746   -892001.86545  22964370.3674                   22964369.7624
 -14091394.52748 -10957694.11546  22069907.5554                   22069908.0744
 -23783288.61747 -18509551.69445  22379230.0944                   22379226.1374
 -10344695.25447  -8037865.18145  22379940.0704                   22379939.0044
  10850054.66456   8465771.51254  24713442.2584                   24713443.4614
 11  8 25  2 40 30.0000000  0 10G12G26G21G29G05G15G25G02G30G18
 -15547923.79347 -12093335.60645  22814687.3754                   22814685.4534
  -8422575.02347  -6551898.11945  22189397.0864                   22189395.3524
   7286812.77046   5686203.81143  24784479.1334                   24784477.2194
 -13545448.48448 -10544745.46246  21389123.7584                   21389122.1294
 -22391569.62948 -17425141.19346  21240883.5164                   21240881.0084
  -1285136.84846   -990111.16345  22940411.3834                   22940410.5204
 -14077591.69548 -10946938.68046  22072534.0004                   22072534.8874
 -23771071.86348 -18500032.13545  22381554.8364                   22381551.0664
 -10323610.64147  -8021435.61345  22383952.5704                   22383951.1054
  10728601.89146   8371133.21843  24690330.3444                   24690331.6294
 11  8 25  2 41  0.0000000  0 10G12G26G21G29G05G15G25G02G30G18
 -15491860.54347 -12049649.97745  22825355.9384                   22825353.8754
  -8528111.45747  -6634134.24645  22169314.0234                   22169312.3634
   7198432.52046   5617336.17443  24767660.6024                   24767657.6214
 -13645399.96548 -10622629.70646  21370103.8834                   21370102.0394
 -22359108.69948 -17399846.96046  21247060.8284                   21247058.0744
  -1410919.62546  -1088123.59345  22916475.6884                   22916474.4614
 -14063359.43448 -10935848.62146  22075242.5784                   22075243.0084
 -23758769.64547 -18490445.99845  22383896.7034                   22383892.1524
 -10302130.25047  -8004697.64245  22388039.6334                   22388038.7894
  10607307.62546   8276618.46443  24667248.7894                   24667249.8054
 11  8 25  2 41 30.0000000  0 10G12G26G21G29G05G15G25G02G30G18
 -15435633.07047 -12005836.39645  22836055.3984                   22836053.7114
  -8633255.30947  -6716064.45045  22149305.5474                   22149304.1454
   7110026.13746   5548448.21743  24750837.5234                   24750834.8594
 -13745089.84848 -10700310.10646  21351133.3444                   21351131.3404
 -22326339.46548 -17374312.48646  21253296.4224                   21253293.9884
  -1536571.59847  -1186034.09945  22892564.7504                   22892563.5394
 -14048696.80948 -10924423.21246  22078032.8754                   22078033.3204
 -23746378.41847 -18480790.51645  22386254.4924                   22386250.0784
 -10280253.44147  -7987650.79045  22392202.9064                   22392201.8204
  10486176.57846   8182230.86443  24644197.6564                   24644198.7974
 11  8 25  2 42  0.0000000  0 10G12G26G21G29G05G15G25G02G30G18
 -15379241.51647 -11961894.96145  22846786.4304                   22846784.3524
  -8738000.41847  -6797683.97545  22129373.3134                   22129371.3874
   7021595.78546   5479541.55343  24734009.3134                   24734006.8874
 -13844512.89148 -10777782.56346  21332213.7504                   21332211.7974
 -22293261.86348 -17348537.73246  21259590.8134                   21259588.2974
  -1662086.84847  -1283838.08345  22868679.8364                   22868678.7154
 -14033603.60248 -10912662.29646  22080904.4304                   22080905.2854
 -23733894.93048 -18471063.11845  22388630.1484                   22388625.6454
 -10257980.44947  -7970295.23345  22396441.3284                   22396440.1214
  10365212.82046   8087973.63943  24621178.6254                   24621180.4024
 11  8 25  2 42 30.0000000  0 10G12G26G21G29G05G15G25G02G30G18
 -15322689.13347 -11917828.19745  22857547.9614                   22857546.4144
  -8842342.66047  -6878989.55645  22109517.4224                   22109515.8594
   6933141.35246   5410616.10543  24717177.3914                   24717175.0704
 -13943666.48448 -10855045.07346  21313345.7734                   21313343.3554
 -22259877.84848 -17322524.20546  21265943.5864                   21265940.8794
  -1787462.20747  -1381533.05045  22844821.8284                   22844820.4734
 -14018081.80548 -10900567.39646  22083858.5944                   22083859.0314
 -23721318.30948 -18461263.17045  22391023.7034                   22391018.9924
 -10235313.59047  -7952632.73945  22400754.6334                   22400754.0004
  10244418.31646   7993848.34042  24598191.7194                   24598193.0434
 11  8 25  2 43  0.0000000  0 10G12G26G21G29G05G15G25G02G30G18
 -15265978.09047 -11873637.82445  22868339.6644                   22868338.4494
  -8946278.14147  -6959978.18645  22089739.2584                   22089737.9614
   6844663.07846   5341672.05743  24700339.9064                   24700337.9384
 -14042547.32448 -10932095.05946  21294529.0004                   21294526.8674
 -22226189.00048 -17296273.15846  21272354.6484                   21272352.0904
  -1912693.24247  -1479115.55345  22820991.1174                   22820989.6564
 -14002133.24248 -10888139.96146  22086893.3754                   22086894.0164
 -23708647.53948 -18451389.83845  22393434.8204                   22393429.6644
 -10212255.12147  -7934665.11345  22405142.5314                   22405141.3484
  10123794.44946   7899855.91442  24575237.8284                   24575238.6214
 11  8 25  2 43 30.0000000  0 10G12G26G21G29G05G15G25G02G30G18
 -15209106.48047 -11829322.32045  22879162.1174                   22879160.7234
  -9049798.43448  -7040643.31245  22070040.1334                   22070038.6374
   6756165.34446   5272712.90043  24683499.2504                   24683497.5004
 -14141148.10548 -11008926.80746  21275765.6804                   21275764.2114
 -22192193.08248 -17269782.82046  21278823.4774                   21278821.4454
  -2037772.50047  -1576579.79445  22797189.2974                   22797187.8834
 -13985755.59448 -10875378.17046  22090010.2424                   22090010.6294
 -23695877.47348 -18441439.12945  22395864.6174                   22395859.7854
 -10188803.00447  -7916390.74445  22409605.3524                   22409603.9494
  10003347.27745   7806001.21942  24552317.1024                   24552317.0274
 11  8 25  2 44  0.0000000  0 10G12G26G21G29G05G15G25G02G30G18
 -15152080.58247 -11784886.59145  22890014.0704                   22890012.5634
  -9152903.64547  -7120984.96245  22050419.6564                   22050418.0314
   6667644.49246   5203735.75043  24666654.1094                   24666652.6254
 -14239470.19548 -11085541.40646  21257055.9534                   21257053.7344
 -22157895.94948 -17243057.78346  21285350.2034                   21285347.6024
  -2162700.30947  -1673926.01945  22773415.8054                   22773414.8324
 -13968954.69548 -10862286.58446  22093207.1724                   22093207.9144
 -23683011.25047 -18431413.48645  22398312.9614                   22398308.0984
 -10164963.46147  -7897814.49745  22414142.0004                   22414140.8984
   9883075.36746   7712283.10942  24529429.8054                   24529429.9454
 11  8 25  2 44 30.0000000  0 10G12G26G21G29G05G15G25G02G30G18
 -15094902.94147 -11740332.63945  22900894.6024                   22900893.5274
  -9255589.36347  -7200999.76745  22030879.3834                   22030877.7704
   6579100.02046   5134740.09643  24649804.3054                   24649803.2114
 -14337510.48048 -11161936.42146  21238399.4534                   21238397.2424
 -22123299.36348 -17216099.41046  21291933.9144                   21291931.3094
  -2287472.60247  -1771151.08045  22749672.7894                   22749671.3714
 -13951732.43448 -10848866.66346  22096484.4924                   22096485.0634
 -23670047.19947 -18421311.63845  22400779.9224                   22400775.2154
 -10140738.66047  -7878938.05545  22418752.0314                   22418750.7774
   9762980.21946   7618702.69542  24506576.1334                   24506576.5554
 11  8 25  2 45  0.0000000  0 10G12G26G21G29G05G15G25G02G30G18
 -15037577.13347 -11695663.21345  22911803.2274                   22911802.0164
  -9357852.32447  -7280685.15045  22011419.7664                   22011417.8014
   6490531.50046   5065725.73043  24632950.9614                   24632949.4574
 -14435266.64148 -11238110.03246  21219796.8134                   21219794.8164
 -22088406.28148 -17188910.01446  21298573.5164                   21298571.3594
  -2412086.63747  -1868252.82645  22725959.0234                   22725957.8014
 -13934091.53148 -10835120.52146  22099841.4304                   22099841.9964
 -23656985.59447 -18411133.76045  22403265.0394                   22403261.1294
 -10116131.85947  -7859763.93745  22423434.3054                   22423433.0824
   9643062.78546   7525260.80942  24483756.7584                   24483756.7974
 11  8 25  2 45 30.0000000  0 10G12G26G21G29G05G15G25G02G30G18
 -14980110.28147 -11650883.88945  22922738.5864                   22922737.6094
  -9459693.39848  -7360041.77745  21992039.8674                   21992038.0984
   6401934.45746   4996689.22943  24616090.8524                   24616088.6604
 -14532740.21148 -11314063.45146  21201248.4064                   21201246.6134
 -22053222.96548 -17161494.43346  21305268.8594                   21305266.3984
  -2536543.56647  -1965232.15045  22702275.8984                   22702274.4224
 -13916038.72748 -10821053.43946  22103276.5554                   22103277.4344
 -23643830.14547 -18400882.78645  22405768.3284                   22405764.3524
 -10091150.02047  -7840297.60245  22428188.3754                   22428186.7664
   9523320.25046   7431955.17443  24460970.3444                   24460970.6134
 11  8 25  2 46  0.0000000  0 10G12G26G21G29G05G15G25G02G30G18
 -14922496.57447 -11605990.13545  22933702.2584                   22933701.2584
  -9561100.50048  -7439060.22345  21972742.7734                   21972741.0164
   6313317.04346   4927636.80343  24599227.3364                   24599226.0594
 -14629920.21948 -11389788.10746  21182755.4774                   21182753.6684
 -22017743.34448 -17133847.98446  21312020.1484                   21312017.9414
  -2660831.24647  -2062079.55145  22678624.4064                   22678623.2584
 -13897567.96548 -10806660.65246  22106791.4694                   22106792.3874
 -23630571.38748 -18390551.26645  22408291.6024                   22408287.1804
 -10065787.38747  -7820534.52345  22433014.6174                   22433013.3874
   9403762.73446   7338793.70643  24438219.3674                   24438219.6954
 11  8 25  2 46 30.0000000  0 10G12G26G21G29G05G15G25G02G30G18
 -14864738.73447 -11560984.07345  22944693.4064                   22944692.0314
  -9662069.84048  -7517737.58345  21953529.0004                   21953526.7384
   6224679.12546   4858568.31543  24582360.8834                   24582358.9144
 -14726804.32848 -11465282.20746  21164319.2114                   21164317.1094
 -21981969.61748 -17105972.36346  21318828.1884                   21318825.3444
  -2784946.53147  -2158792.68145  22655006.0084                   22655004.9104
 -13878681.44548 -10791943.90546  22110385.5704                   22110386.3914
 -23617208.97347 -18380138.98145  22410834.4774                   22410829.8014
 -10040046.50047  -7800476.70645  22437913.1174                   22437911.6174
   9284391.57846   7245777.51043  24415503.3914                   24415503.9614
 11  8 25  2 47  0.0000000  0 10G12G26G21G29G05G15G25G02G30G18
 -14806848.29347 -11515874.69845  22955709.3914                   22955708.4184
  -9762606.48847  -7596077.76545  21934397.3134                   21934395.4144
   6136011.83246   4789477.02743  24565487.5554                   24565486.2704
 -14823397.84448 -11540549.86446  21145937.8594                   21145935.6844
 -21945912.58648 -17077875.97346  21325689.5944                   21325686.4964
  -2908894.32047  -2255375.28145  22631419.6174                   22631418.0554
 -13859390.11748 -10776911.73446  22114056.4454                   22114057.3244
 -23603750.82847 -18369652.11645  22413395.5084                   22413391.2234
 -10013938.72747  -7780133.01545  22442880.7974                   22442879.6454
   9165199.88747   7152901.12043  24392821.7194                   24392822.0864
 11  8 25  2 47 30.0000000  0 10G12G26G21G29G05G15G25G02G30G18
 -14748827.26647 -11470663.54545  22966750.2894                   22966749.1054
  -9862705.82447  -7674077.18945  21915348.9384                   21915346.8794
   6047315.49646   4720363.07443  24548608.3674                   24548608.0944
 -14919697.77048 -11615588.76046  21127612.8444                   21127610.6214
 -21909573.69548 -17049559.97046  21332604.5164                   21332601.7234
  -3032670.70747  -2351824.29245  22607865.2034                   22607864.1024
 -13839695.53148 -10761565.33146  22117804.3054                   22117805.1024
 -23590195.18047 -18359089.28345  22415974.4844                   22415970.7934
  -9987465.98047  -7759504.94045  22447918.4064                   22447917.4104
   9046189.50847   7060166.00443  24370175.0864                   24370175.0234
 11  8 25  2 48  0.0000000  0 10G12G26G21G29G05G15G25G02G30G18
 -14690674.88747 -11425350.03345  22977816.6334                   22977815.2584
  -9962360.89547  -7751730.41545  21896385.1644                   21896383.4184
   5958593.81646   4651229.35443  24531726.5234                   24531724.1684
 -15015697.69148 -11690393.86546  21109344.8204                   21109342.6054
 -21872951.38748 -17021023.10646  21339573.0704                   21339570.6684
  -3156268.59847  -2448134.22945  22584345.3524                   22584344.1024
 -13819596.47748 -10745903.75246  22121629.0474                   22121629.8444
 -23576538.12547 -18348447.42845  22418573.4534                   22418569.4534
  -9960627.27747  -7738591.68745  22453025.8204                   22453024.9064
   8927365.61346   6967576.22443  24347562.8054                   24347563.4774
 11  8 25  2 48 30.0000000  0 10G12G26G21G29G05G15G25G02G30G18
 -14632400.66447 -11379941.60045  22988906.0864                   22988904.0514
 -10061574.45347  -7829039.62645  21877505.3674                   21877503.6764
   5869839.85946   4582070.50644  24514836.9614                   24514835.3164
 -15111402.06648 -11764968.68846  21091132.5164                   21091130.5434
 -21836054.73448 -16992272.47546  21346594.5314                   21346591.6294
  -3279691.60547  -2544307.90345  22560859.1174                   22560857.4224
 -13799101.93048 -10729934.01046  22125529.3134                   22125530.3164
 -23562785.46947 -18337731.06745  22421191.2114                   22421186.4694
  -9933431.91047  -7717400.50745  22458201.0634                   22458199.6024
   8808722.97346   6875127.64143  24324986.0704                   24324986.1024
 11  8 25  2 49  0.0000000  0 10G12G26G21G29G05G15G25G02G30G18
 -14574000.46547 -11334434.98845  23000019.2584                   23000017.6454
 -10160336.23447  -7905996.79945  21858711.4384                   21858709.8284
   5781059.94946   4512891.40443  24497942.2424                   24497940.5664
 -15206801.20748 -11839305.64446  21072978.4454                   21072976.5944
 -21798879.09448 -16963304.43846  21353668.9534                   21353666.2544
  -3402929.27047  -2640337.16045  22537407.3984                   22537405.6994
 -13778207.63748 -10713652.75846  22129505.2894                   22129506.0164
 -23548929.59447 -18326934.30045  22423827.3984                   22423823.4224
  -9905876.08247  -7695928.48645  22463444.6644                   22463443.7974
   8690270.05946   6782826.91943  24302445.3054                   24302445.1884
 11  8 25  2 49 30.0000000  0 10G12G26G21G29G05G15G25G02G30G18
 -14515477.42647 -11288832.66445  23011155.6884                   23011154.4884
 -10258642.74247  -7982599.19945  21840004.6724                   21840002.6644
   5692254.10946   4443692.10143  24481043.4614                   24481041.0084
 -15301892.12548 -11913402.43346  21054883.3834                   21054881.5824
 -21761426.75448 -16934120.79746  21360795.8204                   21360793.3524
  -3525978.45747  -2736219.54345  22513991.9844                   22513990.3284
 -13756916.03548 -10697061.92146  22133557.2274                   22133557.7544
 -23534969.78147 -18316056.52145  22426483.5314                   22426479.7074
  -9877962.30147  -7674177.50145  22468756.6954                   22468755.3834
   8572007.73446   6690674.72143  24279940.3594                   24279940.0314
 11  8 25  2 50  0.0000000  0 10G12G26G21G29G05G15G25G02G30G18
 -14456836.62947 -11243138.56245  23022314.8284                   23022313.4414
 -10356492.82847  -8058845.95545  21821384.0554                   21821382.5744
   5603419.51246   4374470.43443  24464138.7664                   24464136.6024
 -15396674.59848 -11987258.88346  21036847.1724                   21036844.7114
 -21723702.35948 -16904725.16746  21367974.6024                   21367972.1484
  -3648838.19547  -2831954.30545  22490612.0164                   22490610.5354
 -13735231.98048 -10680165.26446  22137683.5474                   22137684.3364
 -23520908.27347 -18305099.51845  22429159.7114                   22429155.7624
  -9849696.02347  -7652151.86945  22474135.7344                   22474134.4384
   8453935.20746   6598670.36643  24257471.3674                   24257471.2934
 11  8 25  2 50 30.0000000  0 10G12G26G21G29G05G15G25G02G30G18
 -14398087.64547 -11197360.17345  23033494.2504                   23033493.0634
 -10453889.87147  -8134739.70245  21802849.7274                   21802848.3554
   5514548.98446   4305220.76743  24447226.5704                   24447225.1374
 -15491153.73048 -12060878.94546  21018868.3444                   21018866.4574
 -21685715.02348 -16875124.64146  21375203.0784                   21375200.7734
  -3771511.83247  -2927544.05545  22467268.3834                   22467266.7774
 -13713164.81248 -10662970.08846  22141882.6644                   22141883.3484
 -23506750.86747 -18294067.78545  22431853.8054                   22431849.7504
  -9821086.68747  -7629858.87945  22479579.8834                   22479578.6484
   8336047.30946   6506809.95743  24235037.1804                   24235037.9064
 11  8 25  2 51  0.0000000  0 10G12G26G21G29G05G15G25G02G30G18
 -14339224.98847 -11151493.23245  23044695.8524                   23044694.3094
 -10550821.86347  -8210271.07245  21784404.2894                   21784402.5864
   5425650.79746   4235949.54443  24430309.3284                   24430307.7974
 -15585317.98848 -12134253.64646  21000949.3284                   21000946.5784
 -21647458.87148 -16845314.66046  21382483.2274                   21382480.7154
  -3893987.43747  -3022979.51245  22443962.3134                   22443960.2034
 -13690708.57848 -10645471.75146  22146156.1024                   22146156.8524
 -23492488.75847 -18282954.44645  22434567.4534                   22434563.8874
  -9792128.81247  -7607294.32445  22485090.2974                   22485089.0904
   8218353.50046   6415100.75643  24212641.5084                   24212640.5314
 11  8 25  2 51 30.0000000  0 10G12G26G21G29G05G15G25G02G30G18
 -14280252.69547 -11105540.83045  23055917.4694                   23055916.5984
 -10647286.59447  -8285438.32645  21766047.6174                   21766045.7464
   5336723.58646   4166655.69143  24413387.7504                   24413385.3754
 -15679166.02048 -12207381.93746  20983090.3984                   20983088.1804
 -21608937.03548 -16815297.65646  21389813.9304                   21389810.8954
  -4016263.50847  -3118259.48045  22420693.8134                   22420691.8674
 -13667867.05147 -10627673.17046  22150502.4534                   22150503.0274
 -23478122.27347 -18271759.78245  22437301.9614                   22437297.5704
  -9762826.28947  -7584461.22245  22490666.1804                   22490665.5434
   8100853.91446   6323542.80143  24190281.8524                   24190281.5004
 11  8 25  2 52  0.0000000  0 10G12G26G21G29G05G15G25G02G30G18
 -14221171.74647 -11059503.77445  23067160.8134                   23067158.9804
 -10743278.76247  -8360237.36345  21747780.9144                   21747779.1684
   5247768.80946   4097340.36143  24396460.0634                   24396457.7934
 -15772693.34448 -12280260.34146  20965292.9064                   20965290.4694
 -21570150.11748 -16785074.08746  21397194.5394                   21397191.6844
  -4138334.75447  -3213379.86545  22397464.4534                   22397462.3914
 -13644641.06647 -10609575.02346  22154922.2194                   22154923.0664
 -23463649.45747 -18260482.25545  22440055.5004                   22440051.9264
  -9733180.35947  -7561360.51445  22496307.7974                   22496306.7304
   7983551.39846   6232138.46243  24167959.9844                   24167959.5664
 11  8 25  2 52 30.0000000  0 10G12G26G21G29G05G15G25G02G30G18
 -14161988.05946 -11013386.65345  23078423.0474                   23078421.4184
 -10838797.44547  -8434667.45245  21729603.9304                   21729602.5944
   5158783.45346   4028001.26243  24379526.6174                   24379524.7774
 -15865899.84847 -12352888.74446  20947556.3054                   20947554.0164
 -21531102.84848 -16754647.64146  21404625.0394                   21404622.3634
  -4260199.88747  -3308339.62645  22374273.7584                   22374271.7464
 -13621035.45747 -10591181.05246  22159414.3134                   22159414.7624
 -23449071.65647 -18249122.95045  22442829.8754                   22442825.8444
  -9703196.21947  -7537996.28045  22502013.2664                   22502012.4574
   7866445.41847   6140887.16343  24145675.1644                   24145674.8324
 11  8 25  2 53  0.0000000  0 10G12G26G21G29G05G15G25G02G30G18
 -14102706.65647 -10967193.40145  23089703.6884                   23089702.2544
 -10933842.16047  -8508728.22645  21711518.1564                   21711516.1134
   5069765.20346   3958636.49343  24362586.7424                   24362584.6954
 -15958785.61347 -12425267.22746  20929880.7274                   20929878.2034
 -21491800.28148 -16724022.25746  21412104.0634                   21412101.6374
  -4381858.71547  -3403138.64045  22351123.1724                   22351121.0704
 -13597055.51647 -10572495.39346  22163977.4384                   22163978.0314
 -23434390.96947 -18237683.44345  22445623.3284                   22445618.6954
  -9672879.31647  -7514372.74045  22507782.6334                   22507781.3204
   7749534.09847   6049787.68943  24123427.9534                   24123426.7664
 11  8 25  2 53 30.0000000  0 10G12G26G21G29G05G15G25G02G30G18
 -14043324.10547 -10920921.33845  23101003.6884                   23101002.3714
 -11028402.60247  -8582411.62945  21693523.2504                   21693521.7504
   4980719.64846   3889250.45843  24345642.4144                   24345639.6764
 -16051341.86348 -12497388.93846  20912267.7114                   20912265.4964
 -21452237.99648 -16693194.51046  21419632.2344                   21419629.9694
  -4503301.28547  -3497769.13945  22328012.7194                   22328011.0354
 -13572697.48447 -10553515.11445  22168612.6254                   22168613.5554
 -23419600.23847 -18226158.21045  22448438.3284                   22448434.0824
  -9642226.27747  -7490487.26645  22513615.9144                   22513614.6054
   7632825.15247   5958845.74043  24101218.2814                   24101217.5234
 11  8 25  2 54  0.0000000  0 10G12G26G21G29G05G15G25G02G30G18
 -13983848.55147 -10874576.80045  23112322.0084                   23112320.1724
 -11122480.91447  -8655719.36145  21675620.6254                   21675619.1454
   4891641.34046   3819838.86043  24328690.9144                   24328688.8794
 -16143571.50848 -12569256.16146  20894716.9304                   20894714.8404
 -21412423.86748 -16662170.51246  21427208.9774                   21427206.1844
  -4624529.86747  -3592232.89445  22304944.0164                   22304942.1054
 -13547969.34847 -10534246.45446  22173317.9454                   22173318.8014
 -23404704.50047 -18214551.14245  22451272.8364                   22451268.6094
  -9611245.33247  -7466346.29245  22519511.4304                   22519510.2814
   7516314.64846   5868058.56543  24079047.2894                   24079046.1294
 11  8 25  2 54 30.0000000  0 10G12G26G21G29G05G15G25G02G30G18
 -13924283.96547 -10828162.87845  23123656.9534                   23123654.9694
 -11216075.15647  -8728649.88745  21657810.7034                   21657808.7584
   4802528.57046   3750400.46643  24311732.9454                   24311731.0004
 -16235472.69148 -12640867.44246  20877228.5944                   20877226.6524
 -21372361.56648 -16630953.13846  21434832.3364                   21434830.2854
  -4745542.22347  -3686528.15845  22281915.9534                   22281914.2194
 -13522874.91047 -10514692.35546  22178093.4064                   22178094.3914
 -23389704.24647 -18202862.64545  22454127.1804                   22454123.2734
  -9579940.56247  -7441953.00845  22525468.4924                   22525467.7034
   7400002.69546   5777426.06143  24056913.2034                   24056912.7114
 11  8 25  2 55  0.0000000  0 10G12G26G21G29G05G15G25G02G30G18
 -13864631.48047 -10781680.49145  23135008.0234                   23135006.6724
 -11309180.03947  -8801199.10845  21640093.0394                   21640091.5824
   4713383.02046   3680936.43543  24294769.6094                   24294767.2194
 -16327041.89847 -12712220.04146  20859803.5634                   20859801.6414
 -21332051.31648 -16599542.54846  21442503.3054                   21442501.1094
  -4866333.64147  -3780651.26245  22258930.4384                   22258928.5944
 -13497415.17647 -10494853.61345  22182937.9774                   22182939.2934
 -23374597.19547 -18191090.92145  22457002.1414                   22456998.2154
  -9548313.35547  -7417308.43845  22531486.9694                   22531485.5514
   7283892.18046   5686950.54643  24034818.2114                   24034818.0124
 11  8 25  2 55 30.0000000  0 10G12G26G21G29G05G15G25G02G30G18
 -13804896.27747 -10735133.61445  23146375.3204                   23146373.8634
 -11401794.66847  -8873366.30745  21622469.4614                   21622467.4694
   4624202.38346   3611445.10843  24277798.7584                   24277796.5944
 -16418278.49247 -12783313.45146  20842441.6644                   20842439.4884
 -21291497.76248 -16567942.36746  21450220.6644                   21450217.4734
  -4986902.86747  -3874601.23045  22235986.2344                   22235984.3834
 -13471594.73047 -10474733.80745  22187851.6484                   22187852.7664
 -23359384.64147 -18179236.97845  22459897.3594                   22459892.6334
  -9516368.42647  -7392416.29345  22537565.7584                   22537564.8054
   7167981.99246   5596631.11743  24012761.3054                   24012760.8714
 11  8 25  2 56  0.0000000  0 10G12G26G21G29G05G15G25G02G30G18
 -13745079.07846 -10688522.87545  23157757.9774                   23157757.0234
 -11493913.32047  -8945147.02545  21604939.6094                   21604937.4924
   4534988.68446   3541928.02143  24260821.8594                   24260819.3554
 -16509177.47347 -12854143.81246  20825144.3364                   20825142.1644
 -21250700.69948 -16536152.44746  21457983.7664                   21457980.9774
  -5107244.09047  -3968373.56145  22213086.4384                   22213084.3594
 -13445414.07047 -10454333.29545  22192833.8594                   22192834.6644
 -23344063.93047 -18167298.77945  22462812.4694                   22462808.2114
  -9484106.57047  -7367277.22545  22543705.5314                   22543704.0394
   7052275.87546   5506470.73643  23990742.7034                   23990742.0824
 11  8 25  2 56 30.0000000  0 10G12G26G21G29G05G15G25G02G30G18
 -12109768.35946  -9414254.80844  23468946.8984                   23468946.0204
 -10010113.05947  -7788938.97645  21887297.0474                   21887295.5474
   6021160.88746   4699984.36343  24543630.6644                   24543628.7704
 -15024317.02747 -11697109.68946  21107703.9844                   21107701.4694
 -19634247.60248 -15276578.60246  21765584.5314                   21765582.1994
  -3651933.92647  -2834365.54945  22490022.4694                   22490020.6764
 -11843460.38747  -9206057.70845  22497675.6174                   22497676.6374
 -21753218.55547 -16927678.99245  22765540.0554                   22765535.4304
  -7876115.46947  -6114297.16245  22849695.8754                   22849694.7584
   8512195.02346   6644070.25343  24268556.0554                   24268555.3634
 11  8 25  2 57  0.0000000  0 10G12G26G21G29G05G15G25G02G30G18
 -12049798.60246  -9367525.18944  23480359.4844                   23480358.0434
 -10101232.79747  -7859941.33445  21869957.7584                   21869955.7234
   5931877.05546   4630412.66144  24526640.7734                   24526638.5314
 -15114536.74248 -11767410.74746  21090535.5944                   21090533.3094
 -19592973.52348 -15244416.96946  21773438.8834                   21773435.7344
  -3771812.81247  -2927777.62345  22467210.3204                   22467208.4734
 -11816570.39147  -9185104.47045  22502792.5004                   22502793.7894
 -21737682.52747 -16915572.99645  22768496.1414                   22768491.8954
  -7843231.67647  -6088673.45645  22855953.0084                   22855952.4184
   8396897.41846   6554228.23543  24246615.3364                   24246615.0554
 11  8 25  2 57 30.0000000  0 10G12G26G21G29G05G15G25G02G30G18
 -11989757.68446  -9320740.12444  23491784.3524                   23491783.6294
 -10191848.92647  -7930551.27645  21852714.0164                   21852711.6604
   5842556.82046   4560812.56044  24509643.8524                   24509641.5554
 -15204413.85948 -11837444.85346  21073432.4534                   21073430.0164
 -19551465.25448 -15212072.85946  21781337.4774                   21781334.9264
  -3891456.46547  -3021006.37745  22444442.9384                   22444440.7974
 -11789330.60947  -9163878.68646  22507976.0634                   22507976.9654
 -21722038.83647 -16903383.11445  22771472.7584                   22771468.5904
  -7810042.15247  -6062811.52045  22862269.1174                   22862268.1254
   8281804.85546   6464545.87443  24224714.1724                   24224713.2934
 11  8 25  2 58  0.0000000  0 10G12G26G21G29G05G15G25G02G30G18
 -11929643.96946  -9273898.30444  23503223.4694                   23503222.8054
 -10281954.23847  -8000763.17645  21835567.6804                   21835565.4654
   5753204.47346   4491187.45944  24492640.8444                   24492638.2814
 -15293941.29748 -11907206.48146  21056395.8284                   21056393.8484
 -19509720.90248 -15179544.77846  21789281.6174                   21789278.5234
  -4010857.42647  -3114046.01145  22421721.9304                   22421719.5434
 -11761739.44947  -9142379.08045  22513226.8204                   22513227.6134
 -21706282.46547 -16891105.42745  22774471.4144                   22774467.1684
  -7776545.62947  -6036710.35845  22868642.9844                   22868641.9924
   8166922.84046   6375027.62443  24202852.6254                   24202851.6094
 11  8 25  2 58 30.0000000  0 10G12G26G21G29G05G15G25G02G30G18
 -11869459.45746  -9227001.35744  23514676.6334                   23514675.5474
 -10371544.30147  -8070573.57345  21818519.2974                   21818516.9414
   5663821.07046   4421538.10043  24475631.8444                   24475629.4304
 -15383115.74648 -11976693.06246  21039426.6024                   21039424.3984
 -19467741.60948 -15146833.63646  21797269.8054                   21797267.3324
  -4130011.29347  -3206893.12445  22399047.5634                   22399045.5634
 -11733798.57447  -9120607.00346  22518543.5944                   22518544.8714
 -21690411.69947 -16878738.59145  22777491.7584                   22777486.9104
  -7742744.00047  -6010371.44545  22875075.1254                   22875074.7384
   8052253.56646   6285675.15243  24181031.7194                   24181030.7114
 11  8 25  2 59  0.0000000  0 10G12G26G21G29G05G15G25G02G30G18
 -11809214.18446  -9180057.00644  23526141.4534                   23526140.1094
 -10460623.27047  -8139985.72045  21801568.0944                   21801565.8794
   5574398.77746   4351858.47143  24458615.1724                   24458612.9734
 -15471941.95348 -12045908.29046  21022523.4614                   21022521.0784
 -19425537.21548 -15113947.09046  21805300.8914                   21805298.1604
  -4248922.01247  -3299550.75945  22376419.3284                   22376417.3054
 -11705517.96147  -9098570.17846  22523925.1954                   22523926.1174
 -21674432.92247 -16866287.59545  22780532.2114                   22780527.6764
  -7708647.49247  -5983802.78645  22881563.3674                   22881562.6294
   7937790.98046   6196483.68843  24159249.9774                   24159249.0274
 11  8 25  2 59 30.0000000  0 10G12G26G21G29G05G15G25G02G30G18
 -11748913.15246  -9133069.25944  23537616.3984                   23537615.0084
 -10549189.87947  -8208998.61345  21784714.3364                   21784712.1684
   5484935.35946   4282146.82144  24441590.5314                   24441587.9614
 -15560419.50048 -12114851.82146  21005687.0314                   21005684.5944
 -19383111.37548 -15080887.98046  21813374.0634                   21813371.5634
  -4367588.35547  -3392017.97145  22353837.8444                   22353835.9384
 -11676902.31647  -9076272.28046  22529370.8284                   22529371.8284
 -21658347.92647 -16853753.83545  22783593.1174                   22783588.7384
  -7674261.02747  -5957008.15145  22888107.2344                   22888106.2584
   7823534.31346   6107452.76943  24137507.1884                   24137506.5554
 11  8 25  3  0  0.0000000  0 10G12G26G21G29G05G15G25G02G30G18
 -11688552.81647  -9086035.29145  23549102.1954                   23549101.0944
 -10637234.76247  -8277604.99346  21767959.7274                   21767957.5944
   5395436.32846   4212407.41843  24424558.7504                   24424556.4304
 -15648539.58648 -12183516.81646  20988918.4384                   20988915.9924
 -19340460.32448 -15047653.40246  21821490.3204                   21821487.8714
  -4486000.87147  -3484287.39546  22331304.8134                   22331302.4884
 -11647948.05147  -9053710.54146  22534880.5234                   22534881.3754
 -21642149.59847 -16841131.76245  22786675.6024                   22786671.3244
  -7639581.43747  -5929985.12645  22894706.3914                   22894705.3754
   7709491.03446   6018588.10843  24115805.4844                   24115804.2664
 11  8 25  3  0 30.0000000  0 10G12G26G21G29G05G15G25G02G30G18
 -11628139.09047  -9038959.69645  23560599.0084                   23560597.7584
 -10724757.96147  -8345804.85146  21751304.6334                   21751302.6954
   5305898.92246   4142638.06944  24407520.3524                   24407518.2074
 -15736302.64148 -12251903.59746  20972217.4924                   20972215.3364
 -19297589.56248 -15014247.60846  21829648.6804                   21829645.7814
  -4604159.44547  -3576358.94245  22308819.7584                   22308817.5084
 -11618661.28947  -9030889.69446  22540453.9064                   22540454.1604
 -21625840.49647 -16828423.38645  22789778.8284                   22789774.7704
  -7604614.77047  -5902738.41544  22901360.6954                   22901359.9454
   7595658.84446   5929887.75943  24094143.5004                   24094142.8284
 11  8 25  3  1  0.0000000  0 10G12G26G21G29G05G15G25G02G30G18
 -11567668.57847  -8991839.88745  23572106.2734                   23572105.4494
 -10811749.94547  -8413590.76945  21734750.6644                   21734748.3554
   5216329.12146   4072843.52244  24390476.1414                   24390473.7584
 -15823700.25047 -12320005.62146  20955586.1954                   20955584.0554
 -19254495.30948 -14980667.66946  21837848.8674                   21837846.1684
  -4722054.86747  -3668225.43845  22286384.9304                   22286382.9454
 -11589038.64547  -9007807.13046  22546090.3054                   22546091.6914
 -21609413.91047 -16815623.45345  22792905.1334                   22792900.8364
  -7569357.95347  -5875265.58345  22908069.5394                   22908068.9104
   7482045.11746   5841357.80543  24072523.8284                   24072523.1604
 11  8 25  3  1 30.0000000  0 10G12G26G21G29G05G15G25G02G30G18
 -11507149.94547  -8944682.53245  23583622.5784                   23583621.3984
 -10898213.65247  -8480965.05145  21718297.2424                   21718295.1254
   5126720.87946   4003018.97044  24373424.3834                   24373421.8594
 -15910735.70348 -12387825.43747  20939023.8914                   20939021.6954
 -19211185.27048 -14946919.58246  21846090.4844                   21846088.2074
  -4839689.07447  -3759888.39246  22263999.4694                   22263997.8914
 -11559088.43047  -8984469.33046  22551789.7114                   22551790.7074
 -21592874.96947 -16802735.97045  22796052.3134                   22796047.9024
  -7533819.64147  -5847573.41445  22914832.9844                   22914831.8054
   7368645.10246   5752994.31043  24050944.2734                   24050943.6684
 11  8 25  3  2  0.0000000  0 10G12G26G21G29G05G15G25G02G30G18
 -11446586.53547  -8897490.33444  23595147.1334                   23595146.3984
 -10984146.36347  -8547925.58145  21701944.6254                   21701942.6884
   5037073.40246   3933163.89843  24356364.6414                   24356362.4454
 -15997407.02748 -12455361.51646  20922530.8594                   20922528.4884
 -19167662.22348 -14913005.53146  21854372.4924                   21854370.2974
  -4957059.73847  -3851345.99346  22241664.6954                   22241662.9144
 -11528813.89847  -8960878.80745  22557551.2734                   22557551.8094
 -21576223.27747 -16789760.62345  22799220.9924                   22799217.1844
  -7498003.32047  -5819664.62145  22921648.4614                   22921647.3014
   7255459.92246   5664798.23543  24029405.4064                   24029404.9654
 11  8 25  3  2 30.0000000  0 10G12G26G21G29G05G15G25G02G30G18
 -11385981.07447  -8850265.36544  23606680.0784                   23606678.9064
 -11069545.06647  -8614469.99445  21685693.7584                   21685691.7704
   4947386.54346   3863278.06843  24339298.2424                   24339295.6564
 -16083711.57848 -12522611.79546  20906107.5474                   20906105.3324
 -19123928.57448 -14878927.36446  21862694.7114                   21862692.5474
  -5074163.59447  -3942595.68045  22219380.8054                   22219378.6294
 -11498217.92647  -8937037.80845  22563373.2114                   22563373.6454
 -21559458.39547 -16776697.08745  22802411.3984                   22802407.1134
  -7461912.00447  -5791541.54745  22928516.2814                   22928515.3524
   7142490.52346   5576770.27543  24007908.1254                   24007907.3324
 11  8 25  3  3  0.0000000  0 10G12G26G21G29G05G15G25G02G30G18
 -11325333.52347  -8803007.59144  23618221.0084                   23618219.5864
 -11154403.63347  -8680593.52045  21669545.7344                   21669543.5164
   4857662.85946   3793363.62643  24322223.7894                   24322221.8444
 -16169644.00048 -12589572.09746  20889755.3204                   20889753.0314
 -19079983.46948 -14844684.43646  21871057.3754                   21871054.9064
  -5190994.60547  -4033632.77046  22197148.3364                   22197146.2584
 -11467300.44147  -8912946.27645  22569256.4224                   22569257.3914
 -21542576.99247 -16763542.74545  22805623.6254                   22805619.6094
  -7425545.89147  -5763204.33345  22935436.4694                   22935435.0904
   7029740.42647   5488913.18943  23986452.4454                   23986451.7504
 11  8 25  3  3 30.0000000  0 10G12G26G21G29G05G15G25G02G30G18
 -11264649.27347  -8755721.23644  23629769.1724                   23629767.9574
 -11238721.96547  -8746296.08345  21653500.4304                   21653498.2544
   4767899.80146   3723418.41543  24305142.5084                   24305140.0984
 -16255205.00847 -12656242.97347  20873473.7424                   20873471.3404
 -19035831.93048 -14810280.64746  21879459.3834                   21879456.4494
  -5307552.03147  -4124456.68146  22174968.3754                   22174966.1764
 -11436066.82847  -8888608.42245  22575200.5004                   22575201.3014
 -21525580.64547 -16750298.81544  22808858.0084                   22808853.8674
  -7388910.55547  -5734657.32845  22942407.8524                   22942406.9654
   6917208.17646   5401225.85443  23965038.4304                   23965037.2774
 11  8 25  3  4  0.0000000  0 10G12G26G21G29G05G15G25G02G30G18
 -11203932.07446  -8708409.18344  23641322.7894                   23641322.6024
 -11322497.53147  -8811575.70546  21637558.3054                   21637556.1174
   4678096.18446   3653441.63343  24288052.7734                   24288050.3634
 -16340392.29747 -12722622.65046  20857262.8364                   20857260.5274
 -18991476.67248 -14775718.11946  21887899.9384                   21887897.4494
  -5423833.25447  -4215065.36546  22152841.0474                   22152838.8134
 -11404520.54747  -8864026.92545  22581203.5474                   22581204.2304
 -21508469.56247 -16736965.52345  22812114.6254                   22812110.0084
  -7352009.72747  -5705903.45345  22949430.1804                   22949429.1724
   6804894.41047   5313708.79943  23943665.4774                   23943664.9304
 11  8 25  3  4 30.0000000  0 10G12G26G21G29G05G15G25G02G30G18
 -11143183.12146  -8661072.40144  23652882.6414                   23652882.0314
 -11405726.22348  -8876429.20146  21621720.5634                   21621718.3754
   4588253.38346   3583434.31343  24270956.3054                   24270953.9534
 -16425202.16048 -12788708.22847  20841124.0944                   20841121.7194
 -18946918.91848 -14740997.79746  21896378.9144                   21896376.4924
  -5539834.29747  -4305455.72746  22130766.3834                   22130764.1524
 -11372663.24247  -8839203.07645  22587265.4224                   22587266.3594
 -21491241.80947 -16723541.29145  22815392.7664                   22815388.2734
  -7314845.16447  -5676944.09045  22956501.9534                   22956501.4384
   6692801.19547   5226363.58743  23922335.6174                   23922334.1414
 11  8 25  3  5  0.0000000  0 10G12G26G21G29G05G15G25G02G30G18
 -11082406.19946  -8613713.85244  23664448.7114                   23664447.5944
 -11488405.74648  -8940854.77645  21605987.1414                   21605985.2234
   4498370.40646   3513395.68943  24253852.4534                   24253849.9384
 -16509633.40648 -12854498.78046  20825057.0944                   20825054.9884
 -18902161.77048 -14706122.09246  21904896.0864                   21904893.3714
  -5655552.16047  -4395625.43346  22108746.0784                   22108743.9614
 -11340498.52347  -8814139.68245  22593386.3984                   22593387.4964
 -21473897.59847 -16710026.33045  22818693.0234                   22818689.2464
  -7277420.75047  -5647782.24245  22963624.0234                   22963623.0664
   6580928.57846   5139190.24043  23901046.9144                   23901044.6764
 11  8 25  3  5 30.0000000  0 10G12G26G21G29G05G15G25G02G30G18
 -11021606.24647  -8566337.34044  23676018.7504                   23676017.6644
 -11570535.83248  -9004852.23146  21590358.5004                   21590356.0274
   4408444.71147   3443323.75644  24236739.5864                   24236737.9924
 -16593685.73847 -12919994.06846  20809062.7664                   20809060.3874
 -18857209.36748 -14671094.25846  21913450.0704                   21913447.4844
  -5770986.26647  -4485574.03546  22086779.8054                   22086777.1564
 -11308031.52347  -8788840.75045  22599564.2424                   22599565.3674
 -21456438.59847 -16696421.91845  22822015.5004                   22822011.2154
  -7239741.84847  -5618422.07845  22970793.8914                   22970792.6454
   6469275.83646   5052188.22943  23879799.4774                   23879798.0164
 11  8 25  3  6  0.0000000  0 10G12G26G21G29G05G15G25G02G30G18
 -10960787.33647  -8518946.03544  23687592.7504                   23687591.0354
 -11652114.02347  -9068419.62546  21574834.4304                   21574832.5234
   4318475.30547   3373217.77843  24219619.1884                   24219617.5354
 -16677357.46947 -12985192.79047  20793140.4224                   20793138.1024
 -18812065.19548 -14635916.98046  21922040.9454                   21922038.1684
  -5886134.18047  -4575299.60946  22064867.3594                   22064865.1524
 -11275266.06647  -8763309.24645  22605799.8914                   22605800.5824
 -21438865.13347 -16682728.31445  22825359.5944                   22825355.3954
  -7201812.32047  -5588866.61545  22978011.5554                   22978010.5864
   6357842.75046   4965357.37943  23858594.3204                   23858592.7774
 11  8 25  3  6 30.0000000  0 10G12G26G21G29G05G15G25G02G30G18
 -10899946.88347  -8471537.94144  23699169.8754                   23699168.0784
 -11733132.76248  -9131551.08446  21559417.2424                   21559415.0204
   4228466.75847   3303081.23544  24202491.5314                   24202489.3674
 -16760641.24248 -13050089.20947  20777292.1804                   20777289.6994
 -18766726.12148 -14600587.84346  21930668.7344                   21930665.7934
  -6000987.69947  -4664795.81146  22043011.7114                   22043009.3954
 -11242199.82448  -8737543.37945  22612092.1884                   22612092.9844
 -21421171.48447 -16668941.06345  22828726.5634                   22828722.2114
  -7163630.20746  -5559114.35245  22985277.2034                   22985276.1414
   6246635.42246   4878702.44243  23837432.4224                   23837430.6374
 11  8 25  3  7  0.0000000  0 10G12G26G21G29G05G15G25G02G30G18
 -10839089.41847  -8424116.57044  23710750.8984                   23710749.0904
 -11813590.85948  -9194245.67246  21544106.5634                   21544104.4654
   4138417.36347   3232912.96544  24185355.8524                   24185353.4844
 -16843536.60248 -13114682.97046  20761517.5634                   20761515.2274
 -18721196.37548 -14565110.11146  21939332.3524                   21939330.0904
  -6115545.49647  -4754061.58146  22021211.9694                   22021209.2114
 -11208837.53947  -8711546.81245  22618440.7894                   22618441.3364
 -21403358.60547 -16655060.90645  22832116.0004                   22832112.0314
  -7125200.35246  -5529169.05145  22992589.9694                   22992589.3284
   6135652.92246   4792222.69243  23816312.3834                   23816310.9774
 11  8 25  3  7 30.0000000  0 10G12G26G21G29G05G15G25G02G30G18
 -10778218.09847  -8376684.45444  23722334.2974                   23722332.8914
 -11893485.60248  -9256501.28746  21528902.8204                   21528900.8834
   4048326.58647   3162712.36743  24168211.8204                   24168209.2234
 -16926041.02748 -13178972.10547  20745817.4774                   20745815.0554
 -18675478.34448 -14529485.67646  21948032.7114                   21948029.9804
  -6229804.54747  -4843094.54546  21999468.4774                   21999466.3554
 -11175182.33647  -8685322.00945  22624844.8204                   22624845.8484
 -21385426.44147 -16641087.79845  22835528.8134                   22835524.3134
  -7086526.09847  -5499033.31144  22999950.0864                   22999949.2114
   6024896.13746   4705918.86843  23795235.9614                   23795234.4774
 11  8 25  3  8  0.0000000  0 10G12G26G21G29G05G15G25G02G30G18
 -10717337.21547  -8329244.84744  23733919.2424                   23733918.0394
 -11972815.84048  -9318317.03646  21513806.8834                   21513804.6844
   3958192.73046   3092478.24644  24151059.7424                   24151057.0124
 -17008154.23048 -13242956.38547  20730191.8364                   20730189.5864
 -18629575.88748 -14493717.52746  21956767.6484                   21956764.8674
  -6343763.30547  -4931893.52346  21977783.2664                   21977780.9694
 -11141238.68047  -8658872.43545  22631304.7734                   22631305.3134
 -21367375.80547 -16627022.39345  22838963.2504                   22838959.2734
  -7047612.09847  -5468710.73745  23007354.7504                   23007354.2664
   5914364.29746   4619790.25943  23774202.3444                   23774201.0784
 11  8 25  3  8 30.0000000  0 10G12G26G21G29G05G15G25G02G30G18
 -10656451.33647  -8281801.36344  23745506.1724                   23745504.5354
 -12051580.35248  -9379691.95746  21498818.5394                   21498816.2074
   3868014.16847   3022209.31944  24133899.7974                   24133897.4574
 -17089875.12948 -13306634.97347  20714640.9454                   20714638.4414
 -18583492.85248 -14457808.66746  21965536.3524                   21965533.7704
  -6457420.46947  -5020457.48546  21956155.0634                   21956152.9654
 -11107011.05947  -8632201.60045  22637817.4224                   22637818.6524
 -21349208.00847 -16612865.68645  22842420.6564                   22842416.4844
  -7008462.91447  -5438204.90544  23014804.7424                   23014803.7774
   5804056.87546   4533836.52744  23753211.9924                   23753209.9694
 11  8 25  3  9  0.0000000  0 10G12G26G21G29G05G15G25G02G30G18
 -10595555.87147  -8234350.42344  23757093.7814                   23757093.0004
 -12129769.40648  -9440618.45246  21483939.4694                   21483937.6414
   3777797.85947   2951910.92744  24116731.9224                   24116729.3364
 -17171194.64548 -13370000.80447  20699166.4614                   20699164.0204
 -18537224.18448 -14421755.16046  21974341.6564                   21974338.4964
  -6570765.57447  -5108778.31046  21934586.0084                   21934584.2034
 -11072495.39147  -8605306.30245  22644385.8754                   22644386.7114
 -21330914.79347 -16598611.25345  22845902.0784                   22845897.3594
  -6969074.79747  -5407512.89345  23022300.3204                   23022299.2544
   5693982.09046   4448064.04744  23732265.4774                   23732263.7584
 11  8 25  3  9 30.0000000  0 10G12G26G21G29G05G15G25G02G30G18
 -10534659.81647  -8186899.05044  23768682.1484                   23768681.2934
 -12207386.49248  -9501099.27946  21469169.6644                   21469167.4104
   3687537.53947   2881578.25444  24099555.8444                   24099553.4494
 -17252116.07048 -13433056.44347  20683767.7344                   20683765.2584
 -18490778.02348 -14385563.34646  21983179.7424                   21983176.7074
  -6683801.49647  -5196858.18946  21913076.4144                   21913073.9104
 -11037700.50447  -8578193.43345  22651007.2974                   22651008.1604
 -21312501.83647 -16584263.51845  22849406.0554                   22849401.3284
  -6929456.67647  -5376641.66244  23029838.9064                   23029838.6094
   5584134.28946   4362468.47644  23711361.5784                   23711360.3754
 11  8 25  3 10  0.0000000  0 10G12G26G21G29G05G15G25G02G30G18
 -10473766.30147  -8139449.60744  23780269.4224                   23780268.9574
 -12284428.80548  -9561132.21145  21454508.8284                   21454506.6804
   3597232.39147   2811210.66344  24082371.3834                   24082368.7384
 -17332637.12148 -13495800.09047  20668444.6174                   20668442.3594
 -18444157.21948 -14349235.45346  21992051.3984                   21992048.6174
  -6796525.75448  -5284695.22346  21891625.2274                   21891623.0744
 -11002629.71548  -8550865.57145  22657680.7034                   22657682.0124
 -21293968.73047 -16569822.14845  22852932.1804                   22852928.1844
  -6889611.93747  -5345593.85044  23037421.1954                   23037420.6994
   5474514.10946   4277050.24944  23690501.4384                   23690499.9774
 11  8 25  3 10 30.0000000  0 10G12G26G21G29G05G15G25G02G30G18
 -10412879.68046  -8092005.59544  23791855.3914                   23791855.5164
 -12360896.13748  -9620717.12445  21439957.3444                   21439955.4654
   3506880.19947   2740806.38343  24065178.2974                   24065175.6844
 -17412758.30148 -13558232.16247  20653198.2664                   20653195.7934
 -18397365.74248 -14312774.56646  22000955.3914                   22000952.9384
  -6908936.96147  -5372288.31446  21870233.8754                   21870231.8014
 -10967287.92247  -8523326.54345  22664406.3754                   22664407.2424
 -21275316.81247 -16555288.21344  22856481.5634                   22856477.6054
  -6849545.80947  -5314373.52245  23045045.7034                   23045044.8094
   5365120.72746   4191808.75644  23669685.1564                   23669682.9924
 11  8 25  3 11  0.0000000  0 10G12G26G21G29G05G15G25G02G30G18
 -10352000.41846  -8044567.31444  23803440.7194                   23803440.4884
 -12436782.62948  -9679849.42246  21425516.9614                   21425514.3054
   3416484.09046   2670367.93743  24047975.6414                   24047973.7734
 -17492474.33648 -13620348.53147  20638028.6884                   20638025.9884
 -18350403.08648 -14276180.29146  22009892.2584                   22009889.6804
  -7021029.12548  -5459632.82046  21848903.6094                   21848901.8524
 -10931675.24647  -8495576.43945  22671182.8364                   22671183.8594
 -21256542.93447 -16540659.24544  22860054.1024                   22860050.2734
  -6809258.55547  -5282980.87245  23052711.9844                   23052711.6414
   5255957.71546   4106746.78744  23648911.3594                   23648910.0314
 11  8 25  3 11 30.0000000  0 10G12G26G21G29G05G15G25G02G30G18
 -10291127.80546  -7997134.19144  23815025.0234                   23815024.4024
 -12512082.51648  -9738524.63245  21411187.7894                   21411185.5084
   3326047.32047   2599897.81444  24030766.3754                   24030764.1334
 -17571779.41048 -13682144.67947  20622937.5234                   20622935.2114
 -18303267.89548 -14239451.56846  22018861.4924                   22018858.8874
  -7132795.77047  -5546723.65946  21827635.1414                   21827633.0004
 -10895791.29348  -8467614.94745  22678011.5234                   22678012.5664
 -21237642.97747 -16525932.01345  22863650.7344                   22863647.0084
  -6768749.87547  -5251415.69645  23060420.6724                   23060420.3484
   5147029.26646   4021867.54244  23628183.0704                   23628181.5704
 11  8 25  3 12  0.0000000  0 10G12G26G21G29G05G15G25G02G30G18
 -10230263.91447  -7949707.89944  23826606.8204                   23826606.3594
 -12586792.54748  -9796740.20346  21396971.0394                   21396968.6414
   3235570.16447   2529396.19844  24013548.8914                   24013546.6994
 -17650670.78148 -13743618.45347  20607924.8364                   20607922.6094
 -18255962.02047 -14202589.85146  22027863.7114                   22027860.9414
  -7244233.43048  -5633558.15846  21806429.1174                   21806427.2114
 -10859638.52347  -8439443.98645  22684890.8444                   22684892.4964
 -21218616.02047 -16511105.80745  22867271.3984                   22867267.7304
  -6728022.42247  -5219680.05045  23068171.6024                   23068170.2814
   5038336.94546   3937172.31344  23607499.4454                   23607497.7854
 11  8 25  3 12 30.0000000  0 10G12G26G21G29G05G15G25G02G30G18
 -10169417.67247  -7902295.32144  23838185.5234                   23838185.2034
 -12660916.52047  -9854499.12045  21382865.5944                   21382863.7704
   3145046.23047   2458858.15244  23996322.9844                   23996320.3794
 -17729151.95348 -13804772.61347  20592990.3834                   20592987.8284
 -18208493.94948 -14165601.75146  22036897.0634                   22036893.8914
  -7355345.20348  -5720138.71446  21785285.3284                   21785283.1414
 -10823225.95347  -8411070.58145  22691820.5084                   22691821.0354
 -21199467.29347 -16496184.78444  22870915.7894                   22870911.7854
  -6687085.30947  -5187781.03844  23075961.2274                   23075960.5514
   4929875.10546   3852656.70644  23586860.0634                   23586858.5274
 11  8 25  3 13  0.0000000  0 10G12G26G21G29G05G15G25G02G30G18
 -10108590.58247  -7854897.66544  23849760.9694                   23849759.8524
 -12734450.22748  -9911798.08046  21368872.4064                   21368870.4104
   3054476.59846   2388284.46144  23979088.1484                   23979085.5354
 -17807219.62548 -13865604.53947  20578134.8834                   20578132.0744
 -18160864.32047 -14128487.74846  22045960.2274                   22045957.1884
  -7466126.62148  -5806461.85946  21764204.6954                   21764202.2854
 -10786555.31647  -8382496.09045  22698798.5554                   22698799.4104
 -21180195.14547 -16481167.53445  22874583.2034                   22874578.9534
  -6645940.48047  -5155720.15345  23083790.8444                   23083789.7814
   4821646.36746   3768322.69244  23566264.7424                   23566262.4924
 11  8 25  3 13 30.0000000  0 10G12G26G21G29G05G15G25G02G30G18
 -10047786.80947  -7807518.18344  23861331.4534                   23861331.1844
 -12807392.89148  -9968636.48746  21354992.1254                   21354989.9064
   2963859.75447   2317674.03544  23961844.3984                   23961842.1644
 -17884873.04748 -13926113.69747  20563357.7584                   20563355.3594
 -18113076.58647 -14091250.56146  22055054.1024                   22055051.2664
  -7576576.37948  -5892526.56546  21743186.4144                   21743184.1454
 -10749631.05547  -8353723.97445  22705825.0554                   22705826.1764
 -21160800.10947 -16466054.56144  22878274.3364                   22878269.5864
  -6604592.50046  -5123500.95845  23091658.6334                   23091658.0594
   4713650.18047   3684169.91743  23545713.9924                   23545711.8444
